[[{"header":{"parameterUnit":"m.s-1","parameterCategory":1,"la1":30.6,"la2":29.2853,"lo1":-89.7004,"lo2":-87.6739,"dy":0.0162,"dx":0.0183,"nx":112,"ny":82,"refTime":"2026-03-10T00:00:00:Z","depth":0,"parameterNumber":2,"parameterNumberName":"U-component_of_WINDS"},"data":[0.0,0.0,0.0,0.0,0.0,0.0,0.0,0.0,0.0,0.0,0.0,0.0,0.0,0.0,0.0,0.0,0.0,0.0,0.0,0.0,0.0,0.0,0.0,0.0,0.0,0.0,0.0,0.0,0.0,0.0,0.0,0.0,0.0,0.0,0.0,0.0,0.0,0.0,0.0,0.0,0.0,0.0,0.0,0.0,0.0,0.0,0.0,0.0,0.0,0.0,0.0,0.0,0.0,0.0,0.0,0.0,0.0,0.0,0.0,0.0,0.0,0.0,0.0,0.0,0.0,0.0,0.0,0.0,0.0,0.0,0.0,0.0,0.0,0.0,0.0,0.0,0.0,0.0,0.0,0.0,0.0,0.0,0.0,0.0,0.0,0.0,0.0,0.0,0.0,0.0,-2.656,-3.0433,-3.3263,-3.5059,-3.5527,-3.4022,-3.1778,-2.8732,0.0,0.0,0.0,0.0,0.0,0.0,0.0,0.0,0.0,0.0,0.0,0.0,0.0,0.0,0.0,0.0,0.0,0.0,0.0,0.0,0.0,0.0,0.0,0.0,0.0,0.0,0.0,0.0,0.0,0.0,0.0,0.0,0.0,0.0,0.0,0.0,0.0,0.0,0.0,0.0,0.0,0.0,0.0,0.0,0.0,0.0,0.0,0.0,0.0,0.0,0.0,0.0,0.0,0.0,0.0,0.0,0.0,0.0,0.0,0.0,0.0,0.0,0.0,0.0,0.0,0.0,0.0,0.0,0.0,0.0,0.0,0.0,0.0,0.0,0.0,0.0,0.0,0.0,0.0,0.0,0.0,0.0,0.0,0.0,0.0,0.0,0.0,0.0,0.0,0.0,0.0,0.0,0.0,0.0,0.0,0.0,0.0,0.0,0.0,0.0,0.0,0.0,0.0,0.0,-2.7031,-3.2288,-3.3207,-3.3725,-3.4474,-3.2448,-3.0338,-2.8461,0.0,0.0,0.0,0.0,0.0,0.0,0.0,0.0,0.0,0.0,0.0,0.0,0.0,0.0,0.0,0.0,0.0,0.0,0.0,0.0,0.0,0.0,0.0,0.0,0.0,0.0,0.0,0.0,0.0,0.0,0.0,0.0,0.0,0.0,0.0,0.0,0.0,0.0,0.0,0.0,0.0,0.0,0.0,0.0,0.0,0.0,0.0,0.0,0.0,0.0,0.0,0.0,0.0,0.0,0.0,0.0,0.0,0.0,0.0,0.0,0.0,0.0,0.0,0.0,0.0,0.0,0.0,0.0,0.0,0.0,0.0,0.0,0.0,0.0,0.0,0.0,0.0,0.0,0.0,0.0,0.0,0.0,0.0,0.0,0.0,0.0,0.0,0.0,0.0,0.0,0.0,0.0,0.0,0.0,0.0,0.0,0.0,0.0,0.0,0.0,0.0,0.0,0.0,-2.6409,-2.8979,-3.2742,-3.3073,-3.3364,-3.4141,-3.198,-2.9926,-2.834,-2.4144,0.0,0.0,0.0,0.0,0.0,0.0,0.0,0.0,0.0,0.0,0.0,0.0,0.0,0.0,0.0,0.0,0.0,0.0,0.0,0.0,0.0,0.0,0.0,0.0,0.0,0.0,0.0,0.0,0.0,0.0,0.0,0.0,0.0,0.0,0.0,0.0,0.0,0.0,0.0,0.0,0.0,0.0,0.0,0.0,0.0,0.0,0.0,0.0,0.0,0.0,0.0,0.0,0.0,0.0,0.0,0.0,0.0,0.0,0.0,0.0,0.0,0.0,0.0,0.0,0.0,0.0,0.0,0.0,0.0,0.0,0.0,0.0,0.0,0.0,0.0,0.0,0.0,0.0,0.0,0.0,0.0,0.0,0.0,0.0,0.0,0.0,0.0,0.0,0.0,0.0,0.0,0.0,0.0,0.0,0.0,0.0,0.0,0.0,0.0,0.0,0.0,0.0,-2.9336,-3.0707,-3.2778,-3.2997,-3.3166,-3.3643,-3.1509,-2.9553,-2.8142,-2.3466,0.0,0.0,0.0,0.0,0.0,0.0,0.0,0.0,0.0,0.0,0.0,0.0,0.0,0.0,0.0,0.0,0.0,0.0,0.0,0.0,0.0,0.0,0.0,0.0,0.0,0.0,0.0,0.0,0.0,0.0,0.0,0.0,0.0,0.0,0.0,0.0,0.0,0.0,0.0,0.0,0.0,0.0,0.0,0.0,0.0,0.0,0.0,0.0,0.0,0.0,0.0,0.0,0.0,0.0,0.0,0.0,0.0,0.0,0.0,0.0,0.0,0.0,0.0,0.0,0.0,0.0,0.0,0.0,0.0,0.0,0.0,0.0,0.0,0.0,0.0,0.0,0.0,0.0,0.0,0.0,0.0,0.0,0.0,0.0,0.0,0.0,0.0,0.0,0.0,0.0,0.0,0.0,0.0,0.0,0.0,0.0,0.0,0.0,0.0,0.0,0.0,0.0,-2.9749,-3.1237,-3.2834,-3.2948,-3.2789,-3.244,-3.0379,-2.869,-2.7709,-2.2644,0.0,0.0,0.0,0.0,0.0,0.0,0.0,0.0,0.0,0.0,0.0,0.0,0.0,0.0,0.0,0.0,0.0,0.0,0.0,0.0,0.0,0.0,0.0,0.0,0.0,0.0,0.0,0.0,0.0,0.0,0.0,0.0,0.0,0.0,0.0,0.0,0.0,0.0,0.0,0.0,0.0,0.0,0.0,0.0,0.0,0.0,0.0,0.0,0.0,0.0,0.0,0.0,0.0,0.0,0.0,0.0,0.0,0.0,0.0,0.0,0.0,0.0,0.0,0.0,0.0,0.0,0.0,0.0,0.0,0.0,0.0,0.0,0.0,0.0,0.0,0.0,0.0,0.0,0.0,0.0,0.0,0.0,0.0,0.0,0.0,0.0,0.0,0.0,0.0,0.0,0.0,0.0,0.0,0.0,0.0,0.0,0.0,0.0,0.0,0.0,0.0,0.0,-2.8838,-3.0068,-3.2038,-3.2231,-3.2144,-3.1932,-3.0334,-2.8737,-2.7423,0.0,0.0,0.0,0.0,0.0,0.0,0.0,0.0,0.0,0.0,0.0,0.0,0.0,0.0,0.0,0.0,0.0,0.0,0.0,0.0,0.0,0.0,0.0,0.0,0.0,0.0,0.0,0.0,0.0,0.0,0.0,0.0,0.0,0.0,0.0,0.0,0.0,0.0,0.0,0.0,0.0,0.0,0.0,0.0,0.0,0.0,0.0,0.0,0.0,0.0,0.0,0.0,0.0,0.0,0.0,0.0,0.0,0.0,0.0,0.0,0.0,0.0,0.0,0.0,0.0,0.0,0.0,0.0,0.0,0.0,0.0,0.0,0.0,0.0,0.0,0.0,0.0,0.0,0.0,0.0,0.0,0.0,0.0,0.0,0.0,0.0,0.0,0.0,0.0,0.0,0.0,0.0,0.0,0.0,0.0,0.0,0.0,0.0,0.0,0.0,0.0,0.0,-2.7141,-2.839,-2.9606,-3.1563,-3.177,-3.1593,-3.1185,-2.9831,-2.8236,-2.642,0.0,0.0,0.0,0.0,0.0,0.0,0.0,0.0,0.0,0.0,0.0,0.0,0.0,0.0,0.0,0.0,0.0,0.0,0.0,0.0,0.0,0.0,0.0,0.0,0.0,0.0,0.0,0.0,0.0,0.0,0.0,0.0,0.0,0.0,0.0,0.0,0.0,0.0,0.0,0.0,0.0,0.0,0.0,0.0,0.0,0.0,0.0,0.0,0.0,0.0,0.0,0.0,0.0,0.0,0.0,0.0,0.0,0.0,0.0,0.0,0.0,0.0,0.0,0.0,0.0,0.0,0.0,0.0,0.0,0.0,0.0,0.0,0.0,0.0,0.0,0.0,0.0,0.0,0.0,0.0,0.0,0.0,0.0,0.0,0.0,0.0,0.0,0.0,0.0,0.0,0.0,0.0,0.0,0.0,0.0,0.0,0.0,0.0,0.0,0.0,0.0,0.0,-2.6792,-2.8671,-3.0128,-3.154,-3.1677,-3.1219,-3.0095,-2.8707,-2.6911,0.0,0.0,0.0,0.0,0.0,0.0,0.0,0.0,0.0,0.0,0.0,0.0,0.0,0.0,0.0,0.0,0.0,0.0,0.0,0.0,0.0,0.0,0.0,0.0,0.0,0.0,0.0,0.0,0.0,0.0,0.0,0.0,0.0,0.0,0.0,0.0,0.0,0.0,0.0,0.0,0.0,0.0,0.0,0.0,0.0,0.0,0.0,0.0,0.0,0.0,0.0,0.0,0.0,0.0,0.0,0.0,0.0,0.0,0.0,0.0,0.0,0.0,0.0,0.0,0.0,0.0,0.0,0.0,0.0,0.0,0.0,0.0,0.0,0.0,0.0,0.0,0.0,0.0,0.0,0.0,0.0,0.0,0.0,0.0,0.0,0.0,0.0,0.0,0.0,0.0,0.0,0.0,0.0,0.0,0.0,0.0,0.0,0.0,0.0,0.0,0.0,0.0,0.0,-2.5754,-2.7707,-2.9292,-3.0694,-3.0845,-3.052,-2.9665,-2.8748,-2.7082,-2.428,0.0,0.0,0.0,0.0,0.0,0.0,0.0,0.0,0.0,0.0,0.0,0.0,0.0,0.0,0.0,0.0,0.0,0.0,0.0,0.0,0.0,0.0,0.0,0.0,0.0,0.0,0.0,0.0,0.0,0.0,0.0,0.0,0.0,0.0,0.0,0.0,0.0,0.0,0.0,0.0,0.0,0.0,0.0,0.0,0.0,0.0,0.0,0.0,0.0,0.0,0.0,0.0,0.0,0.0,0.0,0.0,0.0,0.0,0.0,0.0,0.0,0.0,0.0,0.0,0.0,0.0,0.0,0.0,0.0,0.0,0.0,0.0,0.0,0.0,0.0,0.0,0.0,0.0,0.0,0.0,0.0,0.0,0.0,0.0,0.0,0.0,0.0,0.0,0.0,0.0,0.0,0.0,0.0,0.0,0.0,0.0,0.0,0.0,0.0,0.0,0.0,0.0,-2.512,-2.7217,-2.8956,-3.034,-3.0506,-3.0075,-2.9085,-2.8641,-2.7017,-2.3768,0.0,0.0,0.0,0.0,0.0,0.0,0.0,0.0,0.0,0.0,0.0,0.0,0.0,0.0,0.0,0.0,0.0,0.0,0.0,0.0,0.0,0.0,0.0,0.0,0.0,0.0,0.0,0.0,0.0,0.0,0.0,0.0,0.0,0.0,0.0,0.0,0.0,0.0,0.0,0.0,0.0,0.0,0.0,0.0,0.0,0.0,0.0,0.0,0.0,0.0,0.0,0.0,0.0,0.0,0.0,0.0,0.0,0.0,0.0,0.0,0.0,0.0,0.0,0.0,0.0,0.0,0.0,0.0,0.0,0.0,0.0,0.0,0.0,0.0,0.0,0.0,0.0,0.0,0.0,0.0,0.0,0.0,0.0,0.0,0.0,0.0,0.0,0.0,0.0,0.0,0.0,0.0,0.0,0.0,0.0,0.0,0.0,0.0,0.0,0.0,0.0,0.0,-2.4729,-2.7038,-2.886,-3.0278,-3.0426,-2.9869,-2.845,-2.8373,-2.6833,-2.3174,0.0,0.0,0.0,0.0,0.0,0.0,0.0,0.0,0.0,0.0,0.0,0.0,0.0,0.0,0.0,0.0,0.0,0.0,0.0,0.0,0.0,0.0,0.0,0.0,0.0,0.0,0.0,0.0,0.0,0.0,0.0,0.0,0.0,0.0,0.0,0.0,0.0,0.0,0.0,0.0,0.0,0.0,0.0,0.0,0.0,0.0,0.0,0.0,0.0,0.0,0.0,0.0,0.0,0.0,0.0,0.0,0.0,0.0,0.0,0.0,-2.049,-1.9881,0.0,0.0,0.0,0.0,0.0,0.0,0.0,0.0,0.0,0.0,0.0,0.0,0.0,0.0,0.0,0.0,0.0,0.0,0.0,0.0,0.0,0.0,0.0,0.0,0.0,0.0,0.0,0.0,0.0,0.0,0.0,0.0,0.0,0.0,0.0,0.0,0.0,0.0,0.0,0.0,-2.4028,-2.6381,-2.8331,-2.9778,-2.9962,-2.9355,-2.7887,-2.8165,-2.6937,-2.3517,-2.0782,0.0,0.0,0.0,0.0,0.0,0.0,0.0,0.0,0.0,0.0,0.0,0.0,0.0,0.0,0.0,0.0,0.0,0.0,0.0,0.0,0.0,0.0,0.0,0.0,0.0,0.0,0.0,0.0,0.0,0.0,0.0,0.0,0.0,0.0,0.0,0.0,0.0,0.0,0.0,0.0,0.0,0.0,0.0,0.0,0.0,0.0,0.0,0.0,0.0,0.0,0.0,0.0,0.0,0.0,0.0,0.0,0.0,0.0,0.0,-2.2668,-2.1616,0.0,0.0,0.0,0.0,0.0,0.0,0.0,0.0,0.0,0.0,0.0,0.0,0.0,0.0,0.0,0.0,0.0,0.0,0.0,0.0,0.0,0.0,0.0,0.0,0.0,0.0,0.0,0.0,0.0,0.0,0.0,0.0,0.0,0.0,0.0,0.0,0.0,0.0,0.0,0.0,-2.3193,-2.547,-2.7379,-2.8826,-2.8704,-2.8169,-2.7374,-2.7268,-2.6209,-2.3738,-2.1565,0.0,0.0,0.0,0.0,0.0,0.0,0.0,0.0,0.0,0.0,0.0,0.0,0.0,0.0,0.0,0.0,0.0,0.0,0.0,0.0,0.0,0.0,0.0,0.0,0.0,0.0,0.0,0.0,0.0,0.0,0.0,0.0,0.0,0.0,0.0,0.0,0.0,0.0,0.0,0.0,0.0,0.0,0.0,0.0,0.0,0.0,0.0,0.0,0.0,0.0,0.0,0.0,0.0,-2.7131,-2.8,-2.9159,-2.8435,-2.8283,-2.8412,-2.5222,-2.398,-2.4124,-2.3173,0.0,0.0,0.0,0.0,0.0,0.0,0.0,0.0,0.0,0.0,0.0,0.0,0.0,0.0,0.0,0.0,0.0,0.0,0.0,0.0,0.0,0.0,-2.1256,-2.0827,-2.1619,-2.1946,-2.0051,0.0,0.0,0.0,0.0,0.0,0.0,0.0,0.0,0.0,0.0,0.0,-2.2716,-2.4729,-2.6367,-2.7665,-2.7308,-2.6892,-2.6724,-2.6272,-2.5388,-2.3974,-2.252,-2.0886,0.0,0.0,0.0,0.0,0.0,0.0,0.0,0.0,0.0,0.0,0.0,0.0,0.0,0.0,0.0,0.0,0.0,0.0,0.0,0.0,0.0,0.0,0.0,0.0,0.0,0.0,0.0,0.0,0.0,0.0,0.0,0.0,-1.8681,-1.9005,0.0,0.0,0.0,0.0,0.0,0.0,0.0,0.0,0.0,0.0,0.0,0.0,0.0,-2.6277,-2.8693,-2.9135,-2.971,-3.0466,-3.0144,-3.0102,-3.028,-2.9648,-2.9681,-3.0141,-2.9128,0.0,-2.6079,-2.4242,0.0,0.0,0.0,0.0,0.0,0.0,0.0,0.0,0.0,0.0,0.0,0.0,0.0,0.0,0.0,0.0,0.0,0.0,0.0,0.0,0.0,0.0,-2.4216,-2.4694,-2.4956,-2.4859,-2.3996,-2.1197,-1.8827,-1.8747,-1.7853,-1.699,0.0,0.0,0.0,0.0,0.0,0.0,-2.3407,-2.4723,-2.5719,-2.6552,-2.6552,-2.622,-2.5589,-2.5817,-2.5486,-2.4313,-2.2968,-2.175,-2.0709,-1.8323,0.0,0.0,0.0,0.0,0.0,0.0,0.0,0.0,0.0,0.0,0.0,0.0,0.0,0.0,0.0,0.0,0.0,0.0,0.0,0.0,0.0,0.0,0.0,0.0,0.0,0.0,0.0,0.0,0.0,-1.954,-2.0299,-2.0035,-2.0593,-2.06,0.0,0.0,0.0,0.0,0.0,0.0,0.0,0.0,0.0,-2.7636,-2.8014,-2.8873,-3.0166,-3.0667,-3.1268,-3.1932,-3.2091,-3.2183,-3.2183,-3.1898,-3.1928,-3.2168,-3.1898,-3.1076,-2.9744,-2.738,-2.542,-2.3834,0.0,0.0,0.0,0.0,-2.2243,-2.2622,-2.2906,-2.3251,-2.3392,-2.2248,0.0,0.0,0.0,0.0,0.0,0.0,0.0,-2.1994,-2.2706,-2.4022,-2.5232,-2.554,-2.5615,-2.5516,-2.5217,-2.3841,-2.2259,-2.0872,-2.0131,-1.9254,-1.7742,-1.7364,0.0,0.0,0.0,-2.0977,-2.2966,-2.3884,-2.4606,-2.5311,-2.5038,-2.4841,-2.4902,-2.4756,-2.4432,-2.3946,-2.3349,-2.2707,-2.1993,-2.0478,-1.8688,0.0,0.0,0.0,0.0,0.0,0.0,0.0,0.0,0.0,0.0,0.0,0.0,0.0,0.0,0.0,0.0,0.0,0.0,0.0,0.0,0.0,0.0,0.0,0.0,0.0,0.0,0.0,0.0,-2.1395,-2.2069,-2.1062,-2.2293,-2.2575,0.0,0.0,0.0,0.0,0.0,0.0,-2.722,-2.8728,-2.9677,-3.0042,-3.0529,-3.1033,-3.1509,-3.2033,-3.2587,-3.3275,-3.3769,-3.4008,-3.4008,-3.4008,-3.4008,-3.3993,-3.3829,-3.3469,-3.2811,-3.0178,-2.8008,-2.6333,-2.5989,-2.5136,-2.4193,-2.4859,-2.5435,-2.5884,-2.6048,-2.6437,-2.6626,-2.5106,-2.4096,-2.3272,-2.2263,0.0,0.0,0.0,0.0,-2.3444,-2.4371,-2.5112,-2.5717,-2.604,-2.6108,-2.6108,-2.6108,-2.5974,-2.5241,-2.3116,-2.2413,-2.156,-1.9552,-1.9208,0.0,-1.9675,-2.0438,-2.144,-2.2763,-2.331,-2.3789,-2.4291,-2.3909,-2.3804,-2.4291,-2.3894,-2.3595,-2.3595,-2.3595,-2.3385,-2.2957,-2.2313,-2.0857,-1.8521,0.0,0.0,0.0,0.0,0.0,0.0,0.0,0.0,0.0,0.0,0.0,0.0,0.0,0.0,0.0,0.0,0.0,0.0,0.0,0.0,0.0,0.0,0.0,0.0,0.0,0.0,0.0,0.0,0.0,-2.1874,-2.5009,0.0,0.0,0.0,0.0,-2.7325,-2.7974,-2.8933,-3.022,-3.037,-3.1014,-3.2302,-3.2377,-3.3006,-3.4294,-3.4339,-3.4681,-3.5355,-3.5385,-3.54,-3.54,-3.54,-3.54,-3.537,-3.4711,-3.4444,-3.4204,-3.1509,-2.9639,-2.8323,-2.7036,-2.6123,-2.5585,-2.6243,-2.6512,-2.6632,-2.7285,-2.7525,-2.7525,-2.742,-2.6512,-2.545,-2.5375,-2.4889,0.0,0.0,-2.3641,-2.4597,-2.467,-2.5172,-2.6002,-2.7205,-2.7495,-2.7495,-2.7495,-2.7001,-2.6318,-2.5555,-2.4388,-2.346,-2.3325,0.0,-2.1036,-2.2313,-2.1994,-2.2113,-2.3385,-2.358,-2.361,-2.3655,-2.3625,-2.361,-2.3655,-2.3625,-2.3595,-2.3595,-2.3595,-2.3595,-2.355,-2.2972,-2.1999,-2.0583,-1.7951,0.0,0.0,0.0,0.0,0.0,0.0,0.0,0.0,0.0,0.0,0.0,0.0,0.0,0.0,0.0,0.0,0.0,0.0,0.0,0.0,0.0,0.0,0.0,0.0,0.0,0.0,0.0,0.0,-2.5638,-2.7854,0.0,-2.6677,-2.7545,-2.8577,-2.94,-3.0103,-3.1032,-3.2362,-3.3245,-3.4143,-3.504,-3.5459,-3.5893,-3.6357,-3.6372,-3.6492,-3.6731,-3.6327,-3.6133,-3.6118,-3.5699,-3.5504,-3.5489,-3.525,-3.513,-3.504,-3.3634,-3.2287,-3.1031,-3.0105,-2.9328,-2.8742,-2.8577,-2.8771,-2.9086,-2.8948,-2.8874,-2.8614,-2.736,-2.6623,-2.6152,-2.5726,-2.5429,-2.5234,-2.5249,-2.5563,-2.6028,-2.6438,-2.6465,-2.6447,-2.6893,-2.673,-2.6428,-2.6428,-2.6559,-2.6586,-2.6352,-2.5533,-2.4612,-2.3744,-2.3379,-2.308,-2.2748,-2.2838,-2.3086,-2.3535,-2.3595,-2.3595,-2.3595,-2.3595,-2.3595,-2.3595,-2.3595,-2.3595,-2.3595,-2.3595,-2.343,-2.3047,-2.2808,-2.2054,-2.0718,-1.8875,-1.6771,0.0,0.0,0.0,0.0,0.0,0.0,0.0,0.0,0.0,0.0,0.0,0.0,0.0,0.0,0.0,0.0,0.0,0.0,0.0,0.0,0.0,0.0,0.0,0.0,0.0,-2.7744,-2.934,-2.8678,-3.0702,-3.1599,-3.0073,-3.0537,-3.1375,-3.2437,-3.2946,-3.3679,-3.4756,-3.5669,-3.6342,-3.6791,-3.7195,-3.7404,-3.7404,-3.7404,-3.7404,-3.7404,-3.6985,-3.6686,-3.6477,-3.6028,-3.5714,-3.5504,-3.5504,-3.5504,-3.5474,-3.5011,-3.4307,-3.344,-3.2512,-3.1884,-3.1435,-3.0806,-3.0836,-3.1062,-3.0208,-2.9737,-2.9247,-2.7723,-2.7098,-2.6861,-2.6399,-2.6273,-2.6329,-2.6574,-2.6613,-2.6753,-2.7168,-2.6837,-2.6439,-2.6637,-2.6231,-2.5783,-2.5783,-2.6122,-2.6404,-2.6404,-2.6142,-2.5585,-2.4462,-2.4328,-2.4134,-2.3439,-2.3346,-2.3584,-2.4201,-2.3879,-2.3684,-2.3924,-2.3729,-2.3595,-2.3595,-2.3595,-2.3595,-2.3595,-2.34,-2.3122,-2.2718,-2.2478,-2.1829,-2.0718,-1.9113,-1.7106,-1.4688,0.0,0.0,0.0,0.0,0.0,0.0,0.0,0.0,0.0,0.0,0.0,0.0,0.0,0.0,0.0,0.0,0.0,0.0,0.0,0.0,0.0,0.0,0.0,-2.6639,-2.9537,-3.1361,-3.0761,-3.3574,-3.4801,-3.2826,-3.4427,-3.5833,-3.6477,-3.6507,-3.6791,-3.7404,-3.7434,-3.7449,-3.7464,-3.7464,-3.7464,-3.7464,-3.7464,-3.7464,-3.7464,-3.7415,-3.7071,-3.6473,-3.6458,-3.6052,-3.5439,-3.5439,-3.5439,-3.5439,-3.5439,-3.5439,-3.5305,-3.4007,-3.3499,-3.3409,-3.2721,-3.2437,-3.2229,-3.0907,-2.9999,-2.9361,-2.8679,-2.8061,-2.7614,-2.7614,-2.7614,-2.7482,-2.6884,-2.6715,-2.6715,-2.6715,-2.6272,-2.5988,-2.6537,-2.6204,-2.5756,-2.5742,-2.5755,-2.5797,-2.5797,-2.6213,-2.6359,-2.5702,-2.4658,-2.4092,-2.4521,-2.3642,0.0,-2.5288,-2.4388,-2.3835,-2.4477,-2.3977,-2.3573,-2.3573,-2.3573,-2.3573,-2.3551,-2.299,-2.2646,-2.2646,-2.2019,-2.1341,-2.0665,-1.8693,-1.6642,-1.4529,0.0,0.0,0.0,0.0,0.0,0.0,0.0,0.0,0.0,0.0,0.0,0.0,0.0,0.0,0.0,0.0,0.0,0.0,0.0,0.0,0.0,-2.616,-2.8564,-2.9332,-3.1871,-3.3963,-3.4756,-3.6043,-3.6671,-3.6118,-3.6567,-3.6956,-3.715,-3.715,-3.7434,-3.8078,-3.8123,-3.8347,-3.882,-3.8871,-3.8871,-3.8871,-3.8871,-3.8871,-3.882,-3.7765,-3.6942,-3.6312,-3.5257,-3.4417,-3.3831,-3.3831,-3.3831,-3.3831,-3.3831,-3.3831,-3.3813,-3.3522,-3.341,-3.3273,-3.2058,-3.1336,-3.0788,-2.9505,-2.8933,-2.8656,-2.7999,-2.7647,-2.7527,-2.7527,-2.7527,-2.7495,-2.7346,-2.7281,-2.7281,-2.7281,-2.6878,-2.6387,-2.6117,-2.5631,-2.5085,-2.4671,-2.4907,-2.5216,-2.5216,-2.5656,-2.5812,-2.5197,-2.4839,-2.4492,-2.4152,-2.3826,-2.3645,-2.3712,-2.3383,-2.3209,-2.3353,-2.3193,-2.3091,-2.3091,-2.3091,-2.2934,-2.2543,-2.1993,-2.1627,-2.1459,-2.0962,-2.032,-1.9543,-1.8139,-1.6631,0.0,0.0,0.0,0.0,0.0,0.0,0.0,0.0,0.0,0.0,0.0,0.0,0.0,0.0,0.0,0.0,0.0,0.0,0.0,0.0,0.0,0.0,-2.8294,-3.0538,-3.1757,-3.381,-3.5472,-3.6172,-3.7122,-3.7575,-3.7222,-3.7172,-3.7172,-3.7172,-3.7172,-3.7368,-3.7747,-3.7762,-3.7952,-3.8331,-3.8345,-3.8523,-3.8885,-3.856,-3.856,-3.8885,-3.767,-3.6728,-3.6098,-3.4998,-3.4161,-3.3557,-3.329,-3.3178,-3.3178,-3.3178,-3.3178,-3.322,0.0,0.0,0.0,0.0,-3.1119,-3.0257,-2.9231,-2.8717,-2.8384,-2.7723,-2.749,-2.749,-2.749,-2.749,-2.749,-2.749,-2.749,-2.749,-2.749,-2.7105,-2.6562,-2.5955,-2.538,-2.4835,-2.4243,-2.4361,-2.462,-2.462,-2.4878,0.0,-2.4627,-2.4572,-2.4508,-2.4343,-2.3897,-2.3695,-2.4117,-2.3483,-2.3086,-2.3336,-2.2873,-2.2558,-2.2558,-2.2558,0.0,0.0,0.0,-2.1094,-2.0681,-2.0354,0.0,0.0,0.0,0.0,0.0,0.0,0.0,0.0,-1.4406,-1.4308,0.0,0.0,0.0,0.0,0.0,0.0,0.0,0.0,0.0,0.0,0.0,0.0,0.0,0.0,0.0,0.0,-3.0406,-3.1928,-3.3614,-3.5185,-3.6104,-3.6009,-3.721,-3.7744,-3.6972,-3.688,-3.688,-3.688,-3.688,-3.688,-3.688,-3.688,0.0,0.0,0.0,-3.7256,-3.8037,-3.7295,-3.7295,-3.8037,-3.7179,-3.6417,-3.5763,-3.5101,-3.445,-3.3824,-3.3197,-3.2946,-3.2946,-3.2946,-3.2946,-3.2981,-3.3038,-3.3052,-3.2862,-3.2229,-3.1277,-3.0266,-2.9535,0.0,0.0,-2.7716,-2.749,-2.749,-2.749,-2.749,-2.749,-2.749,-2.749,-2.749,-2.749,-2.7157,-2.6608,-2.5968,-2.5432,-2.4926,-2.4256,-2.4083,-2.4083,-2.4083,-2.4083,-2.4083,-2.4083,-2.411,-2.4259,-2.4744,-2.3917,-2.377,-2.5314,-2.4046,-2.325,-2.3828,-2.2822,0.0,-2.2123,-2.2053,-2.1988,-2.1955,-2.1421,-2.0829,-2.0146,-2.0078,-1.9915,-1.9598,-1.9714,-1.9405,-1.867,-1.8907,-1.8865,-1.8486,-1.5768,-1.5681,0.0,0.0,0.0,0.0,0.0,0.0,0.0,0.0,0.0,0.0,0.0,0.0,0.0,0.0,0.0,-2.9048,-3.1016,-3.2698,-3.3528,-3.4873,-3.6016,-3.662,-3.6979,-3.7088,-3.6919,-3.688,-3.688,-3.688,-3.688,-3.688,-3.688,-3.688,-3.688,-3.688,-3.688,-3.6972,-3.7127,-3.6958,-3.6958,-3.7127,-3.632,0.0,-3.4981,-3.371,-3.2826,-3.2205,-3.166,-3.1445,-3.1445,-3.1445,-3.1445,-3.1468,-3.2087,-3.1955,-3.1328,-3.0722,-3.0364,-2.9998,-2.8942,-2.8499,-2.8328,-2.7714,-2.749,-2.749,-2.749,-2.749,0.0,-2.749,-2.749,-2.749,-2.749,-2.7411,-2.7072,-2.6041,-2.5702,-2.5367,-2.4305,-2.4083,-2.4083,-2.4083,-2.4083,-2.4083,-2.4083,-2.4108,-2.4145,-2.4246,-2.4068,-2.3868,-2.3717,-2.3386,-2.3191,-2.328,-2.2676,-2.2264,-2.2264,-2.1817,-2.1361,-2.0983,-2.0767,-2.0353,-1.9738,-2.0171,-2.0087,-1.945,-1.9569,-1.9253,-1.8474,-1.8508,-1.8643,-1.8881,-1.7956,-1.7811,0.0,0.0,0.0,0.0,0.0,0.0,0.0,0.0,0.0,0.0,0.0,-2.5793,-2.7288,0.0,-3.0108,-3.1248,-3.2398,-3.3339,-3.3914,-3.4627,-3.5182,-3.5602,-3.6042,-3.6122,-3.5682,-3.5642,-3.5642,-3.5642,-3.5642,-3.5642,-3.5642,-3.5642,-3.5642,-3.5642,-3.5642,-3.5883,-3.632,-3.5883,-3.5883,-3.6281,-3.5454,-3.4872,-3.4566,-3.3277,-3.2542,-3.2215,-3.1352,-3.0986,-3.0986,-3.0986,-3.0986,-3.1061,-3.1394,-3.1334,-3.0947,-3.066,-3.0348,-2.997,-2.9131,-2.8669,-2.8281,-2.7686,-2.749,-2.749,-2.749,-2.749,-2.749,-2.749,-2.749,-2.749,-2.749,-2.749,-2.7281,-2.6452,-2.6033,-2.5558,-2.4726,-2.4321,-2.4083,-2.4083,-2.4083,-2.4083,-2.4083,-2.4083,-2.4083,-2.4083,-2.4083,-2.3979,-2.3678,-2.3378,-2.319,-2.3162,-2.2405,-2.1912,-2.1912,-2.1379,-2.0923,-2.0612,-2.0612,-2.0432,-2.0084,-2.0344,-2.0344,-2.0059,-1.9947,-1.9744,-1.9461,-1.9351,-1.9393,-1.9598,-1.9381,-1.9216,0.0,0.0,0.0,0.0,0.0,0.0,0.0,-2.3367,-2.4181,-2.6373,-2.7607,-2.8756,-3.0166,-3.1026,-3.1954,-3.3365,-3.3679,-3.3901,-3.4332,-3.4397,-3.4397,-3.4397,-3.5032,-3.5155,-3.4481,-3.4397,-3.4397,-3.4397,-3.4397,-3.4397,-3.4397,-3.4397,-3.4397,-3.4397,-3.4397,-3.4758,-3.5426,-3.4758,-3.4758,-3.5426,-3.4758,-3.4397,-3.4358,-3.3208,-3.2685,-3.2633,-3.1483,-3.0986,-3.0986,-3.0986,-3.0986,-3.0986,-3.0986,-3.0986,-3.0986,-3.0986,-3.0699,-3.0179,-2.964,-2.9131,-2.8608,-2.7915,-2.7659,-2.7633,-2.7529,-2.749,-2.749,-2.749,-2.749,-2.749,-2.749,-2.749,-2.7346,-2.685,-2.6242,-2.5636,-2.5123,-2.4517,-2.4083,-2.4083,-2.4083,-2.4083,-2.4083,-2.4083,-2.4083,-2.4083,-2.4083,-2.4083,-2.4083,-2.3665,-2.3365,-2.3365,-2.2465,-2.1747,-2.1525,-2.1106,-2.0767,-2.0537,-2.0637,-2.0624,-2.0461,-2.0511,-2.0562,-2.0599,-2.0334,-2.0296,-2.0436,-2.0233,-2.0131,-2.0131,-2.0131,-2.0042,-2.4926,-2.4073,-2.3694,-2.3535,-2.3968,-2.5254,0.0,-2.8412,-2.825,-3.0032,-3.0921,-3.138,-3.1575,-3.2555,-3.3365,-3.3561,-3.3992,-3.4332,-3.4384,-3.4397,-3.4397,-3.4397,-3.4481,-3.4522,-3.4397,-3.4397,-3.4397,-3.4397,-3.4397,-3.4397,-3.4397,-3.4397,-3.4397,-3.4397,-3.4397,-3.4439,-3.4551,-3.4439,-3.4439,-3.4551,-3.4439,-3.4397,-3.4358,-3.3208,-3.2685,-3.2633,-3.1483,-3.0986,-3.0986,-3.0986,-3.0986,-3.0986,-3.0986,-3.0986,-3.0986,-3.0986,-3.0947,-3.0803,-3.0205,-2.9957,-2.9722,-2.8647,-2.8281,-2.819,-2.7646,-2.749,-2.749,-2.749,-2.749,-2.749,-2.749,-2.749,-2.7346,-2.685,-2.6242,-2.5636,-2.5123,-2.4517,-2.4083,-2.4083,-2.4083,-2.4083,-2.4083,-2.4083,-2.4083,-2.4083,-2.4083,-2.4083,-2.4083,-2.4031,-2.3992,-2.3992,-2.3391,-2.2582,-2.1603,-2.1459,-2.1198,-2.0713,-2.0687,-2.0574,-2.0233,-2.0524,-2.0549,-2.0258,-2.0233,-2.0207,-2.0233,-1.9965,-1.9824,-1.9824,-1.9824,-1.9965,-2.6739,-2.6033,-2.568,-2.5989,-2.6791,-2.7941,-2.9696,-3.0006,-3.0294,-3.1692,-3.245,-3.2947,-3.3273,-3.3731,-3.4058,-3.4058,-3.4254,-3.4397,-3.4397,-3.4123,-3.3927,-3.3927,-3.3613,-3.3666,-3.4332,-3.4397,-3.4397,-3.4397,-3.4397,-3.4397,-3.4397,-3.4397,-3.4397,-3.4397,-3.4397,-3.4397,-3.4397,-3.4397,-3.4397,-3.4397,-3.4397,-3.4241,-3.3901,-3.3064,-3.2333,-3.1666,-3.1196,-3.0986,-3.0986,-3.0986,-3.0986,-3.0986,-3.0986,-3.0986,-3.0986,-3.0986,-3.0986,-3.0895,-3.0296,-3.01,-2.9957,-2.917,-2.8708,-2.8368,-2.8098,-2.7798,-2.749,-2.749,-2.749,-2.749,-2.749,-2.749,-2.7438,-2.7236,-2.6726,-2.6164,-2.5589,-2.5014,-2.4517,-2.4178,-2.4083,-2.4083,-2.4083,-2.4083,-2.4083,-2.4083,-2.4083,-2.4083,-2.4083,-2.4083,-2.3981,-2.36,-2.3282,-2.2643,-2.1577,-2.1433,-2.1147,-2.0626,-2.0662,-2.0599,-2.0372,-2.0511,-2.0511,-2.0372,-2.0258,-2.0207,-2.0207,-2.0093,-2.0105,-2.0207,-2.0105,-2.0207,-2.7229,-2.7105,-2.7288,-2.7863,-2.9,-3.0176,-3.0884,-3.1405,-3.198,-3.296,-3.3391,-3.3705,-3.411,-3.4175,-3.4175,-3.4175,-3.4293,-3.4397,-3.4397,-3.3927,-3.3587,-3.3587,-3.3064,-3.3012,-3.3849,-3.4071,-3.4241,-3.4384,-3.4397,-3.4397,-3.4397,-3.4397,-3.4397,-3.4397,-3.4397,-3.4397,-3.4397,-3.4397,-3.4397,-3.4397,-3.4397,-3.411,-3.3561,-3.2803,-3.1914,-3.0986,-3.0986,-3.0986,-3.0986,-3.0986,-3.0986,-3.0986,-3.0986,-3.0986,-3.0986,-3.0986,-3.0986,-3.0934,-3.0516,-3.0335,-3.0281,-2.9706,-2.9104,-2.8629,-2.8472,-2.7981,-2.749,-2.749,-2.749,-2.749,-2.749,-2.749,-2.749,-2.749,-2.7092,-2.6588,-2.6138,-2.5602,-2.507,-2.4465,-2.4347,-2.4308,-2.4122,-2.4083,-2.4083,-2.4083,-2.4083,-2.4083,-2.4083,-2.4083,-2.3913,-2.3483,-2.3358,-2.2955,-2.2034,-2.1706,-2.1302,-2.0758,-2.0665,-2.0587,-2.0423,-2.0511,-2.0511,-2.0423,-2.0258,-2.0182,-2.0131,-2.0105,-2.0156,-2.0296,-2.0156,-2.0233,-2.6145,-2.7079,-2.8499,-2.9114,-3.0503,-3.2019,-3.3221,-3.3496,-3.3679,-3.4228,-3.394,-3.36,-3.3613,-3.3613,-3.3613,-3.3613,-3.4058,-3.4397,-3.4397,-3.3927,-3.3587,-3.3587,-3.3064,-3.2712,-3.2738,-3.3273,-3.3835,-3.4358,-3.4397,-3.4397,-3.4397,-3.4397,-3.4397,-3.4397,-3.4397,-3.4397,-3.4397,-3.4397,-3.4397,-3.4397,-3.4397,-3.411,-3.3548,-3.2359,-3.1497,-3.0986,-3.0986,-3.0986,-3.0986,-3.0986,-3.0986,-3.0986,-3.0986,-3.0986,-3.0986,-3.0986,-3.0986,-3.0986,-3.096,-3.096,-3.0869,-3.0257,-2.9719,-2.9144,-2.859,-2.7981,-2.749,-2.749,-2.749,-2.749,-2.749,-2.749,-2.749,-2.749,-2.7092,-2.6693,-2.6693,-2.6203,-2.5628,-2.5083,-2.4966,-2.4796,-2.4217,-2.4083,-2.4083,-2.4083,-2.4083,-2.4083,-2.4083,-2.4083,-2.4083,-2.4057,-2.4057,-2.3809,-2.3182,-2.2551,-2.1912,-2.1328,-2.0797,-2.0423,-2.0207,-2.0524,-2.0549,-2.0207,-2.0207,-2.0131,-2.0016,-1.9888,-1.9837,-1.9824,-1.9798,-1.9837,-2.8007,-2.9091,-3.0383,-3.13,-3.228,-3.3195,-3.3953,-3.4123,-3.4071,-3.3901,-3.3404,-3.2881,-3.2502,-3.2398,-3.2555,-3.2934,-3.3483,-3.3979,-3.4345,-3.3927,-3.3443,-3.3038,-3.2476,-3.2084,-3.2084,-3.2659,-3.3234,-3.3822,-3.3862,-3.4018,-3.4384,-3.4397,-3.4397,-3.4397,-3.4397,-3.4397,-3.4397,-3.4397,-3.4397,-3.4384,-3.3626,-3.3169,-3.2947,-3.1797,-3.1169,-3.0986,-3.0986,-3.0986,-3.0986,-3.0986,-3.0986,-3.0986,-3.0986,-3.0986,-3.0986,-3.0986,-3.0986,-3.0986,-3.0986,-3.0986,-3.096,-3.0764,-3.0307,-2.981,-2.9578,-2.8869,-2.8098,-2.8098,-2.7824,-2.749,-2.749,-2.749,-2.749,-2.749,-2.7346,-2.7131,-2.6798,-2.6549,-2.6216,-2.5641,-2.5254,-2.494,-2.4743,-2.4374,-2.3995,-2.3671,-2.3907,-2.4083,-2.4083,-2.4083,-2.3966,-2.3671,-2.3819,-2.3498,-2.2376,-2.2277,-2.202,-2.1382,-2.0851,-2.0639,-2.0796,-2.0425,-2.0195,-2.0067,-1.9978,-1.9914,-1.9862,-1.9926,-2.0181,-2.0666,-2.0666,-2.0976,-2.9261,-3.0424,-3.1575,-3.2725,-3.3443,-3.3966,-3.4319,-3.4241,-3.3953,-3.3378,-3.2476,-3.1666,-3.1262,-3.0844,-3.0999,-3.2189,-3.2712,-3.33,-3.4254,-3.3927,-3.3443,-3.3064,-3.2502,-3.2111,-3.2111,-3.2293,-3.2725,-3.3535,-3.377,-3.4031,-3.4384,-3.4397,-3.4397,-3.4397,-3.4397,-3.4397,-3.4397,-3.4397,-3.4293,-3.4097,-3.3143,-3.2594,-3.2359,-3.1418,-3.0986,-3.0986,-3.0986,-3.0986,-3.0986,-3.0986,-3.0986,-3.0986,-3.0986,-3.0986,-3.0986,-3.0986,-3.0986,-3.0986,-3.0986,-3.0986,-3.0986,-3.0986,-3.0594,-3.0061,-2.9852,-2.9144,-2.8381,-2.8137,-2.7811,-2.749,-2.749,-2.749,-2.749,-2.749,-2.749,-2.7398,-2.7053,-2.6987,-2.6804,-2.6229,-2.5667,-2.5218,-2.5024,-2.4368,-2.3666,-2.3193,-2.3365,-2.3573,-2.3573,-2.3573,-2.3454,-2.3155,-2.3318,-2.3077,-2.2167,-2.207,-2.1898,-2.1497,-2.0837,-2.0652,-2.1129,-2.0374,-1.9982,-1.9994,-1.989,-1.9811,-1.9784,-2.0099,-2.0599,-2.1239,-2.1239,-2.1538,-2.9905,-3.1066,-3.2202,-3.3352,-3.4018,-3.4384,-3.4358,-3.3927,-3.3365,-3.2698,-3.1196,-2.9944,-2.9892,-2.9052,-2.9078,-3.1301,-3.1771,-3.2437,-3.4162,-3.3953,-3.3626,-3.3587,-3.3091,-3.2725,-3.2685,-3.2228,-3.2359,-3.3509,-3.4031,-3.4332,-3.4397,-3.4397,-3.4397,-3.4397,-3.4397,-3.4397,-3.4397,-3.4371,-3.4097,-3.3587,-3.2947,-3.2359,-3.1784,-3.1248,-3.0986,-3.0986,-3.0986,-3.0986,-3.0986,-3.0986,-3.0986,-3.0986,-3.0986,-3.0986,-3.0986,-3.0986,-3.0986,-3.0986,-3.0986,-3.0986,-3.0986,-3.0986,-3.062,-3.0035,-2.9536,-2.8983,-2.836,-2.7777,-2.7581,-2.7542,-2.7542,-2.7516,-2.749,-2.749,-2.749,-2.749,-2.749,-2.749,-2.7333,-2.685,-2.6238,-2.5608,-2.5057,-2.4045,-2.3173,-2.2684,-2.2555,-2.2531,-2.2592,-2.2592,-2.2573,-2.2531,-2.2531,-2.2531,-2.247,-2.1922,-2.1565,-2.1535,-2.0694,-2.0483,-2.114,-2.0325,-1.9903,-1.997,-1.9915,-1.9844,-1.9789,-2.0405,-2.0991,-2.1503,-2.1559,-2.1571,-3.1731,-3.2881,-3.3809,-3.4123,-3.4293,-3.4293,-3.3888,-3.3339,-3.2515,-3.104,-2.9369,-2.7894,-2.7046,-2.7333,-2.8229,-2.9693,-3.1365,-3.2921,-3.4214,-3.428,-3.4045,-3.3639,-3.3456,-3.3182,-3.2738,-3.2973,-3.3273,-3.3574,-3.33,-3.3496,-3.4345,-3.4397,-3.4397,-3.4397,-3.4397,-3.4397,-3.4397,-3.3992,-3.3731,-3.3587,-3.2542,-3.1941,-3.1784,-3.1248,-3.0986,-3.0986,-3.0986,-3.0986,-3.0986,-3.0986,-3.0986,-3.0986,-3.0986,-3.0986,-3.0986,-3.0986,-3.0986,-3.0986,-3.0986,-3.0986,-3.0986,-3.0986,-3.0895,-3.0738,-3.0594,-3.015,-2.9617,-2.9474,-2.8843,-2.8164,-2.8164,-2.785,-2.749,-2.749,-2.749,-2.749,-2.749,-2.749,-2.7451,-2.7307,-2.6475,-2.5496,-2.4488,-2.3288,-2.2486,-2.2635,-2.1791,-2.1459,-2.247,-2.2378,-2.2082,-2.1753,-2.1815,-2.1542,-2.0782,-2.1166,-2.1284,-2.0885,-2.0488,-2.0333,-2.0514,-1.9934,-1.9609,-1.964,-1.9599,-1.9599,-1.9582,-2.0329,-2.0994,-2.1525,-2.2182,-2.2668,-3.2842,-3.3731,-3.4397,-3.4397,-3.4214,-3.3822,-3.3012,-3.2176,-3.1013,-2.9026,-2.7432,-2.6059,-2.4853,-2.5388,-2.6582,-2.8242,-3.0228,-3.215,-3.3809,-3.4241,-3.428,-3.3979,-3.394,-3.3809,-3.347,-3.3535,-3.3692,-3.3927,-3.3639,-3.3731,-3.4358,-3.4397,-3.4397,-3.4397,-3.4397,-3.4397,-3.4397,-3.3862,-3.3456,-3.3182,-3.2241,-3.168,-3.1457,-3.113,-3.0986,-3.0986,-3.0986,-3.0986,-3.0986,-3.0986,-3.0986,-3.0986,-3.0986,-3.0986,-3.0986,-3.0986,-3.0986,-3.0986,-3.0986,-3.0986,-3.0986,-3.0986,-3.0986,-3.0934,-3.0699,-3.0348,-3.0048,-2.9728,-2.9145,-2.8608,-2.8347,-2.8014,-2.7715,-2.7555,-2.749,-2.749,-2.749,-2.749,-2.7356,-2.6905,-2.6061,-2.5039,-2.3739,-2.2901,-2.2297,-2.194,-2.1194,-2.0892,-2.1439,-2.1459,-2.1282,-2.0869,-2.0901,-2.0698,-2.0161,-2.0688,-2.0848,-2.0409,-2.026,-2.0293,-2.0418,-1.9723,-1.9386,-1.944,-1.944,-1.944,-1.9459,-2.0191,-2.0807,-2.1353,-2.2132,-2.2663,-3.3535,-3.4045,-3.4397,-3.4397,-3.3992,-3.326,-3.198,-3.0688,-2.9095,-2.6817,-2.5332,-2.4115,-2.3067,-2.3485,-2.4723,-2.7007,-2.8913,-3.091,-3.326,-3.3992,-3.4319,-3.4384,-3.4397,-3.4397,-3.4397,-3.3979,-3.3901,-3.4358,-3.4397,-3.4397,-3.4397,-3.4397,-3.4397,-3.4397,-3.4397,-3.4358,-3.4293,-3.3744,-3.3169,-3.2568,-3.1967,-3.147,-3.0986,-3.0986,-3.0986,-3.0986,-3.0986,-3.0986,-3.0986,-3.0986,-3.0986,-3.0986,-3.0986,-3.0986,-3.0986,-3.0986,-3.0986,-3.0986,-3.0986,-3.0986,-3.0986,-3.0986,-3.0986,-3.0895,-3.0361,-3.0218,-3.0077,-2.945,-2.9184,-2.9003,-2.8472,-2.8191,-2.7959,-2.7624,-2.7488,-2.7436,-2.7436,-2.739,-2.704,-2.6,-2.5323,-2.4471,-2.314,-2.2766,-2.228,-2.1144,-2.0902,-2.065,-2.0194,-2.0313,-2.0345,-2.0074,-2.0009,-1.9977,-1.9977,-2.0269,-2.0313,-2.0009,-2.0009,-2.0128,-2.0398,-1.9551,-1.9174,-1.9358,-1.9295,-1.9295,-1.9379,-1.9974,-2.0512,-2.0965,-2.1647,-2.2009,-3.411,-3.4332,-3.4397,-3.4397,-3.3992,-3.3156,-3.1509,-2.9497,-2.7294,-2.5027,-2.2898,-2.1367,-2.1158,-2.2348,-2.4125,-2.6452,-2.8686,-3.091,-3.326,-3.3679,-3.3901,-3.4345,-3.4397,-3.4397,-3.4397,-3.4319,-3.4293,-3.4384,-3.4397,-3.4397,-3.4397,-3.4397,-3.4397,-3.4397,-3.4397,-3.4188,-3.3731,-3.3143,-3.2555,-3.1941,-3.1405,-3.1078,-3.0986,-3.0986,-3.0986,-3.0986,-3.0986,-3.0986,-3.0986,-3.0986,-3.0986,-3.0986,-3.0986,-3.0986,-3.0986,-3.0986,-3.0986,-3.0986,-3.0986,-3.0986,-3.0986,-3.0986,-3.0986,-3.096,-3.0869,-3.083,-3.0817,-3.0688,-3.0149,-2.965,-2.9546,-2.8666,-2.7828,-2.776,-2.74,-2.7079,-2.7079,-2.6816,-2.6311,-2.5323,-2.4814,-2.4289,-2.359,-2.2579,-2.189,-2.1944,-2.1385,-2.0802,-2.0322,-1.9983,-1.9736,-1.9704,-1.9429,-1.9264,-1.9264,-1.9561,-1.9627,-1.9297,-1.9528,-1.9594,-1.9353,-1.9198,-1.9133,-1.9138,-1.9149,-1.9149,-1.9138,-1.9814,-2.0181,-2.0291,-2.0965,-2.1585,-3.4332,-3.4397,-3.4397,-3.4397,-3.3535,-3.2136,-3.0098,-2.8072,-2.5793,-2.291,-2.1459,-2.0515,-1.9876,-2.1159,-2.2884,-2.4596,-2.6569,-2.8769,-3.1431,-3.2045,-3.2672,-3.3849,-3.4228,-3.4397,-3.4397,-3.4397,-3.4397,-3.4397,-3.4397,-3.4397,-3.4397,-3.4397,-3.4397,-3.4397,-3.4123,-3.3849,-3.3587,-3.2698,-3.2071,-3.1797,-3.1261,-3.0986,-3.0986,-3.0986,-3.0986,-3.0986,-3.0986,-3.0986,-3.0986,-3.0986,-3.0986,-3.0986,-3.0986,-3.0986,-3.0986,-3.0986,-3.0986,-3.0986,-3.0986,-3.0986,-3.0986,-3.0986,-3.0986,-3.0986,-3.0986,-3.0986,-3.0986,-3.0874,-3.0478,-3.0044,-2.9711,-2.9113,-2.8405,-2.7911,-2.7059,-2.6277,-2.5871,-2.5405,-2.4898,-2.4445,-2.3986,-2.3534,-2.3075,-2.2472,-2.194,-2.167,-2.1302,-2.0879,-2.0408,-1.9981,-1.9613,-1.9372,-1.9208,-1.9108,-1.9108,-1.9407,-1.9473,-1.9108,-1.9407,-1.944,-1.9098,-1.9108,-1.9108,-1.9108,-1.9108,-1.9108,-1.9108,-1.9419,-1.9584,-1.9584,-2.0258,-2.0741,-3.4358,-3.4397,-3.4397,-3.4397,-3.3104,-3.1197,-2.8908,-2.687,-2.4504,-2.1184,-2.0308,-1.985,-1.8898,-1.9943,-2.1446,-2.2947,-2.4448,-2.6524,-2.9657,-3.062,-3.164,-3.3378,-3.4071,-3.4397,-3.4397,-3.4397,-3.4397,-3.4397,-3.4397,-3.4397,-3.4397,-3.4397,-3.4345,-3.4228,-3.3809,-3.347,-3.3221,-3.2267,-3.1745,-3.1615,-3.1196,-3.0986,-3.0986,-3.0986,-3.0986,-3.0986,-3.0986,-3.0986,-3.0986,-3.0986,-3.0986,-3.0986,-3.0986,-3.0986,-3.0986,-3.0986,-3.0986,-3.0986,-3.0986,-3.0986,-3.0986,-3.0986,-3.0986,-3.0986,-3.0986,-3.0986,-3.0911,-3.0736,-3.0571,-3.0266,-2.9755,-2.9426,-2.8884,-2.7721,-2.6646,-2.562,-2.4671,-2.4072,-2.372,-2.3647,-2.3228,-2.2777,-2.244,-2.2327,-2.205,-2.1348,-2.1269,-2.1093,-2.0591,-2.0265,-1.9907,-1.944,-1.9222,-1.9108,-1.9108,-1.9341,-1.9374,-1.9108,-1.9341,-1.9374,-1.9098,-1.9108,-1.9108,-1.9108,-1.9108,-1.9108,-1.9108,-1.9108,-1.9108,-1.9098,-1.9649,-1.9977,-3.4267,-3.4397,-3.4397,-3.4397,-3.3104,-3.1197,-2.8908,-2.6242,-2.3404,-2.0492,-1.9054,-1.8296,-1.8192,-1.8702,-2.0035,-2.2752,-2.3783,-2.561,-2.9539,-3.062,-3.164,-3.3378,-3.4071,-3.4397,-3.4397,-3.4397,-3.4397,-3.4397,-3.4397,-3.4397,-3.4397,-3.4397,-3.4175,-3.3679,-3.3626,-3.3077,-3.198,-3.1863,-3.1536,-3.1065,-3.1013,-3.0986,-3.0986,-3.0986,-3.0986,-3.0986,-3.0986,-3.0986,-3.0986,-3.0986,-3.0986,-3.0986,-3.0986,-3.0986,-3.0986,-3.0986,-3.0986,-3.0986,-3.0986,-3.0986,-3.0986,-3.0986,-3.0986,-3.0986,-3.0986,-3.0874,-3.0736,-3.0698,-3.0571,-3.0355,-3.0126,-2.9606,-2.8698,-2.6712,-2.6166,-2.5635,-2.405,-2.3666,-2.3519,-2.3139,-2.274,-2.244,-2.2402,-2.2101,-2.1825,-2.1756,-2.1745,-2.158,-2.1114,-2.101,-2.0814,-2.0312,-1.9561,-1.9108,-1.9108,-1.9131,-1.9131,-1.9108,-1.9131,-1.9131,-1.9108,-1.9108,-1.9108,-1.9108,-1.9108,-1.9108,-1.9108,-1.9108,-1.9108,-1.9108,-1.9164,-1.9528,-3.3757,-3.4149,-3.4319,-3.3992,-3.2607,-3.0634,-2.8001,-2.568,-2.3197,-1.993,-1.8898,-1.8479,-1.8166,-1.827,-1.9133,-2.1341,-2.159,-2.2688,-2.6015,-2.7,-2.8399,-3.1182,-3.2306,-3.326,-3.4293,-3.4397,-3.4397,-3.4397,-3.4097,-3.3914,-3.3914,-3.3914,-3.3809,-3.36,-3.2908,-3.228,-3.1797,-3.1496,-3.1209,-3.0986,-3.0986,-3.0986,-3.0986,-3.0986,-3.0986,-3.0986,-3.0986,-3.0986,-3.0986,-3.0986,-3.0986,-3.0986,-3.0986,-3.0986,-3.0986,-3.0986,-3.0986,-3.0986,-3.0986,-3.0986,-3.0986,-3.0836,-3.0811,-3.0811,-3.0811,-3.0685,-3.0533,-3.0533,-3.0381,-3.019,-3.0113,-2.9378,-2.8348,-2.7014,-2.6028,-2.5004,-2.3649,-2.3096,-2.2777,-2.2365,-2.2138,-2.2025,-2.2025,-2.1921,-2.1807,-2.1807,-2.1807,-2.1735,-2.1559,-2.128,-2.1041,-2.0855,-2.0027,-1.9523,-1.9523,-1.9264,-1.9108,-1.9108,-1.9108,-1.9108,-1.9108,-1.9108,-1.9108,-1.9108,-1.9108,-1.9108,-1.9108,-1.9108,-1.9108,-1.9108,-1.9108,-1.9231,-3.2868,-3.347,-3.3809,-3.3417,-3.1888,-2.9846,-2.7295,-2.5079,-2.2701,-1.9551,-1.878,-1.8493,-1.7944,-1.7983,-1.861,-2.0177,-2.0242,-2.1067,-2.3955,-2.4857,-2.6321,-2.9261,-3.0596,-3.1902,-3.3496,-3.4097,-3.4397,-3.4397,-3.3901,-3.3587,-3.3587,-3.326,-3.3077,-3.3077,-3.2228,-3.1719,-3.1549,-3.1196,-3.0986,-3.0986,-3.0986,-3.0986,-3.0986,-3.0986,-3.0986,-3.0986,-3.0986,-3.0986,-3.0986,-3.0986,-3.0986,-3.0986,-3.0986,-3.0986,-3.0986,-3.0986,-3.0986,-3.0986,-3.0986,-3.0986,-3.0986,-3.0849,-3.0698,-3.0609,-3.0609,-3.0457,-3.0292,-3.0292,-2.9985,-2.9638,-2.9715,-2.8823,-2.7756,-2.6901,-2.5942,-2.4822,-2.3496,-2.2915,-2.2459,-2.1904,-2.1807,-2.1807,-2.1807,-2.1807,-2.1807,-2.1807,-2.1807,-2.1807,-2.1807,-2.1518,-2.1321,-2.1321,-2.0627,-2.0145,-2.0,-1.9655,-1.9417,-1.9316,-1.9316,-1.9243,-1.9108,-1.9108,-1.9108,-1.9108,-1.9108,-1.9108,-1.9108,-1.9108,-1.9108,-1.9108,-1.9108,-1.9108,-3.151,-3.228,-3.2712,-3.2698,-3.0986,-2.8878,-2.7112,-2.4482,-2.1747,-1.9381,-1.8479,-1.7917,-1.7316,-1.7695,-1.8479,-1.963,-2.0308,-2.1708,-2.4586,-2.5458,-2.6452,-2.819,-2.9431,-3.057,-3.1719,-3.3404,-3.4397,-3.4397,-3.3901,-3.3587,-3.3587,-3.2489,-3.1823,-3.1823,-3.181,-3.1536,-3.0999,-3.0986,-3.0986,-3.0986,-3.0986,-3.0986,-3.0986,-3.0986,-3.0986,-3.0986,-3.0986,-3.0986,-3.0986,-3.0986,-3.0986,-3.0986,-3.0986,-3.0986,-3.0986,-3.0986,-3.0986,-3.0986,-3.0986,-3.0986,-3.0986,-3.0986,-3.071,-3.0406,-3.0406,-3.0254,-3.0113,-3.0113,-2.9353,-2.8542,-2.8752,-2.7971,-2.6891,-2.601,-2.5806,-2.5298,-2.3569,-2.321,-2.2917,-2.1967,-2.1807,-2.1807,-2.1807,-2.1807,-2.1807,-2.1807,-2.1807,-2.1807,-2.1807,-2.1797,-2.1797,-2.1797,-2.1383,-2.0917,-2.0416,-2.0374,-2.0224,-1.9813,-1.9793,-1.9585,-1.9119,-1.9108,-1.9108,-1.9108,-1.9108,-1.9108,-1.9108,-1.9108,-1.9108,-1.9108,-1.9108,-1.9108,-2.8756,-2.9865,-3.0568,-2.8974,-2.8333,-2.7327,-2.4426,-2.3068,-2.1629,-1.8911,-1.8218,-1.7917,-1.7303,-1.7356,-1.8127,-2.0098,-2.0594,-2.1407,-2.3472,-2.4931,-2.64,-2.8018,-3.0929,-3.3034,-3.352,-3.4084,-3.4241,-3.3875,-3.33,-3.2803,-3.2372,-3.1666,-3.1431,-3.1797,-3.1419,-3.1169,-3.0986,-3.0986,-3.0986,-3.0986,-3.0986,-3.0986,-3.0986,-3.0986,-3.0986,-3.0986,-3.0986,-3.0986,-3.0986,-3.0986,-3.0986,-3.0986,-3.0986,-3.0986,-3.0986,-3.0986,-3.0986,-3.0986,-3.0986,-3.0986,-3.0949,-3.0672,-3.052,-3.0368,-3.0075,-2.9934,-2.9908,-2.9908,-2.9209,-2.8502,-2.8581,-2.7661,-2.6637,-2.6326,-2.578,-2.5095,-2.4266,-2.3591,-2.2946,-2.2382,-2.2025,-2.1807,-2.1807,-2.1807,-2.1807,-2.1807,-2.1807,-2.1807,-2.1807,-2.1807,-2.1807,-2.1807,-2.1673,-2.1393,-2.0938,-2.0571,-2.0369,-2.0224,-2.0213,-2.0151,-1.9996,-1.9996,-1.9996,-1.9996,-1.9996,-1.9996,-1.9996,-1.9996,-1.9996,-1.9996,-1.9996,-1.9996,-2.6269,-2.751,-2.8182,-2.702,-2.6452,-2.5545,-2.296,-2.189,-2.0792,-1.8558,-1.7917,-1.7643,-1.7264,-1.7382,-1.8009,-1.9483,-2.0085,-2.0962,-2.2648,-2.4217,-2.5825,-2.7669,-3.0894,-3.3044,-3.3075,-3.3389,-3.3431,-3.3042,-3.2404,-3.1757,-3.124,-3.1059,-3.1143,-3.1509,-3.1169,-3.0986,-3.0986,-3.0986,-3.0986,-3.0986,-3.0986,-3.0986,-3.0986,-3.0986,-3.0986,-3.0986,-3.0986,-3.0986,0.0,-3.0986,-3.0986,-3.0986,-3.0986,-3.0949,-3.0874,-3.0874,-3.0836,-3.0748,-3.0748,-3.0748,-3.071,-3.0482,-3.0368,-3.0228,-2.9895,-2.9792,-2.9714,-2.9417,-2.8673,-2.7891,-2.7557,-2.6629,-2.5779,-2.5988,-2.555,-2.5083,-2.4818,-2.4162,-2.3451,-2.2867,-2.2379,-2.2014,-2.1838,-2.1807,-2.1807,-2.1807,-2.1807,-2.1807,-2.1807,-2.1807,-2.1807,-2.1807,-2.1807,-2.1683,-2.1393,-2.1114,-2.0829,-2.07,-2.0653,-2.0571,-2.0395,-2.0385,-2.0385,-2.0385,-2.0385,-2.0385,-2.0385,-2.0385,-2.0385,-2.0385,-2.0385,-2.0385,0.0,-2.5014,-2.5615,-2.6052,-2.4988,-2.3563,-2.2374,-2.0871,0.0,-1.827,-1.7591,-1.7225,-1.7303,-1.7748,-1.8166,-1.8375,-1.929,-2.0597,-2.2336,-2.3608,-2.5198,-2.7434,-2.9741,-3.1107,-3.0939,-3.1668,-3.2081,-3.1855,-3.115,-3.0547,-3.0047,-3.0573,-3.0861,-3.0861,-3.0949,-3.0986,-3.0986,-3.0986,-3.0986,-3.0986,-3.0986,-3.0986,-3.0986,-3.0986,-3.0986,-3.0986,-3.0986,-3.0986,-3.0986,-3.0986,-3.0986,-3.0986,-3.0986,-3.0836,-3.0698,-3.0698,-3.0571,-3.0406,-3.0406,-3.0406,-3.0406,-3.0368,-3.0177,-2.996,-2.974,-2.9702,-2.9546,-2.8752,-2.7758,-2.6812,-2.6027,-2.5137,-2.4625,-2.5031,-2.5158,-2.5167,-2.5153,-2.4777,-2.4232,-2.341,-2.2867,-2.2408,-2.1973,-2.188,-2.1859,-2.1859,-2.1828,-2.1807,-2.1807,-2.1807,-2.1807,-2.1807,-2.1807,-2.1807,-2.1807,-2.1807,-2.1621,-2.1186,-2.1166,-2.0932,-2.0498,-2.0488,-2.0488,-2.0488,-2.0488,-2.0488,-2.0488,-2.0488,-2.0488,-2.0488,-2.0488,-2.0488,-2.0035,0.0,-2.2203,-2.1028,-2.1132,-2.108,0.0,-1.9107,-1.8793,-1.7643,-1.7303,-1.7473,-1.8336,-1.8283,-1.8819,-2.1027,-2.1603,-2.2346,-2.3949,-2.5728,-2.7593,-2.9619,-3.0332,-3.0829,-3.1289,-3.0967,-3.0604,-3.0408,-2.9614,-2.8934,-2.8406,-2.9131,-2.9561,-2.9561,-3.033,-3.0849,-3.0986,-3.0849,-3.0849,-3.0986,-3.0986,-3.0986,-3.0986,-3.0986,-3.0986,-3.0986,-3.0986,-3.0986,-3.0986,-3.0986,-3.0911,-3.0773,-3.0773,-3.0647,-3.0482,-3.0482,-3.0444,-3.0406,-3.0406,-3.0406,-3.0368,-3.0228,-2.9586,-2.887,-2.8831,-2.8791,-2.8752,-2.8542,-2.7354,-2.6069,-2.5861,-2.5137,-2.454,-2.4625,-2.4658,-2.468,-2.465,-2.4315,-2.3971,-2.3793,-2.3348,-2.2987,-2.2884,-2.2573,-2.2335,-2.2335,-2.2035,-2.1807,-2.1807,-2.1807,-2.1807,-2.1807,-2.1807,-2.1807,-2.1807,-2.1807,-2.1756,-2.1652,-2.1642,-2.159,-2.1487,-2.1476,-2.1476,-2.1476,-2.1476,-2.1476,-2.1476,-2.1476,-2.1476,-2.1476,-2.1476,-2.1476,-1.8048,-1.959,-2.0975,-2.027,-2.0412,-2.0373,-1.9159,-1.8702,-1.8283,-1.7382,-1.7199,-1.7473,-1.8375,-1.8461,-1.8998,-2.0897,-2.1745,-2.2878,-2.4886,-2.7091,-2.8694,-2.9132,-3.0056,-3.0533,-3.0106,-2.952,-2.9001,-2.8616,-2.8069,-2.7526,-2.7058,-2.7976,-2.8493,-2.8493,-2.9147,-2.996,-3.0836,-3.0849,-3.0874,-3.0986,-3.0986,-3.0986,-3.0986,-3.0986,-3.0986,-3.0986,-3.0911,-3.0717,-3.0446,-3.0644,-3.0492,-3.0173,-3.0468,-3.0457,-3.0254,-3.0254,-3.019,-3.0113,-3.0113,-3.0113,-3.0037,-2.9509,-2.8988,-2.8422,-2.7971,-2.7597,-2.7261,-2.7261,-2.6565,-2.5704,-2.5306,-2.4861,-2.4497,-2.4497,-2.4497,-2.454,-2.4786,-2.447,-2.4157,-2.4189,-2.3825,-2.3432,-2.3225,-2.2977,-2.2739,-2.2532,-2.2283,-2.2045,-2.1828,-2.1807,-2.1807,-2.1807,-2.1807,-2.1807,-2.1807,-2.1807,-2.1807,-2.1807,-2.1807,-2.1807,-2.1807,-2.1807,-2.1807,-2.1807,-2.1807,-2.1807,-2.1807,-2.1807,-2.1807,-2.1807,-2.1807,-2.1807,-1.7525,-1.9182,-2.0818,-2.0845,-2.0713,-2.0373,-1.9695,-1.8858,-1.8074,-1.7565,-1.746,-1.7695,-1.8457,-1.8874,-1.94,-2.0279,-2.1495,-2.3149,-2.5461,-2.769,-2.8673,-2.7689,-2.9171,-2.9714,-2.8366,-2.7844,-2.7346,-2.6836,-2.6593,-2.6287,-2.5872,-2.6912,-2.747,-2.747,-2.7844,-2.8703,-3.0216,-3.052,-3.0672,-3.071,-3.071,-3.0672,-3.0583,-3.0583,-3.0583,-3.0495,-3.0266,-2.9972,-2.9701,-2.977,-2.9605,-2.9313,-2.9694,-2.9808,-2.9756,-2.9678,-2.9599,-2.9585,-2.9456,-2.9378,-2.9248,-2.8554,-2.8211,-2.7931,-2.7151,-2.6287,-2.5579,-2.5579,-2.5579,-2.5421,-2.47,-2.4497,-2.4497,-2.4497,-2.4497,-2.4625,-2.4999,-2.4786,-2.4501,-2.4513,-2.4211,-2.3857,-2.3463,-2.3339,-2.3143,-2.2677,-2.2542,-2.2356,-2.1963,-2.1849,-2.1828,-2.1901,-2.1849,-2.1807,-2.1807,-2.1807,-2.1807,-2.1807,-2.1807,-2.1807,-2.1807,-2.1807,-2.1807,-2.1807,-2.1807,-2.1807,-2.1807,-2.1807,-2.1807,-2.1807,-2.1807,-2.1807,-1.9002,-2.0374,-2.0819,-1.8453,-1.8911,-1.9656,-1.8597,-1.8584,-1.8754,-1.8662,-1.8649,-1.9073,-2.0525,-2.0965,-2.1534,-2.2946,-2.3794,-2.4732,-2.6093,-2.6625,-2.7106,-2.774,-2.7479,-2.7291,-2.7391,-2.6319,-2.572,-2.5972,-2.5264,-2.4818,-2.4743,-2.5621,-2.611,-2.611,-2.7046,-2.7706,-2.7988,-2.8727,-2.9223,-2.9394,-2.9394,-2.9186,-2.8782,-2.8782,-2.8612,-2.8259,-2.7843,-2.823,-2.9091,-2.7619,-2.751,-2.8257,-2.7612,-2.7687,-2.8108,-2.7714,-2.8051,-2.8581,-2.781,-2.7516,-2.7476,-2.7354,-2.6812,-2.6193,-2.6027,-2.5379,-2.47,-2.47,-2.47,-2.4658,-2.454,-2.4497,-2.4497,-2.4497,-2.4497,-2.4497,-2.4583,-2.454,-2.4519,-2.4489,-2.4436,-2.4373,-2.4301,-2.4022,-2.3619,-2.3153,-2.2749,-2.247,-2.2397,-2.2056,-2.1952,-2.2346,-2.2035,-2.1807,-2.1807,-2.1807,-2.1807,-2.1807,-2.1807,-2.1807,-2.1807,-2.1807,-2.1807,-2.1807,-2.1807,-2.1807,-2.1807,-2.1807,-2.1807,-2.1807,-2.1807,-2.1807,-1.8662,-1.9721,-2.027,-1.8937,-2.0139,-2.1433,-2.0622,-2.0137,-1.9876,-1.9876,-1.9646,-1.9924,-2.1456,-2.1756,-2.2388,-2.4218,-2.4755,-2.5153,-2.5898,-2.6513,-2.6963,-2.7165,-2.7066,-2.683,-2.6536,-2.5704,-2.5157,-2.5094,-2.4743,-2.4497,-2.4497,-2.4861,-2.5105,-2.5105,-2.5841,-2.6257,-2.6257,-2.6887,-2.7609,-2.8414,-2.8414,-2.8295,-2.8084,-2.7826,-2.7616,-2.7384,-2.6788,-2.6744,-2.7014,-2.6329,-2.635,-2.675,-2.6683,-2.6962,-2.739,-2.718,-2.7395,-2.7678,-2.7273,-2.711,-2.7017,-2.6565,-2.611,-2.5704,-2.5221,-2.4818,-2.4497,-2.4497,-2.4497,-2.4497,-2.4497,-2.4497,-2.4497,-2.4497,-2.4497,-2.4497,-2.4497,-2.4497,-2.4497,-2.4497,-2.4497,-2.4497,-2.4497,-2.4332,-2.4084,-2.3629,-2.3381,-2.3153,-2.2904,-2.2687,-2.2542,-2.2501,-2.2304,-2.2076,-2.1828,-2.1807,-2.1807,-2.1807,-2.1807,-2.1807,-2.1807,-2.1807,-2.1807,-2.1807,-2.1807,-2.1807,-2.1807,-2.1807,-2.1807,-2.1807,-2.1807,-2.1807,-1.8793,-1.9538,-2.027,-2.0544,-2.1616,-2.2609,-2.2597,-2.1811,-2.116,-2.1468,-2.1001,-2.0874,-2.1988,-2.2377,-2.3083,-2.4838,-2.521,-2.5378,-2.5581,-2.6367,-2.6822,-2.6499,-2.6676,-2.6511,-2.5806,-2.5326,-2.4879,-2.4528,-2.4497,-2.4497,-2.4497,-2.4497,-2.4497,-2.4497,-2.4871,-2.5031,-2.5031,-2.5315,-2.6086,-2.7371,-2.7371,-2.7221,-2.7002,-2.665,-2.6368,-2.6152,-2.5542,-2.5215,-2.5087,-2.4918,-2.5045,-2.536,-2.5611,-2.6049,-2.6535,-2.6741,-2.6659,-2.6494,-2.6494,-2.6494,-2.637,-2.5704,-2.5505,-2.5379,-2.47,-2.4497,-2.4497,-2.4497,-2.4497,-2.4497,-2.4497,-2.4497,-2.4497,-2.4497,-2.4497,-2.4497,-2.4497,-2.4497,-2.4497,-2.4497,-2.4497,-2.4497,-2.4497,-2.4497,-2.4342,-2.395,-2.3919,-2.3753,-2.3391,-2.3256,-2.3091,-2.2842,-2.2718,-2.247,-2.2004,-2.1869,-2.1807,-2.1807,-2.1807,-2.1807,-2.1807,-2.1807,-2.1807,-2.1807,-2.1807,-2.1807,-2.1807,-2.1807,-2.1807,-2.1807,-2.1807,-2.1807,-2.0832,-2.1328,-2.1616,-2.2673,-2.1904,-2.1276,-2.2805,-2.2642,-2.2531,-2.3709,-2.3127,-2.2427,-2.2461,-2.3343,-2.4299,-2.5084,-2.5574,-2.5699,-2.5292,-2.5674,-2.5976,-2.5972,-2.5619,-2.5306,-2.5285,-2.4817,-2.4538,-2.4497,-2.4497,-2.4497,-2.4497,-2.4497,-2.4497,-2.4497,-2.454,-2.454,-2.454,-2.422,-2.4713,-2.6052,-2.6052,-2.5561,-2.4736,-2.4693,-2.4253,-2.3437,-2.2966,-2.3438,-2.4436,-2.2751,-2.3075,-2.4478,-2.3718,-2.3971,-2.4786,-2.5579,-2.539,-2.47,-2.47,-2.47,-2.4658,-2.4615,-2.4583,-2.4583,-2.4497,-2.4497,-2.4497,-2.4497,-2.4497,-2.4497,-2.4497,-2.4497,-2.4497,-2.4497,-2.4497,-2.4497,-2.4497,-2.4497,-2.4497,-2.4497,-2.4497,-2.4497,-2.4497,-2.4497,-2.4342,-2.395,-2.3919,-2.3909,-2.3836,-2.3453,-2.3339,-2.3774,-2.3391,-2.2946,-2.248,-2.2056,-2.1807,-2.1807,-2.1807,-2.1807,-2.1807,-2.1807,-2.1807,-2.1807,-2.1807,-2.1807,-2.1807,-2.1807,-2.1807,-2.1807,-2.1807,-2.1807,-2.027,-2.0976,-2.1694,-2.2519,-2.2465,-2.2527,-2.3471,-2.381,-2.4222,-2.5343,-2.4567,-2.354,-2.32,-2.3764,-2.4337,-2.4591,-2.4846,-2.5065,-2.5192,-2.5334,-2.5575,-2.5889,-2.5502,-2.5189,-2.5189,-2.4766,-2.4497,-2.4497,-2.4497,-2.4497,-2.4497,-2.4497,-2.4497,-2.4497,-2.4497,-2.4497,-2.4497,-2.4105,-2.4127,-2.4671,-2.4374,-2.406,-2.3667,-2.3374,-2.3075,-2.2729,-2.2273,-2.2342,-2.2776,-2.2095,-2.2363,-2.3256,-2.3554,-2.4002,-2.454,-2.4861,-2.4775,-2.4497,-2.4497,-2.4497,-2.4497,-2.4497,-2.4497,-2.4497,-2.4497,-2.4497,-2.4497,-2.4497,-2.4497,-2.4497,-2.4497,-2.4497,-2.4497,-2.4497,-2.4497,-2.4497,-2.4497,-2.4497,-2.4497,-2.4497,-2.4497,-2.4497,-2.4497,-2.4497,-2.4445,-2.4322,-2.4291,-2.4291,-2.4291,-2.4136,-2.3991,-2.3888,-2.3205,-2.2687,-2.2511,-2.2066,-2.1807,-2.1807,-2.1807,-2.1807,-2.1807,-2.1807,-2.1807,-2.1807,-2.1807,-2.1807,-2.1807,-2.1807,-2.1807,-2.1807,-2.1807,-2.1807,-2.0074,-2.0649,-2.142,-2.2205,-2.2687,-2.3221,-2.4094,-2.4756,-2.5419,-2.6328,-2.5281,-2.4099,-2.3837,-2.3876,-2.4057,-2.4277,-2.4556,-2.4776,-2.4941,-2.5096,-2.5241,-2.544,-2.5148,-2.4972,-2.4972,-2.4683,-2.4497,-2.4497,-2.4497,-2.4497,-2.4497,-2.4363,-2.4352,-2.4497,-2.4218,-2.4146,-2.4333,-2.3743,-2.3443,-2.3432,-2.2977,-2.2832,-2.2956,-2.2646,-2.2418,-2.2263,-2.1942,-2.1807,-2.1807,-2.1807,-2.2159,-2.2791,-2.3567,-2.4146,-2.4497,-2.4497,-2.4497,-2.4497,-2.4497,-2.4497,-2.4497,-2.4497,-2.4497,-2.4497,-2.4497,-2.4497,-2.4497,-2.4497,-2.4497,-2.4497,-2.4497,-2.4497,-2.4497,-2.4497,-2.4497,-2.4497,-2.4497,-2.4497,-2.4497,-2.4497,-2.4497,-2.4497,-2.4497,-2.4497,-2.4497,-2.4497,-2.4497,-2.4497,-2.4497,-2.4497,-2.4383,-2.4115,-2.3401,-2.2873,-2.2729,-2.2294,-2.1963,-2.1818,-2.1807,-2.1807,-2.1807,-2.1807,-2.1807,-2.1807,-2.1807,-2.1807,-2.1807,-2.1807,-2.1807,-2.1807,-2.1807,-2.1807,-2.0699,-2.0712,-2.0975,-2.2113,-2.247,-2.2955,-2.461,-2.536,-2.5905,-2.6641,-2.5274,-2.4002,-2.4344,-2.374,-2.3461,-2.427,-2.4837,-2.5024,-2.4559,-2.489,-2.5013,-2.4559,-2.4497,-2.4497,-2.4497,-2.4497,-2.4497,-2.4497,-2.4497,-2.4497,-2.4497,-2.4126,-2.4084,-2.4476,-2.366,-2.3412,-2.3909,-2.2956,-2.2501,-2.249,-2.2025,-2.2045,-2.249,-2.249,-2.2242,-2.1807,-2.1807,-2.1807,-2.1807,-2.1807,-2.2356,-2.3225,-2.3691,-2.4146,-2.4487,-2.4497,-2.4497,-2.4497,-2.4497,-2.4497,-2.4497,-2.4497,-2.4497,-2.4497,-2.4497,-2.4497,-2.4497,-2.4497,-2.4497,-2.4497,-2.4497,-2.4497,-2.4497,-2.4497,-2.4497,-2.4497,-2.4497,-2.4497,-2.4497,-2.4497,-2.4497,-2.4497,-2.4497,-2.4497,-2.4497,-2.4497,-2.4497,-2.4497,-2.4497,-2.4497,-2.4497,-2.4497,-2.4146,-2.3691,-2.3236,-2.277,-2.2304,-2.1849,-2.1807,-2.1807,-2.1807,-2.1807,-2.1807,-2.1807,-2.1807,-2.1807,-2.1807,-2.1807,-2.1807,-2.1807,-2.1807,-2.1807,-2.019,-2.0992,-2.198,-2.1974,-2.3199,-2.4349,-2.4113,-2.4971,-2.5923,-2.654,-2.5971,-2.521,-2.4565,-2.4054,-2.3753,-2.4013,-2.4406,-2.4652,-2.4518,-2.4621,-2.4652,-2.4518,-2.4497,-2.4497,-2.4497,-2.4497,-2.4497,-2.4497,-2.4497,-2.4497,-2.4497,-2.4373,-2.426,-2.4084,-2.3815,-2.3588,-2.3391,-2.2801,-2.2501,-2.249,-2.2025,-2.188,-2.2014,-2.2014,-2.1932,-2.1807,-2.1807,-2.1807,-2.1807,-2.1807,-2.2159,-2.2749,-2.3215,-2.367,-2.4115,-2.4383,-2.4497,-2.4497,-2.4497,-2.4497,-2.4497,-2.4497,-2.4497,-2.4497,-2.4497,-2.4497,-2.4497,-2.4497,-2.4497,-2.4497,-2.4497,-2.4497,-2.4497,-2.4497,-2.4497,-2.4497,-2.4497,-2.4497,-2.4497,-2.4497,-2.4497,-2.4497,-2.4497,-2.4497,-2.4497,-2.4497,-2.4497,-2.4497,-2.4497,-2.4497,-2.4497,-2.4497,-2.4146,-2.3826,-2.3681,-2.2946,-2.2573,-2.277,-2.217,-2.1807,-2.1807,-2.1807,-2.1807,-2.1807,-2.1807,-2.1807,-2.1807,-2.1807,-2.1807,-2.1807,-2.1807,-2.1983,-2.0317,-2.1032,-2.1927,-2.2542,-2.3506,-2.428,-2.4292,-2.5102,-2.6029,-2.6728,-2.625,-2.5553,-2.5132,-2.4416,-2.3939,-2.4115,-2.4321,-2.4497,-2.4497,-2.4497,-2.4497,-2.4497,-2.4497,-2.4497,-2.4497,-2.4497,-2.4497,-2.4497,-2.4332,-2.4311,-2.4487,-2.398,-2.3774,-2.3919,-2.335,-2.3008,-2.2915,-2.2449,-2.2221,-2.2221,-2.1942,-2.1807,-2.1807,-2.1807,-2.1807,-2.1807,-2.1807,-2.1807,-2.1807,-2.1807,-2.2076,-2.2522,-2.2801,-2.3308,-2.3908,-2.4178,-2.4342,-2.4497,-2.4497,-2.4497,-2.4497,-2.4497,-2.4497,-2.4497,-2.4497,-2.4497,-2.4497,-2.4497,-2.4497,-2.4497,-2.4497,-2.4497,-2.454,-2.4743,-2.4625,-2.454,-2.4743,-2.4625,-2.4497,-2.4497,-2.4497,-2.4497,-2.4497,-2.4497,-2.4497,-2.4497,-2.4497,-2.4497,-2.4497,-2.4497,-2.4497,-2.4497,-2.4302,-2.4074,-2.3888,-2.337,-2.3091,-2.3184,-2.2666,-2.2356,-2.2356,-2.2004,-2.1807,-2.1807,-2.1807,-2.1807,-2.1807,-2.1807,-2.1901,-2.2087,-2.2087,-2.2325,-2.0603,-2.0772,-2.1209,-2.3268,-2.3371,-2.3391,-2.4855,-2.5533,-2.6082,-2.705,-2.6185,-2.5409,-2.5802,-2.4809,-2.4074,-2.4435,-2.4497,-2.4497,-2.4497,-2.4497,-2.4497,-2.4497,-2.4497,-2.4497,-2.4497,-2.4497,-2.4497,-2.4497,-2.4136,-2.4053,-2.4414,-2.3256,-2.2925,-2.3774,-2.2532,-2.2056,-2.2428,-2.2014,-2.1807,-2.1807,-2.1807,-2.1807,-2.1807,-2.1807,-2.1807,-2.1807,-2.1807,-2.1807,-2.1807,-2.1807,-2.2056,-2.2439,-2.248,-2.3039,-2.3826,-2.3867,-2.4157,-2.4497,-2.4497,-2.4497,-2.4497,-2.4497,-2.4497,-2.4497,-2.4497,-2.4497,-2.4497,-2.4497,-2.4497,-2.4497,-2.4497,-2.4497,-2.4625,-2.5073,-2.4828,-2.4625,-2.5031,-2.4786,-2.4497,-2.4497,-2.4497,-2.4497,-2.4497,-2.4497,-2.4497,-2.4497,-2.4497,-2.4497,-2.4497,-2.4497,-2.4497,-2.4497,-2.4497,-2.4332,-2.3971,-2.3898,-2.3712,-2.3339,-2.3195,-2.3124,-2.3165,-2.2317,-2.1869,-2.1869,-2.1828,-2.1807,-2.1807,-2.1849,-2.2087,-2.2501,-2.2542,-2.2811,-1.8854,-1.9733,-2.1038,-2.1834,-2.2859,-2.395,-2.4954,-2.5261,-2.5627,-2.6573,-2.6196,-2.5771,-2.5854,-2.5068,-2.4394,-2.4487,-2.4497,-2.4497,-2.4497,-2.4497,-2.4497,-2.4497,-2.4497,-2.4497,-2.4497,-2.4497,-2.4497,-2.4497,-2.4136,-2.3919,-2.4012,-2.3401,-2.2956,-2.2801,-2.2501,-2.2221,-2.1952,-2.1859,-2.1807,-2.1807,-2.1807,-2.1807,-2.1807,-2.1807,-2.1807,-2.1807,-2.1807,-2.1807,-2.1807,-2.1807,-2.1859,-2.1994,-2.2356,-2.2842,-2.3381,-2.3743,-2.4157,-2.4497,-2.4497,-2.4497,-2.4497,-2.4497,-2.4497,-2.4497,-2.4497,-2.4497,-2.4497,-2.4497,-2.4497,-2.4497,-2.4497,-2.4497,-2.4625,-2.5073,-2.4828,-2.454,-2.4625,-2.4583,-2.4497,-2.4497,-2.4497,-2.4497,-2.4497,-2.4497,-2.4497,-2.4497,-2.4497,-2.4497,-2.4497,-2.4497,-2.4497,-2.4497,-2.4497,-2.4456,-2.4363,-2.4074,-2.3981,-2.4197,-2.303,-2.2509,-2.2858,-2.2552,-2.2346,-2.2346,-2.1994,-2.1807,-2.1807,-2.217,-2.2397,-2.2501,-2.2873,-2.3287,-1.8644,-1.9524,-2.077,-2.199,-2.3129,-2.4053,-2.4704,-2.5034,-2.5323,-2.5834,-2.574,-2.5564,-2.5564,-2.4962,-2.4497,-2.4497,-2.4497,-2.4497,-2.4497,-2.4497,-2.4497,-2.4497,-2.4497,-2.4497,-2.4497,-2.4353,-2.4219,-2.4219,-2.3598,-2.3318,-2.3536,-2.2904,-2.2511,-2.2501,-2.2283,-2.2056,-2.1807,-2.1807,-2.1807,-2.1807,-2.1807,-2.1807,-2.1807,-2.1807,-2.1807,-2.1807,-2.1807,-2.1807,-2.1807,-2.1807,-2.1807,-2.1828,-2.2066,-2.2584,-2.3215,-2.3453,-2.3971,-2.4497,-2.4497,-2.4497,-2.4497,-2.4497,-2.4497,-2.4497,-2.4497,-2.4497,-2.4497,-2.4497,-2.4497,-2.4497,-2.4497,-2.4497,-2.454,-2.4828,-2.4658,-2.454,-2.4786,-2.4668,-2.4497,-2.4497,-2.4497,-2.4497,-2.4497,-2.4497,-2.4497,-2.4497,-2.4497,-2.4497,-2.4497,-2.4497,-2.4497,-2.4497,-2.4497,-2.4497,-2.4497,-2.4333,-2.4122,-2.4046,-2.3238,-2.2739,-2.2601,-2.2274,-2.2046,-2.1807,-2.1412,-2.1283,-2.1461,-2.1521,-2.1729,-2.2135,-2.2363,-2.271,-1.8471,-1.9317,-2.0441,-2.247,-2.3422,-2.3971,-2.4301,-2.4735,-2.5065,-2.5065,-2.5127,-2.5189,-2.5189,-2.4817,-2.4497,-2.4497,-2.4497,-2.4497,-2.4497,-2.4497,-2.4497,-2.4497,-2.4497,-2.4466,-2.4394,-2.4095,-2.3888,-2.3805,-2.2977,-2.2666,-2.3049,-2.2263,-2.1983,-2.2366,-2.2004,-2.1807,-2.1807,-2.1807,-2.1807,-2.1807,-2.1807,-2.1807,-2.1807,-2.1807,-2.1807,-2.1807,-2.1807,-2.1807,-2.1807,-2.1807,-2.1807,-2.1807,-2.1807,-2.2366,-2.3184,-2.3184,-2.3764,-2.4497,-2.4497,-2.4497,-2.4497,-2.4497,-2.4497,-2.4497,-2.4497,-2.4497,-2.4497,-2.4497,-2.4497,-2.4497,-2.4583,-2.454,-2.4497,-2.4583,-2.454,-2.4625,-2.4999,-2.4786,-2.4497,-2.4497,-2.4497,-2.4497,-2.4497,-2.4497,-2.4497,-2.4497,-2.4497,-2.4497,-2.4497,-2.4497,-2.4497,-2.4497,-2.4497,-2.4454,-2.4325,-2.4325,-2.4024,-2.3363,-2.3188,-2.2862,-2.2262,-2.1714,-2.1302,-2.0954,-2.0711,-2.0759,-2.1117,-2.0825,-2.1065,-2.1683,-2.1792,-2.2019,-1.6322,-1.7982,-2.0177,-2.1638,-2.2946,-2.3898,-2.395,-2.4312,-2.459,-2.459,-2.491,-2.5189,-2.5189,-2.4817,-2.4497,-2.4497,-2.4497,-2.4497,-2.4497,-2.4497,-2.4497,-2.4497,-2.4497,-2.4342,-2.4002,-2.3919,-2.3712,-2.3308,-2.2791,-2.2522,-2.2584,-2.2087,-2.1838,-2.189,-2.1838,-2.1807,-2.1807,-2.1807,-2.1807,-2.1807,-2.1807,-2.1807,-2.1807,-2.1807,-2.1807,-2.1807,-2.1807,-2.1807,-2.1807,-2.1807,-2.1807,-2.1807,-2.1807,-2.2366,-2.3184,-2.3184,-2.3764,-2.4497,-2.4497,-2.4497,-2.4497,-2.4497,-2.4497,-2.4497,-2.4497,-2.4497,-2.4497,-2.4497,-2.4497,-2.4583,-2.4988,-2.4786,-2.4583,-2.4999,-2.4786,-2.4497,-2.4583,-2.454,-2.4497,-2.4497,-2.4497,-2.4497,-2.4497,-2.4497,-2.4497,-2.4497,-2.4497,-2.4497,-2.4497,-2.4497,-2.4497,-2.4497,-2.4497,-2.4282,-2.3677,-2.3634,-2.3309,-2.258,-2.2015,-2.1624,-2.1535,-2.0863,-2.0459,-2.0407,-2.0824,-2.1061,-2.1117,-2.1391,-2.157,-2.1693,-2.2095,-2.2347,-1.6246,-1.7686,-1.9471,-2.1331,-2.2263,-2.2853,-2.3381,-2.3846,-2.4167,-2.4167,-2.4529,-2.4797,-2.4797,-2.4631,-2.4497,-2.4497,-2.4497,-2.4497,-2.4497,-2.4497,-2.4404,-2.4198,-2.4167,-2.3991,-2.3536,-2.3256,-2.3018,-2.2811,-2.2366,-2.2108,-2.2108,-2.1921,-2.1807,-2.1807,-2.1807,-2.1807,-2.1807,-2.1807,-2.1807,-2.1807,-2.1807,-2.1807,-2.1807,-2.1807,-2.1807,-2.1807,-2.1807,-2.1807,-2.1807,-2.1807,-2.1807,-2.1828,-2.2087,-2.2604,-2.3215,-2.3515,-2.3991,-2.4497,-2.4497,-2.4497,-2.4497,-2.4497,-2.4497,-2.4497,-2.4497,-2.4497,-2.4497,-2.4497,-2.4497,-2.454,-2.4743,-2.4658,-2.454,-2.4743,-2.4658,-2.4497,-2.4497,-2.4497,-2.4497,-2.4497,-2.4497,-2.4497,-2.4497,-2.4497,-2.4497,-2.4497,-2.4497,-2.4497,-2.4497,-2.4497,-2.4497,-2.4497,-2.4153,-2.3807,-2.3547,-2.3135,-2.2589,-2.1872,-2.157,-2.1221,-2.0781,-2.0473,-2.0292,-2.0292,-2.029,-2.0418,-2.0632,-2.0613,-2.0694,-2.0908,-2.1132,-2.1212,-1.5871,-1.7005,-1.8216,-2.0389,-2.1197,-2.1694,-2.2625,-2.3194,-2.3598,-2.3722,-2.4064,-2.429,-2.4177,-2.4342,-2.4497,-2.4497,-2.4497,-2.4497,-2.4497,-2.4404,-2.425,-2.3919,-2.3774,-2.3525,-2.306,-2.2697,-2.2449,-2.2325,-2.2004,-2.1807,-2.1807,-2.1807,-2.1807,-2.1807,-2.1807,-2.1807,-2.1807,-2.1807,-2.1807,-2.1807,-2.1807,-2.1807,-2.1807,-2.1807,-2.1807,-2.1807,-2.1807,-2.1807,-2.1807,-2.1807,-2.1807,-2.1849,-2.2315,-2.278,-2.3246,-2.3712,-2.4157,-2.4497,-2.4497,-2.4497,-2.4497,-2.4497,-2.4497,-2.4497,-2.4497,-2.4497,-2.4497,-2.4497,-2.4497,-2.454,-2.4668,-2.4583,-2.454,-2.4658,-2.4583,-2.4497,-2.4497,-2.4497,-2.4497,-2.4497,-2.4497,-2.4497,-2.4497,-2.4497,-2.4497,-2.4497,-2.4497,-2.4497,-2.4497,-2.4497,-2.4497,-2.4497,-2.3894,-2.3406,-2.3222,-2.2545,-2.1828,-2.1177,-2.1132,-2.0871,-2.0337,-2.0292,-2.0292,-2.0292,-2.0026,-2.0018,-2.0292,-2.0018,-2.0026,-2.0292,-2.0292,-2.0292,-1.4129,-1.5121,-1.627,-1.8134,-1.953,-2.0705,-2.1662,-2.2232,-2.2687,-2.3132,-2.3588,-2.3815,-2.3339,-2.3918,-2.4497,-2.4497,-2.4497,-2.4497,-2.4497,-2.4178,-2.3898,-2.3919,-2.3494,-2.3039,-2.2573,-2.2511,-2.2315,-2.188,-2.1818,-2.1807,-2.1807,-2.1807,-2.1807,-2.1807,-2.1807,-2.1807,-2.1807,-2.1807,-2.1807,-2.1807,-2.1807,-2.1807,-2.1807,-2.1807,-2.1807,-2.1807,-2.1807,-2.1807,-2.1807,-2.1807,-2.1807,-2.1849,-2.2315,-2.278,-2.3246,-2.3712,-2.4157,-2.4497,-2.4497,-2.4497,-2.4497,-2.4497,-2.4497,-2.4497,-2.4497,-2.4497,-2.4497,-2.4497,-2.4497,-2.4583,-2.5031,-2.4828,-2.4625,-2.5073,-2.4828,-2.4497,-2.4497,-2.4497,-2.4497,-2.4497,-2.4497,-2.4497,-2.4497,-2.4497,-2.4497,-2.4497,-2.4497,-2.4497,-2.4497,-2.4497,-2.4497,-2.4497,-2.3894,-2.3222,-2.2536,-2.1837,-2.1132,-2.0374,-2.0382,-2.0337,-2.0292,-2.0292,-2.0292,-2.0292,-2.0275,-2.0275,-2.0292,-2.0275,-2.0275,-2.0292,-2.0292,-2.0292,-1.3289,-1.4531,-1.5991,-1.7182,-1.833,-1.9354,-2.0286,-2.13,-2.2097,-2.2263,-2.2904,-2.3381,-2.3215,-2.3701,-2.4022,-2.3722,-2.367,-2.367,-2.367,-2.3536,-2.3329,-2.3029,-2.2842,-2.2563,-2.2097,-2.2056,-2.1983,-2.1818,-2.1807,-2.1807,-2.1807,-2.1807,-2.1807,-2.1807,-2.1415,-2.1011,-2.0576,-2.0576,-2.0576,-2.0576,-2.0576,-2.0818,-2.1213,-2.1213,-2.1415,-2.1807,-2.1807,-2.1807,-2.1807,-2.1807,-2.1807,-2.1849,-2.2315,-2.278,-2.3246,-2.3712,-2.4157,-2.4497,-2.4497,-2.4497,-2.4497,-2.4497,-2.4497,-2.4497,-2.4497,-2.4497,-2.4497,-2.4497,-2.4497,-2.454,-2.47,-2.4625,-2.454,-2.47,-2.4615,-2.4497,-2.4497,-2.4497,-2.4497,-2.4497,-2.4497,-2.4497,-2.4497,-2.4497,-2.4497,-2.4497,-2.4153,-2.4024,-2.4454,-2.3691,-2.3333,-2.3807,-2.2828,-2.2069,-2.1793,-2.1087,-2.0555,-2.0337,-2.0292,-2.0292,-2.0292,-2.0292,-2.0292,-2.0292,-2.0292,-2.0292,-2.0292,-2.0292,-2.0292,-2.0292,-2.0292,-2.0292,-1.2472,-1.3589,-1.5059,-1.6252,-1.6922,-1.7647,-1.9212,-2.011,-2.0783,-2.1248,-2.2076,-2.2718,-2.2718,-2.3101,-2.336,-2.3215,-2.3184,-2.3184,-2.3184,-2.3049,-2.2842,-2.2532,-2.2356,-2.2149,-2.1838,-2.1807,-2.1807,-2.1807,-2.1807,-2.1807,-2.1807,-2.1606,-2.1367,-2.1165,-2.0779,-2.0343,-1.9904,-1.9904,-1.9904,-1.9904,-1.9904,-2.0255,-2.0905,-2.0905,-2.1223,-2.1807,-2.1807,-2.1807,-2.1807,-2.1807,-2.1807,-2.1869,-2.248,-2.2915,-2.3256,-2.3877,-2.4291,-2.4497,-2.4497,-2.4497,-2.4497,-2.4497,-2.4497,-2.4497,-2.4497,-2.4497,-2.4497,-2.4497,-2.4497,-2.4497,-2.4497,-2.4497,-2.4497,-2.4497,-2.4497,-2.4497,-2.4497,-2.4497,-2.4497,-2.4497,-2.4497,-2.4497,-2.4497,-2.4325,-2.4153,-2.4153,-2.357,-2.3309,-2.3734,-2.2974,-2.258,-2.3081,-2.2113,-2.1401,-2.1401,-2.0736,-2.0292,-2.0292,-2.0292,-2.0292,-2.0292,-2.0292,-2.0292,-2.0292,-2.0292,-2.0292,-2.0292,-2.0292,-2.0292,-2.0292,-2.0292,-2.0292,0.0,0.0,0.0,-1.5163,-1.5287,-1.567,-1.8372,-1.8652,-1.8702,-2.0044,-2.1093,-2.1735,-2.1756,-2.2149,-2.2604,-2.3049,-2.3143,-2.3153,-2.3153,-2.276,-2.248,-2.248,-2.2087,-2.1807,-2.1807,-2.1807,-2.1807,-2.1759,-2.1759,-2.1769,-2.1731,-2.1175,-2.0547,-1.9904,-1.9864,-1.9855,-1.9855,-1.9855,-1.9855,-1.9855,-1.9855,-2.0187,-2.0828,-2.0828,-2.1175,-2.1759,-2.1759,-2.1769,-2.1807,-2.1807,-2.1807,-2.189,-2.2801,-2.3163,-2.3287,-2.4135,-2.4476,-2.4497,-2.4497,-2.4497,-2.4497,-2.4497,-2.4497,-2.4497,-2.4497,-2.4497,-2.4497,-2.4497,-2.4497,-2.4497,-2.4497,-2.4497,-2.4497,-2.4497,-2.4497,-2.4497,-2.4497,-2.4497,-2.4497,-2.4497,-2.4497,-2.4454,-2.4454,-2.3894,-2.346,-2.346,-2.2853,-2.2394,-2.2394,-2.235,-2.235,-2.235,-2.1793,-2.1356,-2.1356,-2.069,-2.0292,-2.0292,-2.0292,-2.0292,-2.0292,-2.0292,-2.0292,-2.0292,-2.0292,-2.0292,-2.0292,-2.0292,-2.0292,-2.0292,-2.0292,-2.0292,-1.2182,0.0,0.0,0.0,0.0,0.0,-1.5877,-1.655,-1.7346,-1.8671,-1.9417,-2.0027,-2.0679,-2.1186,-2.1538,-2.1662,-2.1973,-2.219,-2.219,-2.2076,-2.1994,-2.1994,-2.188,-2.1807,-2.1807,-2.1807,-2.1606,-2.1175,-2.1136,-2.0944,-2.045,-2.0255,-1.9874,-1.9262,-1.9262,-1.9024,-1.8545,-1.8545,-1.8545,-1.8545,-1.8545,-1.8865,-1.9548,-1.9548,-2.0128,-2.1136,-2.1136,-2.1415,-2.1807,-2.1807,-2.1807,-2.1828,-2.2087,-2.2594,-2.3215,-2.3474,-2.3981,-2.4497,-2.4497,-2.4497,-2.4497,-2.4497,-2.4497,-2.4497,-2.4497,-2.4497,-2.4497,-2.4497,-2.4497,-2.4497,-2.4497,-2.4497,-2.4497,-2.4497,-2.4497,-2.4497,-2.4497,-2.411,-2.3937,-2.4411,-2.411,-2.3764,-2.3764,-2.3169,-2.2711,-2.2711,-2.2104,-2.1837,-2.235,-2.1516,-2.1087,-2.1615,-2.1042,-2.06,-2.06,-2.0428,-2.0292,-2.0292,-2.0292,-2.0292,-2.0292,-2.0292,-2.0292,-2.0292,-2.0292,-2.0292,-2.0292,-2.0292,-2.0292,-2.0292,-2.0292,-2.0292,-1.271,-1.3403,-1.4221,-1.3845,0.0,0.0,-1.5049,-1.5401,-1.596,-1.7502,-1.8185,-1.8785,-1.9696,-2.0234,-2.0545,-2.0545,-2.1093,-2.159,-2.1776,-2.1807,-2.1807,-2.1807,-2.1807,-2.1683,-2.1454,-2.1415,-2.1175,-2.0537,-2.0459,-2.0187,-1.9569,-1.952,-1.9253,-1.8603,-1.8603,-1.8402,-1.8,-1.8,-1.8,-1.8,-1.8,-1.8353,-1.9002,-1.9002,-1.9539,-2.0498,-2.0779,-2.1098,-2.1454,-2.1693,-2.1807,-2.1849,-2.2232,-2.2708,-2.3225,-2.3608,-2.4042,-2.4497,-2.4497,-2.4497,-2.4497,-2.4497,-2.4497,-2.4497,-2.4497,-2.4497,-2.4497,-2.4497,-2.4497,-2.4497,-2.4497,-2.4497,-2.4497,-2.4497,-2.4282,-2.4067,-2.4067,-2.3527,-2.3266,-2.3927,-2.3527,-2.3038,-2.3038,-2.2457,-2.1961,-2.1961,-2.1392,-2.1087,-2.1472,-2.0817,-2.0464,-2.0916,-2.0555,-2.0292,-2.0292,-2.0292,-2.0292,-2.0292,-2.0292,-2.0292,-2.0292,-2.0292,-2.0292,-2.0292,-2.0292,-2.0292,-2.0292,-2.0292,-2.0292,-2.0292,-2.0292,-2.0292,-1.3338,-1.3731,0.0,-1.4769,-1.3927,0.0,-1.4966,-1.4749,-1.4682,-1.6366,-1.7079,-1.7668,-1.8566,-1.9155,-1.9462,-1.9428,-2.0231,-2.1071,-2.1662,-2.1776,-2.1807,-2.1807,-2.1807,-2.1568,-2.0944,-2.0944,-2.0663,-1.9864,-1.9747,-1.9423,-1.885,-1.8856,-1.8643,-1.804,-1.8,-1.8,-1.8,-1.8,-1.8,-1.8,-1.8,-1.8313,-1.8882,-1.8882,-1.9222,-1.9825,-2.043,-2.075,-2.0818,-2.1367,-2.1683,-2.189,-2.2708,-2.3101,-2.3287,-2.4053,-2.4414,-2.4497,-2.4497,-2.4497,-2.4497,-2.4497,-2.4497,-2.4497,-2.4497,-2.4497,-2.4497,-2.4497,-2.4497,-2.4497,-2.4411,-2.4368,-2.4368,-2.4272,-2.3797,-2.3363,-2.3363,-2.2809,-2.2492,-2.3144,-2.2721,-2.2315,-2.2315,-2.1748,-2.1266,-2.1266,-2.0736,-2.0292,-2.0292,-2.0292,-2.0292,-2.0292,-2.0292,-2.0292,-2.0292,-2.0292,-2.0292,-2.0292,-2.0292,-2.0292,-2.0292,-2.0292,-2.0292,-2.0292,-2.0292,-2.0292,-2.0292,-2.0292,-2.0292,-2.0292,-2.0292,-2.0292,-1.4542,-1.4728,-1.4707,-1.4045,-1.3962,0.0,-1.3126,-1.3351,-1.3938,-1.4697,-1.5214,-1.5722,-1.6334,-1.7051,-1.7456,-1.7112,-1.8436,-1.9915,-2.1061,-2.1569,-2.1807,-2.1807,-2.1807,-2.1568,-2.0944,-2.1339,-2.0944,-1.9301,-1.8665,-1.8214,-1.7791,-1.8068,-1.8161,-1.8,-1.8,-1.8,-1.8,-1.8,-1.8,-1.8,-1.8,-1.808,-1.8201,-1.8201,-1.8554,-1.9192,-1.9311,-1.9648,-2.0099,-2.0216,-2.0857,-2.1828,-2.2004,-2.2532,-2.3205,-2.3381,-2.3919,-2.4497,-2.4497,-2.4497,-2.4497,-2.4497,-2.4497,-2.4497,-2.4497,-2.4497,-2.4497,-2.4497,-2.4497,-2.4368,-2.3851,-2.3721,-2.3537,-2.2931,-2.2711,-2.2624,-2.2624,-2.2104,-2.1659,-2.1802,-2.1713,-2.1615,-2.1615,-2.0997,-2.051,-2.051,-2.0382,-2.0292,-2.0292,-2.0292,-2.0292,-2.0292,-2.0292,-2.0292,-2.0292,-2.0292,-2.0292,-2.0292,-2.0292,-2.0292,-2.0292,-2.0292,-2.0292,-2.0292,-2.0292,-2.0292,-2.0292,-2.0292,-2.0292,-2.0292,-2.0292,-2.0292,-1.5401,-1.5515,-1.5515,-1.4821,-1.448,0.0,0.0,-1.3279,-1.3514,-1.4459,-1.4353,-1.4383,-1.5267,-1.5614,-1.5761,-1.5752,-1.7236,-1.8544,-1.8984,-1.9994,-2.0707,-2.0707,-2.0707,-2.0558,-2.024,-2.0474,-2.0015,-1.8466,-1.7778,-1.7398,-1.7201,-1.7552,-1.7749,-1.7749,-1.7897,-1.8,-1.8,-1.8,-1.8,-1.8,-1.8,-1.8,-1.8,-1.8,-1.8201,-1.8523,-1.8834,-1.9152,-1.949,-1.9786,-2.0294,-2.0876,-2.1095,-2.183,-2.2737,-2.2971,-2.3656,-2.4497,-2.4497,-2.4497,-2.4497,-2.4497,-2.4497,-2.4454,-2.411,-2.3744,-2.3464,-2.3464,-2.3464,-2.3387,-2.3038,-2.295,-2.2853,-2.2492,-2.2129,-2.1917,-2.1917,-2.1356,-2.0871,-2.0871,-2.0871,-2.0871,-2.0871,-2.0555,-2.0292,-2.0292,-2.0292,-2.0292,-2.0292,-2.0292,-2.0292,-2.0292,-2.0292,-2.0292,-2.0292,-2.0292,-2.0292,-2.0292,-2.0292,-2.0292,-2.0292,-2.0292,-2.0292,-2.0292,-2.0292,-2.0292,-2.0292,-2.0292,-2.0292,-2.0292,-2.0292,-2.0292,-1.6042,-1.6156,-1.6353,-1.5711,-1.5132,-1.4593,0.0,0.0,0.0,-1.4332,-1.379,-1.3422,-1.4316,-1.4271,-1.4175,-1.442,-1.594,-1.6889,-1.6406,-1.7692,-1.8846,-1.9173,-1.9382,-1.9447,-1.9265,-1.9053,-1.8564,-1.7704,-1.7029,-1.6739,-1.6807,-1.7158,-1.7364,-1.7364,-1.7732,-1.7889,-1.7889,-1.7957,-1.8,-1.8,-1.8,-1.8,-1.8,-1.8,-1.8,-1.8031,-1.8554,-1.8803,-1.8834,-1.9323,-1.955,-1.9587,-2.0233,-2.1084,-2.204,-2.2436,-2.3198,-2.41,-2.41,-2.41,-2.41,-2.41,-2.41,-2.4003,-2.345,-2.2862,-2.2394,-2.2394,-2.2394,-2.235,-2.2227,-2.2227,-2.2183,-2.2041,-2.157,-2.1177,-2.1177,-2.0736,-2.0292,-2.0292,-2.0292,-2.0292,-2.0292,-2.0292,-2.0292,-2.0292,-2.0292,-2.0292,-2.0292,-2.0292,-2.0292,-2.0292,-2.0292,-2.0292,-2.0292,-2.0292,-2.0292,-2.0292,-2.0292,-2.0292,-2.0292,-2.0292,-2.0292,-2.0292,-2.0292,-2.0292,-2.0292,-2.0292,-2.0292,-2.0292,-2.0292,-2.0292,-1.6436,-1.6622,-1.6634,-1.539,-1.5608,-1.5608,-1.3524,0.0,-1.3864,-1.2903,0.0,-1.2871,-1.2376,0.0,0.0,-1.2236,-1.3643,-1.4569,-1.3974,-1.4782,-1.6057,-1.7716,-1.8646,-1.8923,-1.8315,-1.7467,-1.7059,-1.7316,-1.6464,-1.6071,-1.6433,-1.6773,-1.6978,-1.6978,-1.7338,-1.7574,-1.7574,-1.7869,-1.8,-1.8,-1.8,-1.8,-1.8,-1.8,-1.8,-1.8,-1.808,-1.8112,-1.8121,-1.8193,-1.8233,-1.8313,-1.9527,-2.0552,-2.1307,-2.1355,-2.1902,-2.2624,-2.2624,-2.2624,-2.2624,-2.2624,-2.2624,-2.2614,-2.2536,-2.2492,-2.2394,-2.2394,-2.2394,-2.2262,-2.1659,-2.1526,-2.1356,-2.069,-2.0464,-2.0419,-2.0419,-2.0382,-2.0292,-2.0292,-2.0292,-2.0292,-2.0292,-2.0292,-2.0292,-2.0292,-2.0292,-2.0292,-2.0292,-2.0292,-2.0292,-2.0292,-2.0292,-2.0292,-2.0292,-2.0292,-2.0292,-2.0292,-2.0292,-2.0292,-2.0292,-2.0292,-2.0292,-2.0292,-2.0292,-2.0292,-2.0292,-2.0292,-2.0292,-2.0292,-2.0292,-2.0292,-1.6498,-1.6705,-1.6748,-1.567,-1.5691,-1.5522,-1.376,-1.3468,-1.342,-1.292,0.0,0.0,0.0,0.0,0.0,0.0,-1.283,-1.338,-1.2625,-1.3375,-1.4503,-1.5908,-1.6262,-1.6471,-1.6691,-1.628,-1.6023,-1.6229,-1.5571,-1.5309,-1.5668,-1.6295,-1.6584,-1.6539,-1.7158,-1.7505,-1.7505,-1.7843,-1.8,-1.8,-1.8,-1.8,-1.8,-1.8,-1.8,-1.8,-1.8,-1.8,-1.8,-1.8,-1.8,-1.8031,-1.8585,-1.9543,-2.0629,-2.0629,-2.1394,-2.2394,-2.2394,-2.2394,-2.2394,-2.2394,-2.2138,-2.1837,-2.1837,-2.1526,-2.1168,-2.1168,-2.1168,-2.1132,-2.0817,-2.0781,-2.069,-2.0382,-2.0292,-2.0292,-2.0292,-2.0292,-2.0292,-2.0292,-2.0292,-2.0292,-2.0292,-2.0292,-2.0292,-2.0292,-2.0292,-2.0292,-2.0292,-2.0292,-2.0292,-2.0292,-2.0292,-2.0292,-2.0292,-2.0292,-2.0292,-2.0292,-2.0292,-2.0292,-2.0292,-2.0292,-2.0292,-2.0292,-2.0292,-2.0292,-2.0292,-2.0292,-2.0292,-2.0292,-2.0292,-2.0292,-1.657,-1.6798,-1.6924,-1.5794,-1.5597,-1.533,-1.3831,-1.3322,-1.3132,-1.2927,-1.2233,0.0,0.0,0.0,-1.154,0.0,0.0,-1.2661,-1.1893,-1.2338,-1.3054,-1.3965,-1.4252,-1.4673,-1.5367,-1.5201,-1.5111,-1.5283,-1.4641,-1.4504,-1.518,-1.5737,-1.6088,-1.6146,-1.6816,-1.7209,-1.7321,-1.7697,-1.7897,-1.8,-1.8,-1.8,-1.8,-1.8,-1.8,-1.8,-1.8,-1.8,-1.8,-1.8,-1.8,-1.8,-1.8,-1.8774,-1.9911,-1.9911,-2.0748,-2.1828,-2.1828,-2.1828,-2.1828,-2.1828,-2.1481,-2.1087,-2.1087,-2.0736,-2.0292,-2.0292,-2.0292,-2.0292,-2.0292,-2.0292,-2.0292,-2.0292,-2.0292,-2.0292,-2.0292,-2.0292,-2.0292,-2.0292,-2.0292,-2.0292,-2.0292,-2.0292,-2.0292,-2.0292,-2.0292,-2.0292,-2.0292,-2.0292,-2.0292,-2.0292,-2.0292,-2.0292,-2.0292,-2.0292,-2.0292,-2.0292,-2.0292,-2.0292,-2.0292,-2.0292,-2.0292,-2.0292,-2.0292,-2.0292,-2.0292,-2.0292,-2.0292,-2.0292,-2.0292,-2.0292,-1.6765,-1.7036,-1.7244,-1.5473,-1.5359,-1.5238,-1.3441,-1.3314,-1.3362,-1.2587,-1.2438,-1.2434,-1.2404,-1.2131,0.0,0.0,0.0,0.0,0.0,-1.155,-1.1498,-1.1867,-1.3384,-1.4523,-1.479,-1.423,-1.4097,-1.4696,-1.3687,-1.3673,-1.5137,-1.5206,-1.5429,-1.5805,-1.6146,-1.6513,-1.6935,-1.7304,-1.7672,-1.8,-1.8,-1.8,-1.8,-1.8,-1.8,-1.8,-1.8,-1.8,-1.8,-1.8,-1.8,-1.8,-1.8,-1.8502,-1.9213,-1.9213,-1.9694,-2.0382,-2.0382,-2.0382,-2.0382,-2.0382,-2.0337,-2.0337,-2.0337,-2.0337,-2.0292,-2.0292,-2.0292,-2.0292,-2.0292,-2.0292,-2.0292,-2.0292,-2.0292,-2.0292,-2.0292,-2.0292,-2.0292,-2.0292,-2.0292,-2.0292,-2.0292,-2.0292,-2.0292,-2.0292,-2.0292,-2.0292,-2.0292,-2.0292,-2.0292,-2.0292,-2.0292,-2.0292,-2.0292,-2.0292,-2.0292,-2.0292,-2.0292,-2.0292,-2.0292,-2.0292,-2.0292,-2.0292,-2.0292,-2.0292,-2.0292,-2.0292,-2.0292,-2.0292,-2.0292,-2.0292,-1.7368,-1.7616,-1.7646,-1.6262,-1.5966,-1.5542,-1.3861,-1.3318,-1.2987,-1.2237,-1.2089,-1.2091,-1.2083,-1.198,0.0,0.0,0.0,0.0,0.0,-1.0542,-1.0403,-1.1003,-1.2251,-1.3016,-1.2837,-1.3293,-1.3591,-1.3575,-1.3417,-1.3665,-1.4435,-1.4949,-1.5274,-1.5411,-1.5975,-1.6488,-1.6918,-1.7287,-1.7655,-1.8,-1.8,-1.8,-1.8,-1.8,-1.8,-1.8,-1.8,-1.8,-1.8,-1.8,-1.8,-1.8,-1.8,-1.8502,-1.9213,-1.9213,-1.965,-2.0292,-2.0292,-2.0292,-2.0292,-2.0292,-2.0292,-2.0292,-2.0292,-2.0292,-2.0292,-2.0292,-2.0292,-2.0292,-2.0292,-2.0292,-2.0292,-2.0292,-2.0292,-2.0292,-2.0292,-2.0292,-2.0292,-2.0292,-2.0292,-2.0292,-2.0292,-2.0292,-2.0292,-2.0292,-2.0292,-2.0292,-2.0292,-2.0292,-2.0292,-2.0292,-2.0292,-2.0292,-2.0292,-2.0292,-2.0292,-2.0292,-2.0292,-2.0292,-2.0292,-2.0292,-2.0292,-2.0292,-2.0292,-2.0292,-2.0292,-2.0292,-2.0292,-2.0292,-2.0292,-2.0292,-1.7729,-1.7861,-1.7849,-1.6705,-1.634,-1.5871,-1.4413,-1.3966,-1.3622,-1.2863,-1.263,-1.2611,-1.2851,-1.2572,0.0,0.0,0.0,0.0,0.0,-1.008,-0.9952,-1.0439,-1.1387,-1.2055,-1.2199,-1.2406,-1.2697,-1.3134,-1.2886,-1.3117,-1.405,-1.4684,-1.5086,-1.5206,-1.5778,-1.6359,-1.6872,-1.7158,-1.7526,-1.8,-1.8,-1.8,-1.8,-1.8,-1.8,-1.8,-1.8,-1.8,-1.8,-1.8,-1.8,-1.8,-1.8,-1.8502,-1.9213,-1.9213,-1.965,-2.0292,-2.0292,-2.0292,-2.0292,-2.0292,-2.0292,-2.0292,-2.0292,-2.0292,-2.0292,-2.0292,-2.0292,-2.0292,-2.0292,-2.0292,-2.0292,-2.0292,-2.0292,-2.0292,-2.0292,-2.0292,-2.0292,-2.0292,-2.0292,-2.0292,-2.0292,-2.0292,-2.0292,-2.0292,-2.0292,-2.0292,-2.0292,-2.0292,-2.0292,-2.0292,-2.0292,-2.0292,-2.0292,-2.0292,-2.0292,-2.0292,-2.0292,-2.0292,-2.0292,-2.0429,-2.0497,-2.0497,-2.0626,-2.0626,-2.0497,-2.0497,-2.0429,-2.0292,-2.0292,-2.0292]},{"header":{"parameterUnit":"m.s-1","parameterCategory":1,"la1":30.6,"la2":29.2853,"lo1":-89.7004,"lo2":-87.6739,"dy":0.0162,"dx":0.0183,"nx":112,"ny":82,"refTime":"2026-03-10T00:00:00:Z","depth":0,"parameterNumber":3,"parameterNumberName":"V-component_of_WINDS"},"data":[0.0,0.0,0.0,0.0,0.0,0.0,0.0,0.0,0.0,0.0,0.0,0.0,0.0,0.0,0.0,0.0,0.0,0.0,0.0,0.0,0.0,0.0,0.0,0.0,0.0,0.0,0.0,0.0,0.0,0.0,0.0,0.0,0.0,0.0,0.0,0.0,0.0,0.0,0.0,0.0,0.0,0.0,0.0,0.0,0.0,0.0,0.0,0.0,0.0,0.0,0.0,0.0,0.0,0.0,0.0,0.0,0.0,0.0,0.0,0.0,0.0,0.0,0.0,0.0,0.0,0.0,0.0,0.0,0.0,0.0,0.0,0.0,0.0,0.0,0.0,0.0,0.0,0.0,0.0,0.0,0.0,0.0,0.0,0.0,0.0,0.0,0.0,0.0,0.0,0.0,1.0162,1.0777,1.1738,1.2804,1.3994,1.3444,1.2638,1.1681,0.0,0.0,0.0,0.0,0.0,0.0,0.0,0.0,0.0,0.0,0.0,0.0,0.0,0.0,0.0,0.0,0.0,0.0,0.0,0.0,0.0,0.0,0.0,0.0,0.0,0.0,0.0,0.0,0.0,0.0,0.0,0.0,0.0,0.0,0.0,0.0,0.0,0.0,0.0,0.0,0.0,0.0,0.0,0.0,0.0,0.0,0.0,0.0,0.0,0.0,0.0,0.0,0.0,0.0,0.0,0.0,0.0,0.0,0.0,0.0,0.0,0.0,0.0,0.0,0.0,0.0,0.0,0.0,0.0,0.0,0.0,0.0,0.0,0.0,0.0,0.0,0.0,0.0,0.0,0.0,0.0,0.0,0.0,0.0,0.0,0.0,0.0,0.0,0.0,0.0,0.0,0.0,0.0,0.0,0.0,0.0,0.0,0.0,0.0,0.0,0.0,0.0,0.0,0.0,1.0887,1.3045,1.3585,1.3969,1.4456,1.3732,1.2956,1.2228,0.0,0.0,0.0,0.0,0.0,0.0,0.0,0.0,0.0,0.0,0.0,0.0,0.0,0.0,0.0,0.0,0.0,0.0,0.0,0.0,0.0,0.0,0.0,0.0,0.0,0.0,0.0,0.0,0.0,0.0,0.0,0.0,0.0,0.0,0.0,0.0,0.0,0.0,0.0,0.0,0.0,0.0,0.0,0.0,0.0,0.0,0.0,0.0,0.0,0.0,0.0,0.0,0.0,0.0,0.0,0.0,0.0,0.0,0.0,0.0,0.0,0.0,0.0,0.0,0.0,0.0,0.0,0.0,0.0,0.0,0.0,0.0,0.0,0.0,0.0,0.0,0.0,0.0,0.0,0.0,0.0,0.0,0.0,0.0,0.0,0.0,0.0,0.0,0.0,0.0,0.0,0.0,0.0,0.0,0.0,0.0,0.0,0.0,0.0,0.0,0.0,0.0,0.0,1.0704,1.2004,1.394,1.4209,1.4421,1.4889,1.403,1.3168,1.2507,1.0498,0.0,0.0,0.0,0.0,0.0,0.0,0.0,0.0,0.0,0.0,0.0,0.0,0.0,0.0,0.0,0.0,0.0,0.0,0.0,0.0,0.0,0.0,0.0,0.0,0.0,0.0,0.0,0.0,0.0,0.0,0.0,0.0,0.0,0.0,0.0,0.0,0.0,0.0,0.0,0.0,0.0,0.0,0.0,0.0,0.0,0.0,0.0,0.0,0.0,0.0,0.0,0.0,0.0,0.0,0.0,0.0,0.0,0.0,0.0,0.0,0.0,0.0,0.0,0.0,0.0,0.0,0.0,0.0,0.0,0.0,0.0,0.0,0.0,0.0,0.0,0.0,0.0,0.0,0.0,0.0,0.0,0.0,0.0,0.0,0.0,0.0,0.0,0.0,0.0,0.0,0.0,0.0,0.0,0.0,0.0,0.0,0.0,0.0,0.0,0.0,0.0,0.0,1.2264,1.3035,1.4252,1.4433,1.468,1.5287,1.4318,1.3429,1.2899,1.0725,0.0,0.0,0.0,0.0,0.0,0.0,0.0,0.0,0.0,0.0,0.0,0.0,0.0,0.0,0.0,0.0,0.0,0.0,0.0,0.0,0.0,0.0,0.0,0.0,0.0,0.0,0.0,0.0,0.0,0.0,0.0,0.0,0.0,0.0,0.0,0.0,0.0,0.0,0.0,0.0,0.0,0.0,0.0,0.0,0.0,0.0,0.0,0.0,0.0,0.0,0.0,0.0,0.0,0.0,0.0,0.0,0.0,0.0,0.0,0.0,0.0,0.0,0.0,0.0,0.0,0.0,0.0,0.0,0.0,0.0,0.0,0.0,0.0,0.0,0.0,0.0,0.0,0.0,0.0,0.0,0.0,0.0,0.0,0.0,0.0,0.0,0.0,0.0,0.0,0.0,0.0,0.0,0.0,0.0,0.0,0.0,0.0,0.0,0.0,0.0,0.0,0.0,1.2743,1.3582,1.4319,1.4497,1.49,1.5691,1.4612,1.38,1.3627,1.1136,0.0,0.0,0.0,0.0,0.0,0.0,0.0,0.0,0.0,0.0,0.0,0.0,0.0,0.0,0.0,0.0,0.0,0.0,0.0,0.0,0.0,0.0,0.0,0.0,0.0,0.0,0.0,0.0,0.0,0.0,0.0,0.0,0.0,0.0,0.0,0.0,0.0,0.0,0.0,0.0,0.0,0.0,0.0,0.0,0.0,0.0,0.0,0.0,0.0,0.0,0.0,0.0,0.0,0.0,0.0,0.0,0.0,0.0,0.0,0.0,0.0,0.0,0.0,0.0,0.0,0.0,0.0,0.0,0.0,0.0,0.0,0.0,0.0,0.0,0.0,0.0,0.0,0.0,0.0,0.0,0.0,0.0,0.0,0.0,0.0,0.0,0.0,0.0,0.0,0.0,0.0,0.0,0.0,0.0,0.0,0.0,0.0,0.0,0.0,0.0,0.0,0.0,1.3486,1.4584,1.5669,1.5807,1.6026,1.6446,1.5581,1.48,1.4237,0.0,0.0,0.0,0.0,0.0,0.0,0.0,0.0,0.0,0.0,0.0,0.0,0.0,0.0,0.0,0.0,0.0,0.0,0.0,0.0,0.0,0.0,0.0,0.0,0.0,0.0,0.0,0.0,0.0,0.0,0.0,0.0,0.0,0.0,0.0,0.0,0.0,0.0,0.0,0.0,0.0,0.0,0.0,0.0,0.0,0.0,0.0,0.0,0.0,0.0,0.0,0.0,0.0,0.0,0.0,0.0,0.0,0.0,0.0,0.0,0.0,0.0,0.0,0.0,0.0,0.0,0.0,0.0,0.0,0.0,0.0,0.0,0.0,0.0,0.0,0.0,0.0,0.0,0.0,0.0,0.0,0.0,0.0,0.0,0.0,0.0,0.0,0.0,0.0,0.0,0.0,0.0,0.0,0.0,0.0,0.0,0.0,0.0,0.0,0.0,0.0,0.0,1.3055,1.4232,1.533,1.6562,1.6715,1.6798,1.702,1.6239,1.5371,1.4457,0.0,0.0,0.0,0.0,0.0,0.0,0.0,0.0,0.0,0.0,0.0,0.0,0.0,0.0,0.0,0.0,0.0,0.0,0.0,0.0,0.0,0.0,0.0,0.0,0.0,0.0,0.0,0.0,0.0,0.0,0.0,0.0,0.0,0.0,0.0,0.0,0.0,0.0,0.0,0.0,0.0,0.0,0.0,0.0,0.0,0.0,0.0,0.0,0.0,0.0,0.0,0.0,0.0,0.0,0.0,0.0,0.0,0.0,0.0,0.0,0.0,0.0,0.0,0.0,0.0,0.0,0.0,0.0,0.0,0.0,0.0,0.0,0.0,0.0,0.0,0.0,0.0,0.0,0.0,0.0,0.0,0.0,0.0,0.0,0.0,0.0,0.0,0.0,0.0,0.0,0.0,0.0,0.0,0.0,0.0,0.0,0.0,0.0,0.0,0.0,0.0,0.0,1.3799,1.4885,1.5809,1.6814,1.6932,1.7039,1.7288,1.6449,1.542,0.0,0.0,0.0,0.0,0.0,0.0,0.0,0.0,0.0,0.0,0.0,0.0,0.0,0.0,0.0,0.0,0.0,0.0,0.0,0.0,0.0,0.0,0.0,0.0,0.0,0.0,0.0,0.0,0.0,0.0,0.0,0.0,0.0,0.0,0.0,0.0,0.0,0.0,0.0,0.0,0.0,0.0,0.0,0.0,0.0,0.0,0.0,0.0,0.0,0.0,0.0,0.0,0.0,0.0,0.0,0.0,0.0,0.0,0.0,0.0,0.0,0.0,0.0,0.0,0.0,0.0,0.0,0.0,0.0,0.0,0.0,0.0,0.0,0.0,0.0,0.0,0.0,0.0,0.0,0.0,0.0,0.0,0.0,0.0,0.0,0.0,0.0,0.0,0.0,0.0,0.0,0.0,0.0,0.0,0.0,0.0,0.0,0.0,0.0,0.0,0.0,0.0,0.0,1.4129,1.5916,1.7384,1.8352,1.8442,1.8338,1.809,1.7531,1.6474,1.4879,0.0,0.0,0.0,0.0,0.0,0.0,0.0,0.0,0.0,0.0,0.0,0.0,0.0,0.0,0.0,0.0,0.0,0.0,0.0,0.0,0.0,0.0,0.0,0.0,0.0,0.0,0.0,0.0,0.0,0.0,0.0,0.0,0.0,0.0,0.0,0.0,0.0,0.0,0.0,0.0,0.0,0.0,0.0,0.0,0.0,0.0,0.0,0.0,0.0,0.0,0.0,0.0,0.0,0.0,0.0,0.0,0.0,0.0,0.0,0.0,0.0,0.0,0.0,0.0,0.0,0.0,0.0,0.0,0.0,0.0,0.0,0.0,0.0,0.0,0.0,0.0,0.0,0.0,0.0,0.0,0.0,0.0,0.0,0.0,0.0,0.0,0.0,0.0,0.0,0.0,0.0,0.0,0.0,0.0,0.0,0.0,0.0,0.0,0.0,0.0,0.0,0.0,1.4576,1.6516,1.805,1.9005,1.9108,1.8839,1.8175,1.7854,1.6841,1.4852,0.0,0.0,0.0,0.0,0.0,0.0,0.0,0.0,0.0,0.0,0.0,0.0,0.0,0.0,0.0,0.0,0.0,0.0,0.0,0.0,0.0,0.0,0.0,0.0,0.0,0.0,0.0,0.0,0.0,0.0,0.0,0.0,0.0,0.0,0.0,0.0,0.0,0.0,0.0,0.0,0.0,0.0,0.0,0.0,0.0,0.0,0.0,0.0,0.0,0.0,0.0,0.0,0.0,0.0,0.0,0.0,0.0,0.0,0.0,0.0,0.0,0.0,0.0,0.0,0.0,0.0,0.0,0.0,0.0,0.0,0.0,0.0,0.0,0.0,0.0,0.0,0.0,0.0,0.0,0.0,0.0,0.0,0.0,0.0,0.0,0.0,0.0,0.0,0.0,0.0,0.0,0.0,0.0,0.0,0.0,0.0,0.0,0.0,0.0,0.0,0.0,0.0,1.4969,1.6732,1.8166,1.9104,1.9198,1.88,1.7864,1.7729,1.6767,1.4587,0.0,0.0,0.0,0.0,0.0,0.0,0.0,0.0,0.0,0.0,0.0,0.0,0.0,0.0,0.0,0.0,0.0,0.0,0.0,0.0,0.0,0.0,0.0,0.0,0.0,0.0,0.0,0.0,0.0,0.0,0.0,0.0,0.0,0.0,0.0,0.0,0.0,0.0,0.0,0.0,0.0,0.0,0.0,0.0,0.0,0.0,0.0,0.0,0.0,0.0,0.0,0.0,0.0,0.0,0.0,0.0,0.0,0.0,0.0,0.0,1.4049,1.3728,0.0,0.0,0.0,0.0,0.0,0.0,0.0,0.0,0.0,0.0,0.0,0.0,0.0,0.0,0.0,0.0,0.0,0.0,0.0,0.0,0.0,0.0,0.0,0.0,0.0,0.0,0.0,0.0,0.0,0.0,0.0,0.0,0.0,0.0,0.0,0.0,0.0,0.0,0.0,0.0,1.4617,1.6969,1.8841,1.9803,1.9879,1.9522,1.859,1.7986,1.7078,1.5639,1.3755,0.0,0.0,0.0,0.0,0.0,0.0,0.0,0.0,0.0,0.0,0.0,0.0,0.0,0.0,0.0,0.0,0.0,0.0,0.0,0.0,0.0,0.0,0.0,0.0,0.0,0.0,0.0,0.0,0.0,0.0,0.0,0.0,0.0,0.0,0.0,0.0,0.0,0.0,0.0,0.0,0.0,0.0,0.0,0.0,0.0,0.0,0.0,0.0,0.0,0.0,0.0,0.0,0.0,0.0,0.0,0.0,0.0,0.0,0.0,1.6583,1.5705,0.0,0.0,0.0,0.0,0.0,0.0,0.0,0.0,0.0,0.0,0.0,0.0,0.0,0.0,0.0,0.0,0.0,0.0,0.0,0.0,0.0,0.0,0.0,0.0,0.0,0.0,0.0,0.0,0.0,0.0,0.0,0.0,0.0,0.0,0.0,0.0,0.0,0.0,0.0,0.0,1.5279,1.7423,1.9127,2.0091,1.9959,1.9633,1.9168,1.8566,1.7761,1.6699,1.5205,0.0,0.0,0.0,0.0,0.0,0.0,0.0,0.0,0.0,0.0,0.0,0.0,0.0,0.0,0.0,0.0,0.0,0.0,0.0,0.0,0.0,0.0,0.0,0.0,0.0,0.0,0.0,0.0,0.0,0.0,0.0,0.0,0.0,0.0,0.0,0.0,0.0,0.0,0.0,0.0,0.0,0.0,0.0,0.0,0.0,0.0,0.0,0.0,0.0,0.0,0.0,0.0,0.0,2.0724,2.1388,2.2123,2.1623,2.1949,2.2701,1.9617,1.8318,1.8386,1.7701,0.0,0.0,0.0,0.0,0.0,0.0,0.0,0.0,0.0,0.0,0.0,0.0,0.0,0.0,0.0,0.0,0.0,0.0,0.0,0.0,0.0,0.0,1.7876,1.7476,1.802,1.7931,1.5385,0.0,0.0,0.0,0.0,0.0,0.0,0.0,0.0,0.0,0.0,0.0,1.6316,1.7966,1.9333,2.0238,1.9932,1.9673,1.9639,1.9132,1.8488,1.774,1.6816,1.5739,0.0,0.0,0.0,0.0,0.0,0.0,0.0,0.0,0.0,0.0,0.0,0.0,0.0,0.0,0.0,0.0,0.0,0.0,0.0,0.0,0.0,0.0,0.0,0.0,0.0,0.0,0.0,0.0,0.0,0.0,0.0,0.0,1.5229,1.4949,0.0,0.0,0.0,0.0,0.0,0.0,0.0,0.0,0.0,0.0,0.0,0.0,0.0,1.9488,2.1377,2.2508,2.3422,2.4071,2.4628,2.4925,2.5016,2.4494,2.4576,2.5123,2.4172,0.0,2.1546,2.0028,0.0,0.0,0.0,0.0,0.0,0.0,0.0,0.0,0.0,0.0,0.0,0.0,0.0,0.0,0.0,0.0,0.0,0.0,0.0,0.0,0.0,0.0,2.0365,2.0767,2.0941,2.0813,1.9957,1.7396,1.511,1.4614,1.3854,1.3214,0.0,0.0,0.0,0.0,0.0,0.0,1.6928,1.863,1.9869,2.042,2.042,2.0211,1.9813,1.9191,1.8816,1.8782,1.7744,1.6955,1.6509,1.4739,0.0,0.0,0.0,0.0,0.0,0.0,0.0,0.0,0.0,0.0,0.0,0.0,0.0,0.0,0.0,0.0,0.0,0.0,0.0,0.0,0.0,0.0,0.0,0.0,0.0,0.0,0.0,0.0,0.0,1.6396,1.692,1.6442,1.6901,1.6645,0.0,0.0,0.0,0.0,0.0,0.0,0.0,0.0,0.0,2.135,2.1691,2.2558,2.4103,2.4945,2.5661,2.6206,2.6749,2.7005,2.7005,2.6766,2.6791,2.6992,2.6766,2.6076,2.4958,2.2975,2.133,1.9999,0.0,0.0,0.0,0.0,1.8705,1.8982,1.9221,1.951,1.9584,1.8668,0.0,0.0,0.0,0.0,0.0,0.0,0.0,1.8455,1.9095,2.0201,2.1219,2.143,2.1493,2.1458,2.1207,1.9961,1.8472,1.7053,1.6448,1.5731,1.4464,1.403,0.0,0.0,0.0,1.6611,1.8064,1.9169,2.0015,2.0542,2.032,2.016,2.0301,1.9736,1.939,1.9434,1.8992,1.8511,1.8089,1.6918,1.5405,0.0,0.0,0.0,0.0,0.0,0.0,0.0,0.0,0.0,0.0,0.0,0.0,0.0,0.0,0.0,0.0,0.0,0.0,0.0,0.0,0.0,0.0,0.0,0.0,0.0,0.0,0.0,0.0,1.7953,1.8518,1.7712,1.8706,1.8734,0.0,0.0,0.0,0.0,0.0,0.0,2.1846,2.3056,2.3871,2.4165,2.4557,2.5299,2.644,2.6879,2.7404,2.7921,2.8335,2.8536,2.8536,2.8536,2.8536,2.8524,2.8386,2.8084,2.7532,2.5322,2.3502,2.2096,2.1807,2.1091,2.03,2.0905,2.1343,2.1719,2.1857,2.2184,2.2293,2.1066,2.0174,1.9484,1.8681,0.0,0.0,0.0,0.0,2.0067,2.0907,2.1542,2.1916,2.1898,2.1907,2.1907,2.1907,2.1794,2.1179,1.9397,1.8807,1.8091,1.6443,1.6153,0.0,1.6509,1.7149,1.799,1.9058,1.956,1.9962,2.0427,2.0062,1.9974,2.0427,2.0049,1.9798,1.9798,1.9798,1.9623,1.9221,1.8682,1.7501,1.5575,0.0,0.0,0.0,0.0,0.0,0.0,0.0,0.0,0.0,0.0,0.0,0.0,0.0,0.0,0.0,0.0,0.0,0.0,0.0,0.0,0.0,0.0,0.0,0.0,0.0,0.0,0.0,0.0,0.0,1.8355,2.0939,0.0,0.0,0.0,0.0,2.2827,2.3421,2.4224,2.5302,2.5427,2.5966,2.7045,2.7107,2.7634,2.8712,2.875,2.9101,2.9666,2.9691,2.9704,2.9704,2.9704,2.9704,2.9679,2.9126,2.8838,2.8637,2.644,2.487,2.3766,2.2686,2.192,2.1468,2.202,2.2246,2.2347,2.2844,2.3045,2.3045,2.2957,2.2246,2.1355,2.1292,2.093,0.0,0.0,2.138,2.2245,2.231,2.2715,2.3106,2.3031,2.302,2.302,2.302,2.2606,2.2083,2.1443,2.0464,1.9685,1.9572,0.0,1.7652,1.8682,1.8455,1.8555,1.9623,1.9786,1.9811,1.9849,1.9823,1.9811,1.9849,1.9823,1.9798,1.9798,1.9798,1.9798,1.9761,1.9233,1.8418,1.731,1.513,0.0,0.0,0.0,0.0,0.0,0.0,0.0,0.0,0.0,0.0,0.0,0.0,0.0,0.0,0.0,0.0,0.0,0.0,0.0,0.0,0.0,0.0,0.0,0.0,0.0,0.0,0.0,0.0,2.1465,2.3321,0.0,2.2385,2.3113,2.3979,2.4669,2.5259,2.6097,2.7155,2.7896,2.8649,2.9402,2.9754,3.0118,3.0507,3.052,3.062,3.0821,3.0482,3.0319,3.0306,2.9955,2.9792,2.9779,2.9578,2.9478,2.9402,2.8222,2.7092,2.6038,2.5317,2.4664,2.4117,2.3979,2.4142,2.4406,2.4236,2.4716,2.5371,2.5071,2.4718,2.4334,2.399,2.3764,2.3686,2.4012,2.4418,2.4808,2.5199,2.5114,2.4934,2.4914,2.4601,2.4323,2.4323,2.3861,2.3418,2.3212,2.1952,2.0652,1.9924,1.9661,1.9409,1.9045,1.9121,1.9371,1.9748,1.9798,1.9798,1.9798,1.9798,1.9798,1.9798,1.9798,1.9798,1.9798,1.9798,1.966,1.9296,1.9096,1.8505,1.7423,1.5943,1.4166,0.0,0.0,0.0,0.0,0.0,0.0,0.0,0.0,0.0,0.0,0.0,0.0,0.0,0.0,0.0,0.0,0.0,0.0,0.0,0.0,0.0,0.0,0.0,0.0,0.0,2.3331,2.4619,2.401,2.5762,2.6515,2.5234,2.5624,2.6327,2.7218,2.7645,2.826,2.9164,2.993,3.0495,3.0871,3.121,3.1386,3.1386,3.1386,3.1386,3.1386,3.1035,3.0783,3.0608,3.0231,2.9967,2.9792,2.9792,2.9792,2.9767,2.9377,2.8787,2.8059,2.7341,2.6813,2.6377,2.585,2.5875,2.6122,2.58,2.6136,2.6683,2.6597,2.6456,2.6224,2.5886,2.5763,2.5873,2.6459,2.6613,2.6694,2.7108,2.672,2.6152,2.5949,2.5442,2.5007,2.5007,2.4681,2.4408,2.4408,2.2977,2.1468,2.0526,2.0686,2.0612,1.9711,1.9851,2.0143,2.0352,2.0037,1.9874,2.0075,1.9911,1.9798,1.9798,1.9798,1.9798,1.9798,1.9635,1.9359,1.902,1.882,1.8317,1.7423,1.6145,1.4707,1.311,0.0,0.0,0.0,0.0,0.0,0.0,0.0,0.0,0.0,0.0,0.0,0.0,0.0,0.0,0.0,0.0,0.0,0.0,0.0,0.0,0.0,0.0,0.0,2.2551,2.484,2.6373,2.5812,2.8172,2.9202,2.7605,2.8888,3.0068,3.0608,3.0633,3.0871,3.1386,3.1411,3.1424,3.1436,3.1436,3.1436,3.1436,3.1436,3.1436,3.1436,3.1465,3.1175,3.0673,3.066,3.0385,2.9869,2.9869,2.9869,2.9869,2.9869,2.9869,2.9756,2.8598,2.8171,2.8096,2.7578,2.74,2.7404,2.7525,2.7249,2.6905,2.7575,2.7455,2.7018,2.7018,2.7018,2.7124,2.7717,2.7907,2.7907,2.7907,2.7384,2.6736,2.6135,2.5527,2.509,2.5077,2.5035,2.5021,2.5021,2.3602,2.2216,2.1662,2.1529,2.1315,2.0851,2.0733,0.0,2.1456,2.0555,2.0089,2.063,2.0163,1.9824,1.9824,1.9824,1.9824,1.985,1.9334,1.9045,1.9045,1.8517,1.7987,1.7456,1.5825,1.4821,1.4529,0.0,0.0,0.0,0.0,0.0,0.0,0.0,0.0,0.0,0.0,0.0,0.0,0.0,0.0,0.0,0.0,0.0,0.0,0.0,0.0,0.0,2.5263,2.6988,2.618,2.7341,2.8499,2.9164,3.0244,3.0771,3.0306,3.0683,3.1009,3.1173,3.1173,3.1411,3.1951,3.1989,3.2177,3.2646,3.2616,3.2616,3.2616,3.2616,3.2616,3.2646,3.2829,3.2612,3.2056,3.2237,3.2024,3.1479,3.1479,3.1479,3.1479,3.1479,3.1479,3.1325,3.0051,2.9559,2.9567,2.957,2.9285,2.8899,2.8995,2.8933,2.8907,2.957,2.9713,2.9584,2.9584,2.9584,2.9614,2.9778,2.9838,2.9838,2.9838,2.9333,2.867,2.8068,2.7426,2.6841,2.6399,2.5961,2.566,2.566,2.4885,2.407,2.3497,2.3366,2.3192,2.267,2.2561,2.2439,2.2112,2.1805,2.1361,2.0706,2.0474,2.0384,2.0384,2.0384,2.056,2.093,2.0375,2.008,2.0231,1.959,1.899,1.8505,1.7176,1.6096,0.0,0.0,0.0,0.0,0.0,0.0,0.0,0.0,0.0,0.0,0.0,0.0,0.0,0.0,0.0,0.0,0.0,0.0,0.0,0.0,0.0,0.0,2.8605,3.0339,3.0601,3.0577,3.0971,3.2214,3.2555,3.2808,3.3149,3.3177,3.3177,3.3177,3.3177,3.3279,3.3617,3.363,3.3799,3.4137,3.415,3.4008,3.3654,3.3966,3.3966,3.3654,3.4142,3.41,3.3515,3.343,3.3061,3.2477,3.2218,3.211,3.211,3.211,3.211,3.201,0.0,0.0,0.0,0.0,3.0249,2.9539,2.9875,2.9802,2.9716,3.0387,3.0598,3.0598,3.0598,3.0598,3.0598,3.0598,3.0598,3.0598,3.0598,3.0103,2.9436,2.8826,2.8187,2.7521,2.6924,2.6527,2.6286,2.6286,2.5988,0.0,2.528,2.4787,2.4242,2.3714,2.3638,2.3592,2.3442,2.2777,2.2148,2.1713,2.1236,2.0944,2.0944,2.0944,0.0,0.0,0.0,2.0415,2.0279,1.9915,0.0,0.0,0.0,0.0,0.0,0.0,0.0,0.0,1.5381,1.5044,0.0,0.0,0.0,0.0,0.0,0.0,0.0,0.0,0.0,0.0,0.0,0.0,0.0,0.0,0.0,0.0,3.1971,3.3353,3.5037,3.4052,3.3594,3.4774,3.4699,3.4814,3.5548,3.5615,3.5615,3.5615,3.5615,3.5615,3.5615,3.5615,0.0,0.0,0.0,3.5278,3.4551,3.5237,3.5237,3.4551,3.5359,3.5475,3.4915,3.4418,3.3854,3.3238,3.2622,3.2376,3.2376,3.2376,3.2376,3.234,3.2254,3.2268,3.2294,3.174,3.087,3.0003,3.0451,0.0,0.0,3.0446,3.0598,3.0598,3.0598,3.0598,3.0598,3.0598,3.0598,3.0598,3.0598,3.0161,2.9552,2.884,2.8245,2.7623,2.6939,2.6806,2.6806,2.6806,2.6806,2.6806,2.6806,2.5854,2.4957,2.4476,2.4391,2.4561,2.5039,2.3682,2.2848,2.3263,2.2281,0.0,2.1598,2.153,2.1513,2.1575,2.1142,2.0603,2.0015,2.0166,2.0354,2.0606,2.0414,2.0628,2.1243,2.0953,2.1044,2.1454,1.7551,1.689,0.0,0.0,0.0,0.0,0.0,0.0,0.0,0.0,0.0,0.0,0.0,0.0,0.0,0.0,0.0,3.198,3.4071,3.5841,3.675,3.6429,3.5937,3.5518,3.5399,3.5427,3.5574,3.5615,3.5615,3.5615,3.5615,3.5615,3.5615,3.5615,3.5615,3.5615,3.5615,3.5548,3.5386,3.5534,3.5534,3.5386,3.6241,0.0,3.5753,3.5835,3.5511,3.4915,3.4249,3.3942,3.3942,3.3942,3.3942,3.3894,3.3227,3.3381,3.3891,3.3307,3.292,3.2594,3.1654,3.1238,3.105,3.0712,3.0598,3.0598,3.0598,3.0598,0.0,3.0598,3.0598,3.0598,3.0598,3.051,3.0133,2.8985,2.8607,2.8173,2.7053,2.6806,2.6806,2.6806,2.6806,2.6806,2.6806,2.6599,2.6407,2.6287,2.6265,2.6104,2.5713,2.5354,2.4815,2.4002,2.3227,2.2756,2.2756,2.2347,2.2217,2.2601,2.2614,2.2358,2.1729,2.2206,2.2309,2.1935,2.1829,2.1666,2.144,2.1385,2.1732,2.2402,2.0931,2.0489,0.0,0.0,0.0,0.0,0.0,0.0,0.0,0.0,0.0,0.0,0.0,2.8709,3.0306,0.0,3.3365,3.4704,3.5981,3.7027,3.7665,3.7624,3.74,3.6947,3.6517,3.6439,3.6869,3.6908,3.6908,3.6908,3.6908,3.6908,3.6908,3.6908,3.6908,3.6908,3.6908,3.6674,3.6241,3.6674,3.6674,3.6281,3.7116,3.7396,3.7068,3.6555,3.6141,3.5778,3.482,3.4414,3.4414,3.4414,3.4414,3.4346,3.3962,3.4045,3.437,3.4051,3.3779,3.3358,3.2353,3.177,3.1409,3.0816,3.0598,3.0598,3.0598,3.0598,3.0598,3.0598,3.0598,3.0598,3.0598,3.0598,3.0365,2.9377,2.8913,2.8447,2.7461,2.7012,2.6806,2.6806,2.6806,2.6806,2.6806,2.6806,2.6806,2.6806,2.6806,2.6689,2.6355,2.6021,2.5586,2.5002,2.4079,2.3498,2.3498,2.2926,2.2684,2.2992,2.2992,2.2892,2.2652,2.2944,2.2944,2.2622,2.2695,2.2613,2.2289,2.2359,2.2607,2.2997,2.2592,2.245,0.0,0.0,0.0,0.0,0.0,0.0,0.0,2.5952,2.6796,2.929,3.0728,3.2007,3.3576,3.4457,3.5488,3.7056,3.7404,3.7651,3.813,3.8202,3.8202,3.8202,3.7567,3.7453,3.8127,3.8202,3.8202,3.8202,3.8202,3.8202,3.8202,3.8202,3.8202,3.8202,3.8202,3.7848,3.7169,3.7848,3.7848,3.7169,3.7848,3.8202,3.8159,3.6881,3.6301,3.6243,3.4965,3.4414,3.4414,3.4414,3.4414,3.4414,3.4414,3.4414,3.4414,3.4414,3.4095,3.359,3.2919,3.2353,3.1772,3.1003,3.0786,3.0757,3.0641,3.0598,3.0598,3.0598,3.0598,3.0598,3.0598,3.0598,3.0438,2.9755,2.9145,2.8534,2.784,2.7229,2.6806,2.6806,2.6806,2.6806,2.6806,2.6806,2.6806,2.6806,2.6806,2.6806,2.6806,2.6341,2.6006,2.6006,2.495,2.4152,2.3905,2.3389,2.3064,2.306,2.297,2.2955,2.3127,2.3082,2.3037,2.2978,2.3187,2.3246,2.3149,2.3275,2.3363,2.3363,2.3363,2.3414,2.7623,2.6736,2.6315,2.6195,2.662,2.7985,0.0,3.1555,3.1306,3.3354,3.4341,3.4927,3.5145,3.6156,3.7056,3.7273,3.7752,3.813,3.8188,3.8202,3.8202,3.8202,3.8127,3.8089,3.8202,3.8202,3.8202,3.8202,3.8202,3.8202,3.8202,3.8202,3.8202,3.8202,3.8202,3.8165,3.8037,3.8165,3.8165,3.8037,3.8165,3.8202,3.8159,3.6881,3.6301,3.6243,3.4965,3.4414,3.4414,3.4414,3.4414,3.4414,3.4414,3.4414,3.4414,3.4414,3.437,3.4211,3.362,3.3344,3.3082,3.1816,3.1409,3.1308,3.0772,3.0598,3.0598,3.0598,3.0598,3.0598,3.0598,3.0598,3.0438,2.9755,2.9145,2.8534,2.784,2.7229,2.6806,2.6806,2.6806,2.6806,2.6806,2.6806,2.6806,2.6806,2.6806,2.6806,2.6806,2.6747,2.6704,2.6704,2.6036,2.5135,2.3992,2.3833,2.3543,2.2954,2.2925,2.3,2.3275,2.3045,2.3023,2.3253,2.3275,2.3297,2.3275,2.348,2.3573,2.3573,2.3573,2.348,2.9697,2.8913,2.8521,2.8927,2.9755,3.1032,3.3053,3.3325,3.3645,3.5198,3.604,3.6591,3.6954,3.7462,3.7825,3.7825,3.8043,3.8202,3.8202,3.7897,3.768,3.768,3.7331,3.7389,3.813,3.8202,3.8202,3.8202,3.8202,3.8202,3.8202,3.8202,3.8202,3.8202,3.8202,3.8202,3.8202,3.8202,3.8202,3.8202,3.8202,3.8028,3.7651,3.6722,3.5909,3.5169,3.4646,3.4414,3.4414,3.4414,3.4414,3.4414,3.4414,3.4414,3.4414,3.4414,3.4414,3.4312,3.3721,3.3503,3.3344,3.2396,3.1814,3.1437,3.1206,3.0872,3.0598,3.0598,3.0598,3.0598,3.0598,3.0598,3.0539,3.0248,2.9682,2.9058,2.8419,2.7781,2.7229,2.6852,2.6806,2.6806,2.6806,2.6806,2.6806,2.6806,2.6806,2.6806,2.6806,2.6806,2.6634,2.6268,2.6028,2.5369,2.4016,2.3961,2.3745,2.3059,2.2947,2.2978,2.3179,2.3082,2.3082,2.3179,2.3253,2.3297,2.3297,2.337,2.3385,2.3297,2.3385,2.3297,3.0307,3.0103,3.0306,3.0945,3.2208,3.3514,3.4375,3.4878,3.5517,3.6606,3.7085,3.7433,3.7883,3.7955,3.7955,3.7955,3.8086,3.8202,3.8202,3.768,3.7302,3.7302,3.6722,3.6664,3.7593,3.7839,3.8028,3.8188,3.8202,3.8202,3.8202,3.8202,3.8202,3.8202,3.8202,3.8202,3.8202,3.8202,3.8202,3.8202,3.8202,3.7883,3.7273,3.6431,3.5444,3.4414,3.4414,3.4414,3.4414,3.4414,3.4414,3.4414,3.4414,3.4414,3.4414,3.4414,3.4414,3.4356,3.3891,3.3765,3.363,3.2991,3.2324,3.1727,3.1553,3.1076,3.0598,3.0598,3.0598,3.0598,3.0598,3.0598,3.0598,3.0598,3.0089,2.9465,2.9029,2.8434,2.7782,2.7171,2.7041,2.6997,2.6849,2.6806,2.6806,2.6806,2.6806,2.6806,2.6806,2.6806,2.6617,2.6137,2.617,2.5719,2.4525,2.4373,2.4078,2.3411,2.3102,2.3015,2.3135,2.3082,2.3082,2.3135,2.3253,2.3319,2.3363,2.3385,2.3341,2.3246,2.3341,2.3275,2.9101,3.0074,3.1582,3.2263,3.3877,3.5639,3.6896,3.7201,3.7404,3.8014,3.7694,3.7317,3.7331,3.7331,3.7331,3.7331,3.7825,3.8202,3.8202,3.768,3.7302,3.7302,3.6722,3.633,3.6359,3.6954,3.7578,3.8159,3.8202,3.8202,3.8202,3.8202,3.8202,3.8202,3.8202,3.8202,3.8202,3.8202,3.8202,3.8202,3.8202,3.7883,3.7259,3.6017,3.5058,3.4414,3.4414,3.4414,3.4414,3.4414,3.4414,3.4414,3.4414,3.4414,3.4414,3.4414,3.4414,3.4414,3.4385,3.4385,3.4283,3.3678,3.3006,3.2367,3.1683,3.1076,3.0598,3.0598,3.0598,3.0598,3.0598,3.0598,3.0598,3.0598,3.0089,2.9581,2.9581,2.9102,2.8463,2.7797,2.7666,2.7478,2.6895,2.6806,2.6806,2.6806,2.6806,2.6806,2.6806,2.6806,2.6806,2.6777,2.6777,2.65,2.5803,2.5267,2.4712,2.4107,2.3455,2.3135,2.3297,2.3045,2.3023,2.3297,2.3297,2.3363,2.3487,2.3545,2.3588,2.3573,2.3595,2.3588,3.1105,3.2309,3.367,3.4762,3.5851,3.6867,3.7709,3.7897,3.7839,3.7651,3.7099,3.6519,3.6098,3.606,3.6156,3.6577,3.7186,3.7738,3.8144,3.768,3.7143,3.6693,3.6069,3.5712,3.5712,3.6272,3.691,3.7564,3.7607,3.7781,3.8188,3.8202,3.8202,3.8202,3.8202,3.8202,3.8202,3.8202,3.8202,3.8188,3.7346,3.6838,3.6591,3.5314,3.4617,3.4414,3.4414,3.4414,3.4414,3.4414,3.4414,3.4414,3.4414,3.4414,3.4414,3.4414,3.4414,3.4414,3.4414,3.4414,3.4385,3.4167,3.3659,3.3108,3.2922,3.2063,3.1206,3.1206,3.0901,3.0598,3.0598,3.0598,3.0598,3.0598,3.0438,3.0132,2.9697,2.9421,2.9116,2.8477,2.7985,2.7637,2.742,2.707,2.6884,2.717,2.6963,2.6806,2.6806,2.6806,2.691,2.717,2.7041,2.6854,2.6608,2.6256,2.5782,2.5146,2.4521,2.4111,2.3976,2.3548,2.3334,2.3444,2.3494,2.3523,2.3566,2.3538,2.3681,2.3985,2.3985,2.413,3.2498,3.379,3.5067,3.6344,3.7143,3.7723,3.8115,3.8028,3.7709,3.707,3.6069,3.5169,3.4796,3.4331,3.4428,3.5749,3.633,3.6983,3.8043,3.768,3.7143,3.6722,3.6098,3.5741,3.5741,3.5865,3.6344,3.7244,3.7506,3.7796,3.8188,3.8202,3.8202,3.8202,3.8202,3.8202,3.8202,3.8202,3.8086,3.7868,3.6809,3.6199,3.5938,3.4893,3.4414,3.4414,3.4414,3.4414,3.4414,3.4414,3.4414,3.4414,3.4414,3.4414,3.4414,3.4414,3.4414,3.4414,3.4414,3.4414,3.4414,3.4414,3.3978,3.346,3.3227,3.2367,3.1451,3.125,3.0887,3.0598,3.0598,3.0598,3.0598,3.0598,3.0598,3.0496,3.0045,2.9972,2.9769,2.9131,2.8821,2.8567,2.8347,2.7909,2.7587,2.7579,2.7357,2.7178,2.7178,2.7178,2.728,2.7534,2.7423,2.732,2.7312,2.7013,2.6624,2.6195,2.5675,2.5221,2.4848,2.4716,2.4457,2.4093,2.4128,2.4193,2.4215,2.4006,2.4171,2.4703,2.4703,2.4832,3.3285,3.4578,3.5842,3.7041,3.7781,3.8188,3.8159,3.768,3.7056,3.6315,3.4646,3.3329,3.3271,3.2266,3.2295,3.484,3.5363,3.6104,3.7941,3.7709,3.7346,3.7302,3.6751,3.6344,3.6301,3.5793,3.6017,3.7215,3.7796,3.813,3.8202,3.8202,3.8202,3.8202,3.8202,3.8202,3.8202,3.8173,3.7868,3.7302,3.6591,3.5938,3.5378,3.4704,3.4414,3.4414,3.4414,3.4414,3.4414,3.4414,3.4414,3.4414,3.4414,3.4414,3.4414,3.4414,3.4414,3.4414,3.4414,3.4414,3.4414,3.4414,3.4008,3.3431,3.2803,3.2118,3.1496,3.0917,3.0699,3.0656,3.0656,3.0627,3.0598,3.0598,3.0598,3.0598,3.0598,3.0598,3.0423,2.9755,2.9985,3.0116,2.9533,2.9233,2.8809,2.8075,2.7978,2.7947,2.7898,2.7898,2.7938,2.7947,2.7947,2.7947,2.7997,2.7559,2.7294,2.7317,2.6908,2.6454,2.5932,2.6428,2.6234,2.5218,2.5262,2.5342,2.5386,2.4919,2.5016,2.5683,2.5636,2.5651,3.5241,3.6519,3.7549,3.7897,3.8086,3.8086,3.7636,3.7027,3.6112,3.4549,3.269,3.1048,3.0104,3.0423,3.1351,3.2977,3.4835,3.6562,3.7999,3.8072,3.781,3.736,3.7157,3.6852,3.6359,3.662,3.6954,3.7288,3.6983,3.7201,3.8144,3.8202,3.8202,3.8202,3.8202,3.8202,3.8202,3.7752,3.7462,3.7302,3.6141,3.5552,3.5378,3.4704,3.4414,3.4414,3.4414,3.4414,3.4414,3.4414,3.4414,3.4414,3.4414,3.4414,3.4414,3.4414,3.4414,3.4414,3.4414,3.4414,3.4414,3.4414,3.4312,3.4138,3.3978,3.3485,3.2966,3.2806,3.2034,3.1279,3.1279,3.093,3.0598,3.0598,3.0598,3.0598,3.0598,3.0598,3.0554,3.0394,3.0322,3.0184,2.9905,2.974,2.957,2.9234,2.9116,2.8803,2.7997,2.807,2.8328,2.8606,2.8559,2.8717,2.9271,2.8801,2.8568,2.8812,2.8135,2.7668,2.7534,2.7186,2.6867,2.6602,2.6608,2.6608,2.6645,2.6079,2.61,2.6701,2.626,2.6308,3.6475,3.7462,3.8202,3.8202,3.7999,3.7564,3.6664,3.5735,3.4443,3.2237,3.0466,2.8942,2.7663,2.8258,2.9523,3.1366,3.3572,3.5706,3.7549,3.8028,3.8072,3.7738,3.7694,3.7549,3.7172,3.7244,3.7418,3.768,3.736,3.7462,3.8159,3.8202,3.8202,3.8202,3.8202,3.8202,3.8202,3.7607,3.7157,3.6852,3.5886,3.5261,3.4936,3.4574,3.4414,3.4414,3.4414,3.4414,3.4414,3.4414,3.4414,3.4414,3.4414,3.4414,3.4414,3.4414,3.4414,3.4414,3.4414,3.4414,3.4414,3.4414,3.4414,3.4356,3.4095,3.3779,3.3445,3.3234,3.2655,3.1982,3.1691,3.1387,3.1052,3.067,3.0598,3.0598,3.0598,3.0598,3.0717,3.1087,3.1266,3.1268,3.1218,3.1162,3.0901,3.0267,3.0128,2.9767,2.8842,2.8803,2.8958,2.9257,2.9234,2.9355,2.975,2.9409,2.9296,2.9556,2.9137,2.878,2.8691,2.863,2.8339,2.7828,2.7828,2.7828,2.779,2.7287,2.7363,2.7953,2.7391,2.731,3.7244,3.781,3.8202,3.8202,3.7752,3.6939,3.5595,3.4157,3.2385,2.9784,2.8072,2.6724,2.5618,2.6083,2.7517,3.006,3.2181,3.4404,3.6939,3.7752,3.8115,3.8188,3.8202,3.8202,3.8202,3.7738,3.7651,3.8159,3.8202,3.8202,3.8202,3.8202,3.8202,3.8202,3.8202,3.8159,3.8086,3.7476,3.6838,3.617,3.5581,3.4951,3.4414,3.4414,3.4414,3.4414,3.4414,3.4414,3.4414,3.4414,3.4414,3.4414,3.4414,3.4414,3.4414,3.4414,3.4414,3.4414,3.4414,3.4414,3.4414,3.4414,3.4414,3.4312,3.3794,3.3634,3.3551,3.3141,3.2986,3.2781,3.2182,3.1934,3.1671,3.095,3.073,3.0672,3.0672,3.0687,3.097,3.1823,3.2339,3.2696,3.2818,3.2818,3.2418,3.1348,3.1135,3.0833,3.008,2.9764,2.9671,2.9832,2.9875,2.9897,2.9897,2.97,2.9694,2.9875,2.9875,2.9772,2.954,3.0177,3.0025,2.8971,2.9014,2.9014,2.8934,2.8526,2.8624,2.9189,2.8662,2.836,3.7883,3.813,3.8202,3.8202,3.7752,3.6823,3.4994,3.2759,3.038,2.7795,2.5375,2.3679,2.3447,2.482,2.6794,2.9377,3.1859,3.4404,3.6939,3.7404,3.7651,3.8144,3.8202,3.8202,3.8202,3.8115,3.8086,3.8188,3.8202,3.8202,3.8202,3.8202,3.8202,3.8202,3.8202,3.797,3.7462,3.6809,3.6156,3.5552,3.4878,3.4516,3.4414,3.4414,3.4414,3.4414,3.4414,3.4414,3.4414,3.4414,3.4414,3.4414,3.4414,3.4414,3.4414,3.4414,3.4414,3.4414,3.4414,3.4414,3.4414,3.4414,3.4414,3.4385,3.4283,3.424,3.4225,3.4157,3.3853,3.3513,3.3396,3.2687,3.1942,3.1793,3.1382,3.1014,3.1014,3.119,3.1566,3.2339,3.2707,3.305,3.3457,3.3396,3.3151,3.2764,3.2385,3.188,3.1144,3.0479,3.0103,3.0124,3.0279,3.0384,3.0384,3.0194,3.0151,3.0363,3.0215,3.0172,3.0305,3.0426,3.0398,3.0186,3.0203,3.0203,3.0186,2.9724,2.957,2.9661,2.9189,2.8709,3.813,3.8202,3.8202,3.8202,3.7244,3.5691,3.3427,3.1177,2.8709,2.5444,2.378,2.2685,2.2026,2.3499,2.5415,2.7316,2.9508,3.2021,3.4907,3.559,3.6286,3.7593,3.8014,3.8202,3.8202,3.8202,3.8202,3.8202,3.8202,3.8202,3.8202,3.8202,3.8202,3.8202,3.7897,3.7593,3.7302,3.6315,3.5697,3.5392,3.4719,3.4414,3.4414,3.4414,3.4414,3.4414,3.4414,3.4414,3.4414,3.4414,3.4414,3.4414,3.4414,3.4414,3.4414,3.4414,3.4414,3.4414,3.4414,3.4414,3.4414,3.4414,3.4414,3.4414,3.4414,3.4414,3.4414,3.4515,3.4449,3.4259,3.3953,3.349,3.2966,3.2179,3.1753,3.1595,3.1877,3.2226,3.2594,3.296,3.3319,3.3688,3.405,3.4031,3.3866,3.3529,3.3277,3.2852,3.2111,3.1364,3.0787,3.0408,3.0443,3.0506,3.0506,3.0316,3.0274,3.0506,3.0316,3.0295,3.0489,3.0506,3.0506,3.0506,3.0506,3.0506,3.0506,3.0262,3.0156,3.0156,2.9683,2.9348,3.8159,3.8202,3.8202,3.8202,3.6765,3.4724,3.2106,2.9842,2.7215,2.3476,2.2504,2.1997,2.0988,2.2149,2.3818,2.5542,2.7212,2.9522,3.3009,3.4008,3.514,3.707,3.7839,3.8202,3.8202,3.8202,3.8202,3.8202,3.8202,3.8202,3.8202,3.8202,3.8144,3.8014,3.7549,3.7172,3.6896,3.5915,3.5334,3.5189,3.4646,3.4414,3.4414,3.4414,3.4414,3.4414,3.4414,3.4414,3.4414,3.4414,3.4414,3.4414,3.4414,3.4414,3.4414,3.4414,3.4414,3.4414,3.4414,3.4414,3.4414,3.4414,3.4414,3.4414,3.4414,3.4414,3.4481,3.4664,3.4783,3.4817,3.4381,3.4226,3.3893,3.2601,3.2253,3.2354,3.2815,3.3209,3.3485,3.3537,3.3876,3.425,3.4472,3.4546,3.4445,3.4081,3.4038,3.3756,3.3033,3.2431,3.178,3.1035,3.0688,3.0506,3.0506,3.0359,3.0338,3.0506,3.0359,3.0338,3.0489,3.0506,3.0506,3.0506,3.0506,3.0506,3.0506,3.0506,3.0506,3.0489,3.0113,2.9897,3.8057,3.8202,3.8202,3.8202,3.6765,3.4724,3.2106,2.9145,2.605,2.2759,2.1162,2.032,2.0204,2.077,2.2251,2.5324,2.6471,2.8505,3.2879,3.4008,3.514,3.707,3.7839,3.8202,3.8202,3.8202,3.8202,3.8202,3.8202,3.8202,3.8202,3.8202,3.7955,3.7404,3.7346,3.6736,3.5595,3.5465,3.5101,3.4501,3.4443,3.4414,3.4414,3.4414,3.4414,3.4414,3.4414,3.4414,3.4414,3.4414,3.4414,3.4414,3.4414,3.4414,3.4414,3.4414,3.4414,3.4414,3.4414,3.4414,3.4414,3.4414,3.4414,3.4414,3.4414,3.4515,3.4664,3.4698,3.4783,3.492,3.5041,3.4664,3.405,3.3432,3.3266,3.3333,3.3562,3.3642,3.3745,3.3984,3.4275,3.4472,3.4497,3.4691,3.4842,3.4816,3.48,3.4535,3.3789,3.3624,3.3309,3.2586,3.1305,3.0506,3.0506,3.0468,3.0468,3.0506,3.0468,3.0468,3.0506,3.0506,3.0506,3.0506,3.0506,3.0506,3.0506,3.0506,3.0506,3.0506,3.0447,3.0215,3.7491,3.7926,3.8115,3.7752,3.6214,3.4022,3.1031,2.8521,2.5763,2.2135,2.0988,2.0524,2.0175,2.0291,2.1249,2.365,2.3978,2.5197,2.8956,2.9987,3.154,3.4632,3.588,3.6939,3.8086,3.8202,3.8202,3.8202,3.7868,3.7665,3.7665,3.7665,3.7549,3.7317,3.6548,3.593,3.5392,3.498,3.4661,3.4414,3.4414,3.4414,3.4414,3.4414,3.4414,3.4414,3.4414,3.4414,3.4414,3.4414,3.4414,3.4414,3.4414,3.4414,3.4414,3.4414,3.4414,3.4414,3.4414,3.4414,3.4414,3.4549,3.4597,3.4597,3.4597,3.4683,3.4817,3.4817,3.4949,3.5115,3.518,3.4934,3.4696,3.481,3.4384,3.4101,3.4652,3.4484,3.425,3.4521,3.4667,3.4739,3.4739,3.4828,3.4899,3.4899,3.4899,3.4783,3.4502,3.4054,3.3673,3.3375,3.205,3.1168,3.1168,3.0754,3.0506,3.0506,3.0506,3.0506,3.0506,3.0506,3.0506,3.0506,3.0506,3.0506,3.0506,3.0506,3.0506,3.0506,3.0506,3.0405,3.6504,3.7172,3.7549,3.7114,3.5415,3.3075,3.0248,2.7853,2.5212,2.1714,2.0857,2.0538,1.9928,1.9972,2.0669,2.2359,2.2432,2.3397,2.6605,2.7607,2.9232,3.2498,3.4055,3.5508,3.7201,3.7868,3.8202,3.8202,3.7651,3.7302,3.7302,3.6939,3.6736,3.6736,3.5872,3.5305,3.5116,3.4646,3.4414,3.4414,3.4414,3.4414,3.4414,3.4414,3.4414,3.4414,3.4414,3.4414,3.4414,3.4414,3.4414,3.4414,3.4414,3.4414,3.4414,3.4414,3.4414,3.4414,3.4414,3.4414,3.4414,3.4563,3.4698,3.475,3.475,3.4883,3.5001,3.5001,3.5264,3.5557,3.5492,3.5594,3.5767,3.6025,3.5543,3.5122,3.5414,3.5118,3.4833,3.4885,3.4899,3.4899,3.4899,3.4899,3.4899,3.4899,3.4899,3.4899,3.4899,3.4435,3.4121,3.4121,3.3011,3.2161,3.1929,3.1454,3.1073,3.0837,3.0837,3.0721,3.0506,3.0506,3.0506,3.0506,3.0506,3.0506,3.0506,3.0506,3.0506,3.0506,3.0506,3.0506,3.5072,3.5851,3.633,3.6315,3.4414,3.2002,3.0045,2.713,2.4099,2.1525,2.0524,1.9899,1.9232,1.9653,2.0524,2.1801,2.2504,2.4003,2.7246,2.8274,2.9377,3.1308,3.2687,3.4026,3.5305,3.7099,3.8202,3.8202,3.7651,3.7302,3.7302,3.6083,3.5421,3.5421,3.5407,3.5101,3.4428,3.4414,3.4414,3.4414,3.4414,3.4414,3.4414,3.4414,3.4414,3.4414,3.4414,3.4414,3.4414,3.4414,3.4414,3.4414,3.4414,3.4414,3.4414,3.4414,3.4414,3.4414,3.4414,3.4414,3.4414,3.4414,3.4635,3.4902,3.4902,3.5034,3.518,3.518,3.5767,3.6368,3.6227,3.6784,3.7268,3.6889,3.677,3.6552,3.5694,3.5486,3.5374,3.4984,3.4899,3.4899,3.4899,3.4899,3.4899,3.4899,3.4899,3.4899,3.4899,3.4883,3.4883,3.4883,3.422,3.3475,3.2752,3.2685,3.2365,3.1631,3.1598,3.1267,3.0522,3.0506,3.0506,3.0506,3.0506,3.0506,3.0506,3.0506,3.0506,3.0506,3.0506,3.0506,3.2007,3.3242,3.3949,3.2179,3.1467,3.035,2.7128,2.5564,2.3969,2.1003,2.0233,1.9899,1.9217,1.9275,2.0132,2.2272,2.2772,2.3722,2.6068,2.775,2.945,3.1461,3.4806,3.7011,3.731,3.7854,3.8028,3.7622,3.6983,3.6431,3.6031,3.5169,3.4907,3.5392,3.4971,3.4617,3.4414,3.4414,3.4414,3.4414,3.4414,3.4414,3.4414,3.4414,3.4414,3.4414,3.4414,3.4414,3.4414,3.4414,3.4414,3.4414,3.4414,3.4414,3.4414,3.4414,3.4414,3.4414,3.4414,3.4414,3.4448,3.4668,3.4802,3.4935,3.5213,3.5359,3.5407,3.5407,3.591,3.6399,3.6337,3.7042,3.769,3.7598,3.7335,3.7117,3.7012,3.624,3.5588,3.5645,3.5247,3.4899,3.4899,3.4899,3.4899,3.4899,3.4899,3.4899,3.4899,3.4899,3.4899,3.4899,3.4684,3.4237,3.3508,3.3,3.2597,3.2365,3.2348,3.2249,3.2,3.2,3.2,3.2,3.2,3.2,3.2,3.2,3.2,3.2,3.2,3.2,2.9174,3.0553,3.1368,2.9943,2.9377,2.8433,2.5556,2.4312,2.3041,2.0611,1.9899,1.9595,1.9174,1.9304,2.0001,2.1591,2.2258,2.3229,2.5154,2.6895,2.9125,3.2182,3.5539,3.768,3.7965,3.8157,3.8121,3.776,3.6787,3.6133,3.5859,3.4952,3.4588,3.4994,3.4617,3.4414,3.4414,3.4414,3.4414,3.4414,3.4414,3.4414,3.4414,3.4414,3.4414,3.4414,3.4414,3.4414,0.0,3.4414,3.4414,3.4414,3.4414,3.4448,3.4515,3.4515,3.4549,3.4601,3.4601,3.4601,3.4635,3.4835,3.4935,3.5082,3.5392,3.5504,3.5569,3.5765,3.629,3.6845,3.7071,3.7767,3.8399,3.8258,3.8059,3.7807,3.7584,3.694,3.6284,3.5893,3.5555,3.523,3.4949,3.4899,3.4899,3.4899,3.4899,3.4899,3.4899,3.4899,3.4899,3.4899,3.4899,3.47,3.4237,3.3789,3.3415,3.3127,3.3133,3.3,3.2718,3.2702,3.2702,3.2702,3.2702,3.2702,3.2702,3.2702,3.2702,3.2702,3.2702,3.2702,0.0,2.7781,2.8448,2.887,2.7752,2.617,2.4849,2.318,0.0,2.0291,1.9537,1.913,1.9217,1.9711,2.0175,2.0407,2.1423,2.2875,2.4752,2.6392,2.9051,3.3577,3.5444,3.6745,3.7699,3.8161,3.8402,3.8387,3.7041,3.6324,3.6612,3.5248,3.4501,3.4501,3.4448,3.4414,3.4414,3.4414,3.4414,3.4414,3.4414,3.4414,3.4414,3.4414,3.4414,3.4414,3.4414,3.4414,3.4414,3.4414,3.4414,3.4414,3.4414,3.4549,3.4698,3.4698,3.4783,3.4902,3.4902,3.4902,3.4902,3.4935,3.51,3.5311,3.5522,3.5554,3.5683,3.6227,3.692,3.7589,3.8137,3.8799,3.9218,3.8914,3.8832,3.857,3.7643,3.7611,3.7314,3.5962,3.5893,3.586,3.5164,3.5015,3.4982,3.4982,3.4932,3.4899,3.4899,3.4899,3.4899,3.4899,3.4899,3.4899,3.4899,3.4899,3.4601,3.3905,3.3872,3.358,3.2884,3.2868,3.2868,3.2868,3.2868,3.2868,3.2868,3.2868,3.2868,3.2868,3.2868,3.2868,2.2251,0.0,2.4713,2.3354,2.3418,2.336,0.0,2.122,2.0872,1.9595,1.9217,1.9406,2.0364,2.0306,2.0901,2.3302,2.3992,2.4927,2.6951,3.073,3.4227,3.6658,3.8736,3.9637,3.8724,3.9106,3.8821,3.7301,3.7313,3.7201,3.677,3.5973,3.5544,3.5544,3.4968,3.4563,3.4414,3.4563,3.4563,3.4414,3.4414,3.4414,3.4414,3.4414,3.4414,3.4414,3.4414,3.4414,3.4414,3.4414,3.4481,3.4631,3.4631,3.4716,3.4835,3.4835,3.4868,3.4902,3.4902,3.4902,3.4935,3.5082,3.5574,3.6133,3.6164,3.6196,3.6227,3.6368,3.7221,3.8108,3.825,3.8799,3.9272,3.9218,3.9175,3.9115,3.8879,3.8444,3.7992,3.7619,3.7184,3.6787,3.6622,3.6125,3.5744,3.5744,3.5263,3.4899,3.4899,3.4899,3.4899,3.4899,3.4899,3.4899,3.4899,3.4899,3.4816,3.4651,3.4634,3.4551,3.4386,3.4369,3.4369,3.4369,3.4369,3.4369,3.4369,3.4369,3.4369,3.4369,3.4369,3.4369,2.0045,2.1757,2.3244,2.2512,2.262,2.2577,2.1278,2.077,2.0306,1.9304,1.9101,1.9406,2.0407,2.0593,2.1239,2.3209,2.4416,2.6203,2.9396,3.3529,3.6893,3.8747,4.025,4.0796,4.0043,3.9894,3.9282,3.7888,3.7761,3.7627,3.7413,3.6707,3.6306,3.6306,3.5834,3.5234,3.4549,3.4563,3.4515,3.4414,3.4414,3.4414,3.4414,3.4414,3.4414,3.4414,3.4481,3.434,3.4112,3.4485,3.4541,3.4405,3.4666,3.4883,3.5034,3.5034,3.5115,3.518,3.518,3.518,3.5246,3.5638,3.6038,3.6461,3.6784,3.7041,3.7265,3.7265,3.7764,3.8379,3.8689,3.9023,3.9299,3.9299,3.9299,3.9272,3.9094,3.8877,3.8566,3.8061,3.776,3.75,3.7168,3.6771,3.639,3.6059,3.5661,3.528,3.4932,3.4899,3.4899,3.4899,3.4899,3.4899,3.4899,3.4899,3.4899,3.4899,3.4899,3.4899,3.4899,3.4899,3.4899,3.4899,3.4899,3.4899,3.4899,3.4899,3.4899,3.4899,3.4899,3.4899,1.9464,2.1257,2.307,2.3151,2.2954,2.2577,2.1873,2.0944,2.0074,1.9508,1.9391,1.9653,2.0544,2.1193,2.1927,2.2871,2.4946,2.7896,3.2081,3.5521,3.831,4.0194,4.0896,4.118,4.108,4.0419,3.9696,3.8956,3.8245,3.7982,3.8266,3.7469,3.7038,3.7038,3.6783,3.6166,3.5067,3.4802,3.4668,3.4635,3.4635,3.4668,3.4721,3.4721,3.4721,3.4773,3.4817,3.4555,3.4092,3.4626,3.4587,3.4246,3.4845,3.5133,3.5228,3.5447,3.5589,3.5651,3.5733,3.5797,3.5878,3.6383,3.66,3.6814,3.737,3.7982,3.8463,3.8463,3.8463,3.859,3.9148,3.9299,3.9299,3.9299,3.9299,3.9218,3.8958,3.9094,3.902,3.8109,3.8187,3.8179,3.7549,3.735,3.7036,3.629,3.6075,3.5777,3.5148,3.4965,3.4932,3.5048,3.4965,3.4899,3.4899,3.4899,3.4899,3.4899,3.4899,3.4899,3.4899,3.4899,3.4899,3.4899,3.4899,3.4899,3.4899,3.4899,3.4899,3.4899,3.4899,3.4899,2.1104,2.2628,2.3122,2.0494,2.1003,2.183,2.0654,2.064,2.0828,2.0727,2.0712,2.1276,2.3148,2.3489,2.4394,2.7225,2.9913,3.2598,3.5263,3.7674,3.9718,4.1223,4.1912,4.1825,4.0704,4.0431,3.9795,3.8505,3.881,3.905,3.9121,3.8435,3.808,3.808,3.7397,3.6935,3.6722,3.6196,3.5847,3.5657,3.5657,3.5802,3.6103,3.6103,3.6213,3.6415,3.5798,3.5569,3.5527,3.4956,3.4818,3.4972,3.5582,3.5598,3.5416,3.6611,3.6723,3.6337,3.6906,3.7101,3.7131,3.7221,3.7589,3.8023,3.8137,3.8618,3.9148,3.9148,3.9148,3.9175,3.9272,3.9299,3.9299,3.9299,3.9299,3.9299,3.9245,3.9272,3.9239,3.9096,3.9106,3.91,3.8984,3.8444,3.7798,3.7052,3.6406,3.5959,3.5843,3.5297,3.5131,3.576,3.5263,3.4899,3.4899,3.4899,3.4899,3.4899,3.4899,3.4899,3.4899,3.4899,3.4899,3.4899,3.4899,3.4899,3.4899,3.4899,3.4899,3.4899,3.4899,3.4899,2.0727,2.1902,2.2512,2.1032,2.2367,2.3804,2.2852,2.2316,2.2026,2.2026,2.2205,2.2819,2.4359,2.5082,2.6623,3.0175,3.2776,3.5102,3.7158,3.894,4.0544,4.193,4.218,4.1913,4.1058,4.064,3.9968,3.892,3.9121,3.9299,3.9299,3.9023,3.8843,3.8843,3.8311,3.8026,3.8026,3.7608,3.7057,3.6368,3.6368,3.6461,3.66,3.6182,3.6072,3.6175,3.5549,3.5091,3.481,3.494,3.5047,3.5258,3.5896,3.6272,3.6513,3.7154,3.7191,3.6981,3.728,3.7399,3.7442,3.7764,3.808,3.8379,3.8745,3.905,3.9299,3.9299,3.9299,3.9299,3.9299,3.9299,3.9299,3.9299,3.9299,3.9299,3.9299,3.9299,3.9299,3.9299,3.9299,3.9299,3.9299,3.9033,3.8543,3.7814,3.7417,3.7052,3.6655,3.6307,3.6075,3.6009,3.5694,3.533,3.4932,3.4899,3.4899,3.4899,3.4899,3.4899,3.4899,3.4899,3.4899,3.4899,3.4899,3.4899,3.4899,3.4899,3.4899,3.4899,3.4899,3.4899,2.0872,2.1699,2.2512,2.2817,2.4007,2.511,2.5042,2.4383,2.3917,2.4426,2.4752,2.5266,2.6321,2.7695,2.9678,3.2738,3.5181,3.7185,3.8649,3.9931,4.1105,4.21,4.1873,4.1515,4.1198,4.0531,3.9912,3.9348,3.9299,3.9299,3.9299,3.9299,3.9299,3.9299,3.904,3.8914,3.8914,3.852,3.7955,3.716,3.716,3.7125,3.6995,3.6429,3.6127,3.5995,3.5399,3.4865,3.4451,3.4934,3.5275,3.5554,3.6238,3.7029,3.7809,3.7663,3.7722,3.7838,3.7838,3.7838,3.7924,3.8379,3.8535,3.8618,3.9148,3.9299,3.9299,3.9299,3.9299,3.9299,3.9299,3.9299,3.9299,3.9299,3.9299,3.9299,3.9299,3.9299,3.9299,3.9299,3.9299,3.9299,3.9299,3.9299,3.905,3.8328,3.8186,3.8013,3.7433,3.7218,3.6953,3.6555,3.6357,3.5959,3.5214,3.4998,3.4899,3.4899,3.4899,3.4899,3.4899,3.4899,3.4899,3.4899,3.4899,3.4899,3.4899,3.4899,3.4899,3.4899,3.4899,3.4899,2.3136,2.3688,2.406,2.5236,2.4326,2.3577,2.5328,2.6046,2.6911,2.8953,2.9271,2.9492,3.0564,3.265,3.4463,3.5247,3.7737,3.9762,4.0183,4.0889,4.1368,4.1463,4.09,4.0498,4.0464,3.9812,3.9365,3.9299,3.9299,3.9299,3.9299,3.9299,3.9299,3.9299,3.9272,3.9272,3.9272,3.8573,3.8236,3.8262,3.8262,3.8075,3.7638,3.7573,3.7347,3.6966,3.6224,3.592,3.5889,3.5202,3.5364,3.612,3.6786,3.7899,3.9094,3.8463,3.8634,3.9148,3.9148,3.9148,3.9175,3.9202,3.9245,3.9245,3.9299,3.9299,3.9299,3.9299,3.9299,3.9299,3.9299,3.9299,3.9299,3.9299,3.9299,3.9299,3.9299,3.9299,3.9299,3.9299,3.9299,3.9299,3.9299,3.9299,3.905,3.8328,3.8186,3.8169,3.8146,3.7533,3.735,3.7954,3.7433,3.6721,3.5976,3.5297,3.4899,3.4899,3.4899,3.4899,3.4899,3.4899,3.4899,3.4899,3.4899,3.4899,3.4899,3.4899,3.4899,3.4899,3.4899,3.4899,2.2512,2.3296,2.4094,2.4955,2.495,2.5184,2.7059,2.8438,2.9845,3.1576,3.238,3.2774,3.2752,3.4336,3.5743,3.5948,3.7987,3.9726,4.0315,4.0641,4.0928,4.1331,4.0812,4.0409,4.0409,3.973,3.9299,3.9299,3.9299,3.9299,3.9299,3.9299,3.9299,3.9299,3.9299,3.9299,3.9299,3.8576,3.8239,3.8263,3.7804,3.7495,3.7329,3.6867,3.6571,3.6373,3.5644,3.5324,3.5325,3.5018,3.5357,3.6155,3.7331,3.8411,3.9272,3.9023,3.9077,3.9299,3.9299,3.9299,3.9299,3.9299,3.9299,3.9299,3.9299,3.9299,3.9299,3.9299,3.9299,3.9299,3.9299,3.9299,3.9299,3.9299,3.9299,3.9299,3.9299,3.9299,3.9299,3.9299,3.9299,3.9299,3.9299,3.9299,3.9216,3.8924,3.8874,3.8874,3.8874,3.8626,3.8394,3.8228,3.7135,3.6307,3.6025,3.5313,3.4899,3.4899,3.4899,3.4899,3.4899,3.4899,3.4899,3.4899,3.4899,3.4899,3.4899,3.4899,3.4899,3.4899,3.4899,3.4899,2.2294,2.2933,2.3789,2.4607,2.5643,2.7069,2.9294,3.0845,3.2462,3.4623,3.5443,3.5645,3.5091,3.5818,3.6519,3.6678,3.836,3.9746,4.0011,4.026,4.0492,4.0713,4.0343,4.0061,4.0061,3.9597,3.9299,3.9299,3.9299,3.9299,3.9299,3.9083,3.9067,3.9299,3.8851,3.8735,3.8941,3.7996,3.7516,3.75,3.6771,3.6539,3.6738,3.6241,3.5876,3.5628,3.5114,3.4899,3.4899,3.4899,3.5462,3.6473,3.7715,3.8642,3.9299,3.9299,3.9299,3.9299,3.9299,3.9299,3.9299,3.9299,3.9299,3.9299,3.9299,3.9299,3.9299,3.9299,3.9299,3.9299,3.9299,3.9299,3.9299,3.9299,3.9299,3.9299,3.9299,3.9299,3.9299,3.9299,3.9299,3.9299,3.9299,3.9299,3.9299,3.9299,3.9299,3.9299,3.9299,3.9299,3.9116,3.8593,3.745,3.6605,3.6373,3.5678,3.5148,3.4916,3.4899,3.4899,3.4899,3.4899,3.4899,3.4899,3.4899,3.4899,3.4899,3.4899,3.4899,3.4899,3.4899,3.4899,2.2888,2.2902,2.3244,2.4505,2.6426,2.8859,3.1928,3.32,3.477,3.8402,3.864,3.8133,3.7847,3.7444,3.7274,3.7732,3.9269,4.0144,3.9398,3.9928,4.0127,3.9398,3.9299,3.9299,3.9299,3.9299,3.9299,3.9299,3.9299,3.9299,3.9299,3.8609,3.8543,3.9265,3.7864,3.7466,3.8169,3.6738,3.6009,3.5992,3.5247,3.528,3.5992,3.5992,3.5595,3.4899,3.4899,3.4899,3.4899,3.4899,3.5777,3.7168,3.7914,3.8642,3.9282,3.9299,3.9299,3.9299,3.9299,3.9299,3.9299,3.9299,3.9299,3.9299,3.9299,3.9299,3.9299,3.9299,3.9299,3.9299,3.9299,3.9299,3.9299,3.9299,3.9299,3.9299,3.9299,3.9299,3.9299,3.9299,3.9299,3.9299,3.9299,3.9299,3.9299,3.9299,3.9299,3.9299,3.9299,3.9299,3.9299,3.9299,3.8642,3.7914,3.7185,3.6439,3.5694,3.4965,3.4899,3.4899,3.4899,3.4899,3.4899,3.4899,3.4899,3.4899,3.4899,3.4899,3.4899,3.4899,3.4899,3.4899,2.2374,2.3779,2.5509,2.6129,2.8713,3.1661,3.3805,3.5662,3.7806,4.0869,4.0376,3.9287,3.8933,3.8308,3.7921,3.8058,3.8964,3.9547,3.9332,3.9497,3.9547,3.9332,3.9299,3.9299,3.9299,3.9299,3.9299,3.9299,3.9299,3.9299,3.9299,3.91,3.8825,3.8543,3.8112,3.7748,3.7433,3.6489,3.6009,3.5992,3.5247,3.5015,3.523,3.523,3.5098,3.4899,3.4899,3.4899,3.4899,3.4899,3.5462,3.6406,3.7152,3.788,3.8593,3.9116,3.9299,3.9299,3.9299,3.9299,3.9299,3.9299,3.9299,3.9299,3.9299,3.9299,3.9299,3.9299,3.9299,3.9299,3.9299,3.9299,3.9299,3.9299,3.9299,3.9299,3.9299,3.9299,3.9299,3.9299,3.9299,3.9299,3.9299,3.9299,3.9299,3.9299,3.9299,3.9299,3.9299,3.9299,3.9299,3.9299,3.8642,3.8129,3.7897,3.6721,3.6125,3.6439,3.5479,3.4899,3.4899,3.4899,3.4899,3.4899,3.4899,3.4899,3.4899,3.4899,3.4899,3.4899,3.4899,3.5181,2.2863,2.4571,2.66,2.7838,3.0634,3.3805,3.6527,3.8379,4.0176,4.2464,4.1403,4.011,4.0122,3.9073,3.8311,3.8593,3.9017,3.9299,3.9299,3.9299,3.9299,3.9299,3.9299,3.9299,3.9299,3.9299,3.9299,3.9299,3.9033,3.9,3.9282,3.847,3.8046,3.8186,3.7367,3.682,3.6671,3.5926,3.5562,3.5562,3.5114,3.4899,3.4899,3.4899,3.4899,3.4899,3.4899,3.4899,3.4899,3.4899,3.533,3.6042,3.6489,3.7301,3.8261,3.8692,3.905,3.9299,3.9299,3.9299,3.9299,3.9299,3.9299,3.9299,3.9299,3.9299,3.9299,3.9299,3.9299,3.9299,3.9299,3.9299,3.9272,3.9121,3.9218,3.9272,3.9121,3.9218,3.9299,3.9299,3.9299,3.9299,3.9299,3.9299,3.9299,3.9299,3.9299,3.9299,3.9299,3.9299,3.9299,3.9299,3.8891,3.8526,3.8228,3.74,3.6953,3.7102,3.6274,3.5777,3.5777,3.5214,3.4899,3.4899,3.4899,3.4899,3.4899,3.4899,3.5048,3.5346,3.5346,3.5727,2.3859,2.5198,2.6903,2.9582,3.239,3.5507,3.9489,4.0862,4.174,4.3184,4.1905,4.0663,4.1293,3.9702,3.8526,3.9199,3.9299,3.9299,3.9299,3.9299,3.9299,3.9299,3.9299,3.9299,3.9299,3.9299,3.9299,3.9299,3.8626,3.8493,3.9166,3.7218,3.6688,3.7954,3.6059,3.5297,3.5893,3.523,3.4899,3.4899,3.4899,3.4899,3.4899,3.4899,3.4899,3.4899,3.4899,3.4899,3.4899,3.4899,3.5297,3.5909,3.5976,3.687,3.8129,3.8195,3.8659,3.9299,3.9299,3.9299,3.9299,3.9299,3.9299,3.9299,3.9299,3.9299,3.9299,3.9299,3.9299,3.9299,3.9299,3.9299,3.9218,3.8887,3.9067,3.9218,3.8914,3.9094,3.9299,3.9299,3.9299,3.9299,3.9299,3.9299,3.9299,3.9299,3.9299,3.9299,3.9299,3.9299,3.9299,3.9299,3.9299,3.9033,3.8361,3.8245,3.7947,3.735,3.721,3.7186,3.7252,3.5801,3.4998,3.4998,3.4932,3.4899,3.4899,3.4965,3.5346,3.6009,3.6075,3.6506,2.3335,2.5429,2.8045,3.0823,3.4454,3.7866,3.9934,4.0525,4.1011,4.2423,4.1922,4.1243,4.1375,4.0117,3.9133,3.9282,3.9299,3.9299,3.9299,3.9299,3.9299,3.9299,3.9299,3.9299,3.9299,3.9299,3.9299,3.9299,3.8626,3.8278,3.8427,3.745,3.6738,3.6489,3.6009,3.5562,3.5131,3.4982,3.4899,3.4899,3.4899,3.4899,3.4899,3.4899,3.4899,3.4899,3.4899,3.4899,3.4899,3.4899,3.4982,3.5197,3.5777,3.6555,3.7417,3.7996,3.8659,3.9299,3.9299,3.9299,3.9299,3.9299,3.9299,3.9299,3.9299,3.9299,3.9299,3.9299,3.9299,3.9299,3.9299,3.9299,3.9218,3.8887,3.9067,3.9272,3.9218,3.9245,3.9299,3.9299,3.9299,3.9299,3.9299,3.9299,3.9299,3.9299,3.9299,3.9299,3.9299,3.9299,3.9299,3.9299,3.9299,3.9232,3.9083,3.8526,3.8377,3.8818,3.8045,3.7834,3.8421,3.6712,3.576,3.576,3.5197,3.4899,3.4899,3.5479,3.5843,3.6009,3.6605,3.7268,2.4025,2.6566,2.9662,3.346,3.6305,3.8493,3.963,4.016,4.0625,4.1342,4.1193,4.0912,4.0912,4.0044,3.9299,3.9299,3.9299,3.9299,3.9299,3.9299,3.9299,3.9299,3.9299,3.9299,3.9299,3.8974,3.8758,3.8758,3.7765,3.7317,3.7665,3.6655,3.6025,3.6009,3.5661,3.5297,3.4899,3.4899,3.4899,3.4899,3.4899,3.4899,3.4899,3.4899,3.4899,3.4899,3.4899,3.4899,3.4899,3.4899,3.4899,3.4932,3.5313,3.6141,3.7152,3.7533,3.8361,3.9299,3.9299,3.9299,3.9299,3.9299,3.9299,3.9299,3.9299,3.9299,3.9299,3.9299,3.9299,3.9299,3.9299,3.9299,3.9272,3.9067,3.9175,3.9272,3.9094,3.9191,3.9299,3.9299,3.9299,3.9299,3.9299,3.9299,3.9299,3.9299,3.9299,3.9299,3.9299,3.9299,3.9299,3.9299,3.9299,3.9299,3.9299,3.8941,3.898,3.953,3.9059,3.8991,3.9544,3.8289,3.7427,3.7114,3.635,3.6131,3.6525,3.6535,3.6888,3.7578,3.7965,3.8554,2.4623,2.7651,3.1252,3.5613,3.7483,3.8361,3.8984,3.968,4.021,4.021,4.031,4.0409,4.0409,3.9812,3.9299,3.9299,3.9299,3.9299,3.9299,3.9299,3.9299,3.9299,3.9299,3.9249,3.9133,3.856,3.8136,3.8004,3.6771,3.6274,3.6887,3.5628,3.5181,3.5794,3.5214,3.4899,3.4899,3.4899,3.4899,3.4899,3.4899,3.4899,3.4899,3.4899,3.4899,3.4899,3.4899,3.4899,3.4899,3.4899,3.4899,3.4899,3.4899,3.5794,3.7102,3.7102,3.803,3.9299,3.9299,3.9299,3.9299,3.9299,3.9299,3.9299,3.9299,3.9299,3.9299,3.9299,3.9299,3.9299,3.9245,3.9272,3.9299,3.9245,3.9272,3.9218,3.8958,3.9094,3.9299,3.9299,3.9299,3.9299,3.9299,3.9299,3.9299,3.9299,3.9299,3.9299,3.9299,3.9299,3.9299,3.9299,3.9299,3.9325,3.9405,3.9405,3.959,3.9961,4.0062,4.0204,4.0473,3.9993,3.9439,3.8895,3.7848,3.7644,3.8294,3.7763,3.81,3.932,3.9416,3.9826,2.3311,2.7493,3.1979,3.4544,3.6721,3.8245,3.8328,3.8907,3.9448,3.9448,3.9962,4.0409,4.0409,3.9812,3.9299,3.9299,3.9299,3.9299,3.9299,3.9299,3.9299,3.9299,3.9299,3.905,3.8411,3.8278,3.7947,3.7301,3.6473,3.6042,3.6141,3.5346,3.4949,3.5032,3.4949,3.4899,3.4899,3.4899,3.4899,3.4899,3.4899,3.4899,3.4899,3.4899,3.4899,3.4899,3.4899,3.4899,3.4899,3.4899,3.4899,3.4899,3.4899,3.5794,3.7102,3.7102,3.803,3.9299,3.9299,3.9299,3.9299,3.9299,3.9299,3.9299,3.9299,3.9299,3.9299,3.9299,3.9299,3.9245,3.8942,3.9094,3.9245,3.8958,3.9094,3.9299,3.9245,3.9272,3.9299,3.9299,3.9299,3.9299,3.9299,3.9299,3.9299,3.9299,3.9299,3.9299,3.9299,3.9299,3.9299,3.9299,3.9299,3.9432,3.9798,3.9824,3.9969,4.0319,4.0652,4.0884,4.0931,4.1168,4.1261,4.1156,3.9163,3.8191,3.8294,3.879,3.9115,3.9337,3.9963,4.0314,2.4661,2.7962,3.1085,3.4137,3.5628,3.6572,3.7417,3.8162,3.8676,3.8676,3.9255,3.9779,3.9779,3.9514,3.9299,3.9299,3.9299,3.9299,3.9299,3.9299,3.9149,3.8725,3.8676,3.8394,3.7665,3.7218,3.6837,3.6506,3.5794,3.5379,3.5379,3.5081,3.4899,3.4899,3.4899,3.4899,3.4899,3.4899,3.4899,3.4899,3.4899,3.4899,3.4899,3.4899,3.4899,3.4899,3.4899,3.4899,3.4899,3.4899,3.4899,3.4932,3.5346,3.6174,3.7152,3.754,3.8394,3.9299,3.9299,3.9299,3.9299,3.9299,3.9299,3.9299,3.9299,3.9299,3.9299,3.9299,3.9299,3.9272,3.9121,3.9175,3.9272,3.9121,3.9175,3.9299,3.9299,3.9299,3.9299,3.9299,3.9299,3.9299,3.9299,3.9299,3.9299,3.9299,3.9299,3.9299,3.9299,3.9299,3.9299,3.9299,3.9511,3.972,3.9875,4.007,4.0336,4.0707,4.089,4.1094,4.134,4.1515,4.1604,4.1604,4.0254,3.975,4.0167,4.0023,4.0179,4.0596,4.092,4.1076,2.4973,2.7214,2.9152,3.263,3.3922,3.4717,3.6208,3.7119,3.7673,3.7871,3.851,3.8967,3.8785,3.905,3.9299,3.9299,3.9299,3.9299,3.9299,3.9149,3.8808,3.8278,3.8046,3.7649,3.6903,3.6324,3.5926,3.5727,3.5214,3.4899,3.4899,3.4899,3.4899,3.4899,3.4899,3.4899,3.4899,3.4899,3.4899,3.4899,3.4899,3.4899,3.4899,3.4899,3.4899,3.4899,3.4899,3.4899,3.4899,3.4899,3.4899,3.4965,3.5711,3.6456,3.7201,3.7947,3.8659,3.9299,3.9299,3.9299,3.9299,3.9299,3.9299,3.9299,3.9299,3.9299,3.9299,3.9299,3.9299,3.9272,3.9191,3.9245,3.9272,3.9175,3.9245,3.9299,3.9299,3.9299,3.9299,3.9299,3.9299,3.9299,3.9299,3.9299,3.9299,3.9299,3.9299,3.9299,3.9299,3.9299,3.9299,3.9299,3.9668,3.9935,4.002,4.036,4.0731,4.1117,4.114,4.1295,4.1582,4.1604,4.1604,4.1604,4.106,4.1042,4.1604,4.1042,4.106,4.1604,4.1604,4.1604,2.2447,2.4199,2.6038,2.895,3.1255,3.3216,3.4667,3.5578,3.6307,3.7019,3.7748,3.802,3.735,3.837,3.9299,3.9299,3.9299,3.9299,3.9299,3.8692,3.8245,3.8186,3.7599,3.687,3.6125,3.6025,3.5711,3.5015,3.4916,3.4899,3.4899,3.4899,3.4899,3.4899,3.4899,3.4899,3.4899,3.4899,3.4899,3.4899,3.4899,3.4899,3.4899,3.4899,3.4899,3.4899,3.4899,3.4899,3.4899,3.4899,3.4899,3.4965,3.5711,3.6456,3.7201,3.7947,3.8659,3.9299,3.9299,3.9299,3.9299,3.9299,3.9299,3.9299,3.9299,3.9299,3.9299,3.9299,3.9299,3.9245,3.8914,3.9067,3.9218,3.8887,3.9067,3.9299,3.9299,3.9299,3.9299,3.9299,3.9299,3.9299,3.9299,3.9299,3.9299,3.9299,3.9299,3.9299,3.9299,3.9299,3.9299,3.9299,3.9668,4.002,4.0343,4.0748,4.114,4.1542,4.156,4.1582,4.1604,4.1604,4.1604,4.1604,4.1569,4.1569,4.1604,4.1569,4.1569,4.1604,4.1604,4.1604,2.1267,2.3255,2.559,2.7564,2.9334,3.0974,3.2464,3.4087,3.5363,3.5628,3.6655,3.7417,3.7152,3.793,3.8444,3.7963,3.788,3.788,3.788,3.7665,3.7334,3.6854,3.6555,3.6108,3.5363,3.5297,3.5181,3.4916,3.4899,3.4899,3.4899,3.4899,3.4899,3.4899,3.5118,3.5316,3.5549,3.5549,3.5549,3.5549,3.5549,3.543,3.5218,3.5218,3.5118,3.4899,3.4899,3.4899,3.4899,3.4899,3.4899,3.4965,3.5711,3.6456,3.7201,3.7947,3.8659,3.9299,3.9299,3.9299,3.9299,3.9299,3.9299,3.9299,3.9299,3.9299,3.9299,3.9299,3.9299,3.9272,3.9148,3.9218,3.9272,3.9148,3.9202,3.9299,3.9299,3.9299,3.9299,3.9299,3.9299,3.9299,3.9299,3.9299,3.9299,3.9299,3.9511,3.959,3.9325,3.9722,3.991,3.972,4.0246,4.0645,4.0772,4.1163,4.1453,4.1582,4.1604,4.1604,4.1604,4.1604,4.1604,4.1604,4.1604,4.1604,4.1604,4.1604,4.1604,4.1604,4.1604,4.1604,1.9959,2.1748,2.41,2.6072,2.7081,2.8241,3.0671,3.2183,3.3259,3.4005,3.533,3.6357,3.6357,3.697,3.7384,3.7152,3.7102,3.7102,3.7102,3.6887,3.6555,3.6059,3.5777,3.5446,3.4949,3.4899,3.4899,3.4899,3.4899,3.4899,3.4899,3.5001,3.5125,3.5224,3.5453,3.5683,3.5907,3.5907,3.5907,3.5907,3.5907,3.571,3.5402,3.5402,3.5234,3.4899,3.4899,3.4899,3.4899,3.4899,3.4899,3.4998,3.5976,3.6671,3.7218,3.8212,3.8874,3.9299,3.9299,3.9299,3.9299,3.9299,3.9299,3.9299,3.9299,3.9299,3.9299,3.9299,3.9299,3.9299,3.9299,3.9299,3.9299,3.9299,3.9299,3.9299,3.9299,3.9299,3.9299,3.9299,3.9299,3.9299,3.9299,3.9405,3.9511,3.9511,3.9816,3.9969,3.9696,4.0095,4.0319,4.0079,4.0621,4.1001,4.1001,4.1363,4.1604,4.1604,4.1604,4.1604,4.1604,4.1604,4.1604,4.1604,4.1604,4.1604,4.1604,4.1604,4.1604,4.1604,4.1604,4.1604,0.0,0.0,0.0,2.4265,2.4464,2.5077,2.933,2.9777,2.993,3.2155,3.3756,3.4783,3.4816,3.5446,3.6174,3.6887,3.7036,3.7052,3.7052,3.6423,3.5976,3.5976,3.5346,3.4899,3.4899,3.4899,3.4899,3.4906,3.4906,3.4923,3.4947,3.5241,3.5588,3.5907,3.5929,3.5912,3.5912,3.5912,3.5912,3.5912,3.5912,3.5771,3.5447,3.5447,3.5241,3.4906,3.4906,3.4923,3.4899,3.4899,3.4899,3.5032,3.6489,3.7069,3.7268,3.8718,3.9265,3.9299,3.9299,3.9299,3.9299,3.9299,3.9299,3.9299,3.9299,3.9299,3.9299,3.9299,3.9299,3.9299,3.9299,3.9299,3.9299,3.9299,3.9299,3.9299,3.9299,3.9299,3.9299,3.9299,3.9299,3.9325,3.9325,3.9668,3.9926,3.9926,4.0187,4.04,4.04,4.0424,4.0424,4.0424,4.0772,4.1024,4.1024,4.1386,4.1604,4.1604,4.1604,4.1604,4.1604,4.1604,4.1604,4.1604,4.1604,4.1604,4.1604,4.1604,4.1604,4.1604,4.1604,4.1604,1.9449,0.0,0.0,0.0,0.0,0.0,2.5408,2.6485,2.7692,2.988,3.1073,3.205,3.3094,3.3905,3.4468,3.4667,3.5164,3.5512,3.5512,3.533,3.5197,3.5197,3.5015,3.4899,3.4899,3.4899,3.5001,3.5241,3.5264,3.5379,3.5599,3.571,3.5946,3.6322,3.6322,3.6447,3.6693,3.6693,3.6693,3.6693,3.6693,3.653,3.6191,3.6191,3.5849,3.5264,3.5264,3.5118,3.4899,3.4899,3.4899,3.4932,3.5346,3.6158,3.7152,3.7566,3.8377,3.9299,3.9299,3.9299,3.9299,3.9299,3.9299,3.9299,3.9299,3.9299,3.9299,3.9299,3.9299,3.9299,3.9299,3.9299,3.9299,3.9299,3.9299,3.9299,3.9299,3.9537,3.9642,3.9352,3.9537,3.9746,3.9746,4.0028,4.0245,4.0245,4.0604,4.0748,4.0424,4.0896,4.1163,4.0866,4.1186,4.1431,4.1431,4.1538,4.1604,4.1604,4.1604,4.1604,4.1604,4.1604,4.1604,4.1604,4.1604,4.1604,4.1604,4.1604,4.1604,4.1604,4.1604,4.1604,2.034,2.145,2.2758,2.221,0.0,0.0,2.4083,2.4646,2.5541,2.8009,2.9102,3.0063,3.152,3.2381,3.2878,3.2878,3.3756,3.4551,3.4849,3.4899,3.4899,3.4899,3.4899,3.4954,3.5095,3.5118,3.5241,3.5571,3.5616,3.5771,3.6135,3.6139,3.6305,3.6708,3.6708,3.6809,3.7007,3.7007,3.7007,3.7007,3.7007,3.6811,3.6502,3.6502,3.6174,3.5594,3.5453,3.5287,3.5095,3.497,3.4899,3.4965,3.5578,3.634,3.7168,3.7781,3.8569,3.9299,3.9299,3.9299,3.9299,3.9299,3.9299,3.9299,3.9299,3.9299,3.9299,3.9299,3.9299,3.9299,3.9299,3.9299,3.9299,3.9299,3.9432,3.9563,3.9563,3.9841,3.9995,3.9625,3.9841,4.0104,4.0104,4.041,4.0659,4.0659,4.0984,4.1163,4.0919,4.13,4.1498,4.1272,4.1453,4.1604,4.1604,4.1604,4.1604,4.1604,4.1604,4.1604,4.1604,4.1604,4.1604,4.1604,4.1604,4.1604,4.1604,4.1604,4.1604,4.1604,4.1604,4.1604,2.1398,2.2028,0.0,2.3636,2.2343,0.0,2.3951,2.3603,2.3553,2.6254,2.7398,2.8343,2.9785,3.0729,3.1298,3.1319,3.2613,3.3885,3.4667,3.4849,3.4899,3.4899,3.4899,3.5024,3.5379,3.5379,3.5521,3.5929,3.5994,3.6147,3.6405,3.6512,3.6687,3.6987,3.7007,3.7007,3.7007,3.7007,3.7007,3.7007,3.7007,3.6831,3.6564,3.6564,3.6343,3.595,3.5655,3.5492,3.543,3.5125,3.4954,3.5032,3.634,3.697,3.7268,3.8586,3.9166,3.9299,3.9299,3.9299,3.9299,3.9299,3.9299,3.9299,3.9299,3.9299,3.9299,3.9299,3.9299,3.9299,3.9352,3.9379,3.9379,3.9415,3.9703,3.9961,3.9961,4.0212,4.0368,4.0087,4.0262,4.0466,4.0466,4.0795,4.1071,4.1071,4.1363,4.1604,4.1604,4.1604,4.1604,4.1604,4.1604,4.1604,4.1604,4.1604,4.1604,4.1604,4.1604,4.1604,4.1604,4.1604,4.1604,4.1604,4.1604,4.1604,4.1604,4.1604,4.1604,4.1604,4.1604,4.1604,2.3272,2.357,2.3537,2.2477,2.2344,0.0,2.0955,2.1367,2.2359,2.352,2.4348,2.5344,2.6984,2.8377,2.9341,2.9565,3.1143,3.2739,3.3868,3.4518,3.4899,3.4899,3.4899,3.5024,3.5379,3.5165,3.5379,3.6301,3.6632,3.6531,3.5978,3.6538,3.6928,3.7007,3.7007,3.7007,3.7007,3.7007,3.7007,3.7007,3.7007,3.6968,3.6908,3.6908,3.671,3.6381,3.6318,3.6092,3.5798,3.5732,3.5407,3.4932,3.5214,3.6059,3.7135,3.7417,3.8278,3.9299,3.9299,3.9299,3.9299,3.9299,3.9299,3.9299,3.9299,3.9299,3.9299,3.9299,3.9299,3.9379,3.9694,3.9772,3.9858,4.012,4.0245,4.0294,4.0294,4.0604,4.0843,4.0789,4.0836,4.0866,4.0866,4.1209,4.1475,4.1475,4.156,4.1604,4.1604,4.1604,4.1604,4.1604,4.1604,4.1604,4.1604,4.1604,4.1604,4.1604,4.1604,4.1604,4.1604,4.1604,4.1604,4.1604,4.1604,4.1604,4.1604,4.1604,4.1604,4.1604,4.1604,4.1604,2.4646,2.4829,2.4829,2.3719,2.3172,0.0,0.0,2.1251,2.168,2.3139,2.3251,2.3645,2.5598,2.664,2.7368,2.7913,2.9629,3.117,3.1909,3.3193,3.404,3.404,3.404,3.413,3.4275,3.4158,3.4406,3.5284,3.5657,3.5671,3.5267,3.5987,3.6391,3.6391,3.6796,3.7007,3.7007,3.7007,3.7007,3.7007,3.7007,3.7007,3.7007,3.7007,3.6908,3.6748,3.6568,3.6402,3.6178,3.5972,3.5688,3.5441,3.5811,3.6511,3.7378,3.7761,3.8509,3.9299,3.9299,3.9299,3.9299,3.9299,3.9299,3.9325,3.9537,3.9713,3.9833,3.9833,3.9833,3.9901,4.0104,4.0154,4.0187,4.0368,4.0546,4.0683,4.0683,4.1024,4.1295,4.1295,4.1295,4.1295,4.1295,4.1453,4.1604,4.1604,4.1604,4.1604,4.1604,4.1604,4.1604,4.1604,4.1604,4.1604,4.1604,4.1604,4.1604,4.1604,4.1604,4.1604,4.1604,4.1604,4.1604,4.1604,4.1604,4.1604,4.1604,4.1604,4.1604,4.1604,4.1604,4.1604,2.5673,2.5855,2.617,2.5143,2.4216,2.3354,0.0,0.0,0.0,2.3103,2.2725,2.2673,2.4548,2.516,2.5572,2.6285,2.8031,2.9401,2.9673,3.1191,3.2397,3.2795,3.274,3.2769,3.3035,3.3,3.3233,3.3919,3.4154,3.4319,3.446,3.5179,3.5601,3.5601,3.6355,3.6779,3.6779,3.6919,3.7007,3.7007,3.7007,3.7007,3.7007,3.7007,3.7007,3.697,3.671,3.6606,3.6568,3.6245,3.6101,3.617,3.6595,3.7171,3.7793,3.8376,3.8992,3.952,3.952,3.952,3.952,3.952,3.952,3.9556,3.991,4.0204,4.04,4.04,4.04,4.0424,4.0514,4.0514,4.0538,4.0594,4.089,4.1117,4.1117,4.1363,4.1604,4.1604,4.1604,4.1604,4.1604,4.1604,4.1604,4.1604,4.1604,4.1604,4.1604,4.1604,4.1604,4.1604,4.1604,4.1604,4.1604,4.1604,4.1604,4.1604,4.1604,4.1604,4.1604,4.1604,4.1604,4.1604,4.1604,4.1604,4.1604,4.1604,4.1604,4.1604,4.1604,4.1604,2.6303,2.6601,2.6685,2.463,2.4978,2.4978,2.1696,0.0,2.2405,2.1527,0.0,2.2293,2.2972,0.0,0.0,2.4541,2.6279,2.769,2.7951,2.8548,2.9574,3.1312,3.1109,3.1262,3.2454,3.2254,3.2339,3.3087,3.2842,3.295,3.3599,3.4389,3.4811,3.4811,3.5548,3.5933,3.5933,3.6636,3.7007,3.7007,3.7007,3.7007,3.7007,3.7007,3.7007,3.7007,3.6968,3.693,3.6948,3.6891,3.6871,3.6831,3.6247,3.6887,3.8144,3.8229,3.9109,4.0294,4.0294,4.0294,4.0294,4.0294,4.0294,4.0277,4.0343,4.0368,4.04,4.04,4.04,4.0473,4.0843,4.0913,4.1024,4.1386,4.1498,4.152,4.152,4.156,4.1604,4.1604,4.1604,4.1604,4.1604,4.1604,4.1604,4.1604,4.1604,4.1604,4.1604,4.1604,4.1604,4.1604,4.1604,4.1604,4.1604,4.1604,4.1604,4.1604,4.1604,4.1604,4.1604,4.1604,4.1604,4.1604,4.1604,4.1604,4.1604,4.1604,4.1604,4.1604,4.1604,4.1604,2.6402,2.6733,2.6868,2.5077,2.511,2.4962,2.2675,2.2304,2.2446,2.2491,0.0,0.0,0.0,0.0,0.0,0.0,2.5248,2.5909,2.5743,2.5626,2.6573,2.93,2.9038,2.8965,2.9805,3.0298,3.0699,3.101,3.1062,3.1388,3.2125,3.3318,3.4003,3.4004,3.5179,3.5792,3.5792,3.6584,3.7007,3.7007,3.7007,3.7007,3.7007,3.7007,3.7007,3.7007,3.7007,3.7007,3.7007,3.7007,3.7007,3.697,3.6673,3.7343,3.8493,3.8493,3.93,4.04,4.04,4.04,4.04,4.04,4.0563,4.0748,4.0748,4.0913,4.11,4.11,4.11,4.114,4.13,4.134,4.1386,4.156,4.1604,4.1604,4.1604,4.1604,4.1604,4.1604,4.1604,4.1604,4.1604,4.1604,4.1604,4.1604,4.1604,4.1604,4.1604,4.1604,4.1604,4.1604,4.1604,4.1604,4.1604,4.1604,4.1604,4.1604,4.1604,4.1604,4.1604,4.1604,4.1604,4.1604,4.1604,4.1604,4.1604,4.1604,4.1604,4.1604,4.1604,4.1604,2.6518,2.6882,2.7149,2.5276,2.4961,2.4713,2.3248,2.2844,2.2977,2.3562,2.3313,0.0,0.0,0.0,2.3925,0.0,0.0,2.4917,2.4383,2.3765,2.4359,2.697,2.7305,2.7524,2.8082,2.8438,2.895,2.9674,2.9365,2.9737,3.1124,3.2265,3.2985,3.3196,3.4477,3.5285,3.5513,3.6285,3.6796,3.7007,3.7007,3.7007,3.7007,3.7007,3.7007,3.7007,3.7007,3.7007,3.7007,3.7007,3.7007,3.7007,3.7007,3.7758,3.8868,3.8868,3.9645,4.0731,4.0731,4.0731,4.0731,4.0731,4.0937,4.1163,4.1163,4.1363,4.1604,4.1604,4.1604,4.1604,4.1604,4.1604,4.1604,4.1604,4.1604,4.1604,4.1604,4.1604,4.1604,4.1604,4.1604,4.1604,4.1604,4.1604,4.1604,4.1604,4.1604,4.1604,4.1604,4.1604,4.1604,4.1604,4.1604,4.1604,4.1604,4.1604,4.1604,4.1604,4.1604,4.1604,4.1604,4.1604,4.1604,4.1604,4.1604,4.1604,4.1604,4.1604,4.1604,4.1604,4.1604,4.1604,2.6765,2.7263,2.7663,2.4762,2.458,2.4564,2.2593,2.3413,2.4482,2.3988,2.5291,2.629,2.5503,2.5504,0.0,0.0,0.0,0.0,0.0,2.3616,2.3445,2.4331,2.6127,2.7604,2.8412,2.7118,2.7298,2.9883,2.7985,2.8035,3.1036,3.1264,3.1633,3.2406,3.3196,3.3951,3.4723,3.5478,3.6233,3.7007,3.7007,3.7007,3.7007,3.7007,3.7007,3.7007,3.7007,3.7007,3.7007,3.7007,3.7007,3.7007,3.7007,3.7935,3.9284,3.9284,4.0266,4.156,4.156,4.156,4.156,4.156,4.1582,4.1582,4.1582,4.1582,4.1604,4.1604,4.1604,4.1604,4.1604,4.1604,4.1604,4.1604,4.1604,4.1604,4.1604,4.1604,4.1604,4.1604,4.1604,4.1604,4.1604,4.1604,4.1604,4.1604,4.1604,4.1604,4.1604,4.1604,4.1604,4.1604,4.1604,4.1604,4.1604,4.1604,4.1604,4.1604,4.1604,4.1604,4.1604,4.1604,4.1604,4.1604,4.1604,4.1604,4.1604,4.1604,4.1604,4.1604,4.1604,4.1604,2.7862,2.8398,2.8586,2.6089,2.5675,2.5363,2.3298,2.3903,2.4749,2.4212,2.5632,2.6685,2.5764,2.5618,0.0,0.0,0.0,0.0,0.0,2.1674,2.1329,2.2622,2.4707,2.5963,2.5747,2.6589,2.7335,2.7756,2.7508,2.8017,2.9597,3.065,3.1317,3.1598,3.2844,3.3898,3.4688,3.5443,3.6197,3.7007,3.7007,3.7007,3.7007,3.7007,3.7007,3.7007,3.7007,3.7007,3.7007,3.7007,3.7007,3.7007,3.7007,3.7935,3.9284,3.9284,4.0288,4.1604,4.1604,4.1604,4.1604,4.1604,4.1604,4.1604,4.1604,4.1604,4.1604,4.1604,4.1604,4.1604,4.1604,4.1604,4.1604,4.1604,4.1604,4.1604,4.1604,4.1604,4.1604,4.1604,4.1604,4.1604,4.1604,4.1604,4.1604,4.1604,4.1604,4.1604,4.1604,4.1604,4.1604,4.1604,4.1604,4.1604,4.1604,4.1604,4.1604,4.1604,4.1604,4.1604,4.1604,4.1604,4.1604,4.1604,4.1604,4.1604,4.1604,4.1604,4.1604,4.1604,4.1604,4.1604,2.858,2.9004,2.9126,2.7193,2.6729,2.6283,2.4469,2.513,2.5959,2.545,2.6629,2.7672,2.7324,2.6808,0.0,0.0,0.0,0.0,0.0,2.0725,2.0462,2.1463,2.3348,2.4717,2.5081,2.5437,2.6033,2.6929,2.642,2.6894,2.8807,3.0106,3.0931,3.1177,3.244,3.3635,3.4689,3.5179,3.5934,3.7007,3.7007,3.7007,3.7007,3.7007,3.7007,3.7007,3.7007,3.7007,3.7007,3.7007,3.7007,3.7007,3.7007,3.7935,3.9284,3.9284,4.0288,4.1604,4.1604,4.1604,4.1604,4.1604,4.1604,4.1604,4.1604,4.1604,4.1604,4.1604,4.1604,4.1604,4.1604,4.1604,4.1604,4.1604,4.1604,4.1604,4.1604,4.1604,4.1604,4.1604,4.1604,4.1604,4.1604,4.1604,4.1604,4.1604,4.1604,4.1604,4.1604,4.1604,4.1604,4.1604,4.1604,4.1604,4.1604,4.1604,4.1604,4.1604,4.1604,4.1604,4.1604,4.1885,4.2026,4.2026,4.2289,4.2289,4.2026,4.2026,4.1885,4.1604,4.1604,4.1604]}]]